Wetterdaten: Dienstag, 17.01.2023
Datum Zeit Temp. 2m Temp +5 cm Feuchte A. Luftdruck Regen Wind Richtung Richtung Sonnenschein UV Solar Taupunkt Windchill Windben
17.01.2023 00:00 0,1 C 0,0 C 92 % 986,3 hPa 0,0 l/m 11,3 km/h (2 Bft) SW 225 0 min 0,0 UV-I 0 W/m -1,0 C -4,4 C 22,5 km/h (4 Bft)
17.01.2023 00:01 0,1 C 0,0 C 92 % 986,3 hPa 0,0 l/m 12,9 km/h (3 Bft) SW 225 0 min 0,0 UV-I 0 W/m -1,0 C -5,5 C 22,5 km/h (4 Bft)
17.01.2023 00:02 0,1 C 0,0 C 92 % 986,3 hPa 0,0 l/m 9,7 km/h (2 Bft) S-SW 202 0 min 0,0 UV-I 0 W/m -1,0 C -3,1 C 14,5 km/h (3 Bft)
17.01.2023 00:03 0,1 C 0,0 C 92 % 986,4 hPa 0,0 l/m 16,1 km/h (3 Bft) S-SW 202 0 min 0,0 UV-I 0 W/m -1,0 C -7,5 C 27,4 km/h (4 Bft)
17.01.2023 00:04 0,1 C 0,0 C 92 % 986,4 hPa 0,0 l/m 16,1 km/h (3 Bft) SW 225 0 min 0,0 UV-I 0 W/m -1,0 C -7,5 C 25,7 km/h (4 Bft)
17.01.2023 00:05 0,1 C 0,0 C 92 % 986,5 hPa 0,0 l/m 16,1 km/h (3 Bft) S-SW 202 0 min 0,0 UV-I 0 W/m -1,0 C -7,5 C 29,0 km/h (5 Bft)
17.01.2023 00:06 0,1 C 0,0 C 92 % 986,4 hPa 0,2 l/m 14,5 km/h (3 Bft) SW 225 0 min 0,0 UV-I 0 W/m -1,0 C -6,6 C 22,5 km/h (4 Bft)
17.01.2023 00:07 0,1 C 0,0 C 92 % 986,5 hPa 0,0 l/m 14,5 km/h (3 Bft) SW 225 0 min 0,0 UV-I 0 W/m -1,0 C -6,6 C 20,9 km/h (4 Bft)
17.01.2023 00:08 0,1 C 0,0 C 92 % 986,5 hPa 0,0 l/m 14,5 km/h (3 Bft) S-SW 202 0 min 0,0 UV-I 0 W/m -1,0 C -6,6 C 16,1 km/h (3 Bft)
17.01.2023 00:09 0,1 C 0,0 C 92 % 986,5 hPa 0,0 l/m 17,7 km/h (3 Bft) SW 225 0 min 0,0 UV-I 0 W/m -1,0 C -8,4 C 30,6 km/h (5 Bft)
17.01.2023 00:10 0,1 C 0,0 C 92 % 986,6 hPa 0,0 l/m 16,1 km/h (3 Bft) SW 225 0 min 0,0 UV-I 0 W/m -1,0 C -7,5 C 22,5 km/h (4 Bft)
17.01.2023 00:11 0,0 C 0,0 C 92 % 986,7 hPa 0,0 l/m 14,5 km/h (3 Bft) SW 225 0 min 0,0 UV-I 0 W/m -1,1 C -6,7 C 22,5 km/h (4 Bft)
17.01.2023 00:12 0,1 C 0,0 C 92 % 986,6 hPa 0,0 l/m 17,7 km/h (3 Bft) S-SW 202 0 min 0,0 UV-I 0 W/m -1,0 C -8,4 C 25,7 km/h (4 Bft)
17.01.2023 00:13 0,0 C 0,0 C 92 % 986,7 hPa 0,0 l/m 14,5 km/h (3 Bft) S-SW 202 0 min 0,0 UV-I 0 W/m -1,1 C -6,7 C 22,5 km/h (4 Bft)
17.01.2023 00:14 0,0 C 0,0 C 92 % 986,7 hPa 0,0 l/m 16,1 km/h (3 Bft) SW 225 0 min 0,0 UV-I 0 W/m -1,1 C -7,6 C 32,2 km/h (5 Bft)
17.01.2023 00:15 0,0 C 0,0 C 92 % 986,8 hPa 0,0 l/m 11,3 km/h (2 Bft) SW 225 0 min 0,0 UV-I 0 W/m -1,1 C -4,5 C 32,2 km/h (5 Bft)
17.01.2023 00:16 0,1 C 0,0 C 92 % 986,8 hPa 0,0 l/m 11,3 km/h (2 Bft) SW 225 0 min 0,0 UV-I 0 W/m -1,0 C -4,4 C 20,9 km/h (4 Bft)
17.01.2023 00:17 0,0 C 0,0 C 92 % 986,7 hPa 0,0 l/m 9,7 km/h (2 Bft) SW 225 0 min 0,0 UV-I 0 W/m -1,1 C -3,2 C 17,7 km/h (3 Bft)
17.01.2023 00:18 0,0 C 0,0 C 92 % 986,8 hPa 0,0 l/m 9,7 km/h (2 Bft) SW 225 0 min 0,0 UV-I 0 W/m -1,1 C -3,2 C 14,5 km/h (3 Bft)
17.01.2023 00:19 0,0 C 0,0 C 92 % 986,8 hPa 0,0 l/m 9,7 km/h (2 Bft) SW 225 0 min 0,0 UV-I 0 W/m -1,1 C -3,2 C 14,5 km/h (3 Bft)
17.01.2023 00:20 0,0 C 0,0 C 92 % 986,7 hPa 0,0 l/m 14,5 km/h (3 Bft) SW 225 0 min 0,0 UV-I 0 W/m -1,1 C -6,7 C 27,4 km/h (4 Bft)
17.01.2023 00:21 0,0 C 0,0 C 92 % 986,7 hPa 0,0 l/m 14,5 km/h (3 Bft) S-SW 202 0 min 0,0 UV-I 0 W/m -1,1 C -6,7 C 17,7 km/h (3 Bft)
17.01.2023 00:22 0,0 C 0,0 C 92 % 986,8 hPa 0,0 l/m 11,3 km/h (2 Bft) S-SW 202 0 min 0,0 UV-I 0 W/m -1,1 C -4,5 C 19,3 km/h (3 Bft)
17.01.2023 00:23 0,0 C 0,0 C 92 % 986,8 hPa 0,0 l/m 17,7 km/h (3 Bft) SW 225 0 min 0,0 UV-I 0 W/m -1,1 C -8,5 C 25,7 km/h (4 Bft)
17.01.2023 00:24 -0,1 C 0,0 C 92 % 986,8 hPa 0,0 l/m 25,7 km/h (4 Bft) SW 225 0 min 0,0 UV-I 0 W/m -1,2 C -12,1 C 37,0 km/h (5 Bft)
17.01.2023 00:25 -0,1 C 0,0 C 92 % 986,8 hPa 0,0 l/m 17,7 km/h (3 Bft) W-SW 247 0 min 0,0 UV-I 0 W/m -1,2 C -8,6 C 29,0 km/h (5 Bft)
17.01.2023 00:26 -0,1 C 0,0 C 92 % 986,9 hPa 0,0 l/m 16,1 km/h (3 Bft) W-SW 247 0 min 0,0 UV-I 0 W/m -1,2 C -7,7 C 38,6 km/h (5 Bft)
17.01.2023 00:27 -0,1 C 0,0 C 92 % 986,8 hPa 0,0 l/m 14,5 km/h (3 Bft) SW 225 0 min 0,0 UV-I 0 W/m -1,2 C -6,8 C 24,1 km/h (4 Bft)
17.01.2023 00:28 -0,1 C 0,0 C 92 % 986,9 hPa 0,0 l/m 19,3 km/h (3 Bft) W-SW 247 0 min 0,0 UV-I 0 W/m -1,2 C -9,4 C 27,4 km/h (4 Bft)
17.01.2023 00:29 -0,1 C 0,0 C 92 % 986,8 hPa 0,0 l/m 16,1 km/h (3 Bft) SW 225 0 min 0,0 UV-I 0 W/m -1,2 C -7,7 C 30,6 km/h (5 Bft)
17.01.2023 00:30 -0,1 C 0,0 C 92 % 986,8 hPa 0,0 l/m 22,5 km/h (4 Bft) SW 225 0 min 0,0 UV-I 0 W/m -1,2 C -10,9 C 32,2 km/h (5 Bft)
17.01.2023 00:31 -0,1 C 0,0 C 92 % 987,0 hPa 0,0 l/m 16,1 km/h (3 Bft) SW 225 0 min 0,0 UV-I 0 W/m -1,2 C -7,7 C 25,7 km/h (4 Bft)
17.01.2023 00:32 -0,1 C 0,0 C 92 % 986,9 hPa 0,0 l/m 11,3 km/h (2 Bft) SW 225 0 min 0,0 UV-I 0 W/m -1,2 C -4,6 C 19,3 km/h (3 Bft)
17.01.2023 00:33 -0,1 C 0,0 C 92 % 986,9 hPa 0,0 l/m 9,7 km/h (2 Bft) W-SW 247 0 min 0,0 UV-I 0 W/m -1,2 C -3,3 C 19,3 km/h (3 Bft)
17.01.2023 00:34 -0,1 C 0,0 C 92 % 986,9 hPa 0,0 l/m 22,5 km/h (4 Bft) W-SW 247 0 min 0,0 UV-I 0 W/m -1,2 C -10,9 C 33,8 km/h (5 Bft)
17.01.2023 00:35 -0,1 C -0,6 C 92 % 986,9 hPa 0,0 l/m 19,3 km/h (3 Bft) W-SW 247 0 min 0,0 UV-I 0 W/m -1,2 C -9,4 C 25,7 km/h (4 Bft)
17.01.2023 00:36 -0,1 C -0,6 C 92 % 986,9 hPa 0,0 l/m 9,7 km/h (2 Bft) SW 225 0 min 0,0 UV-I 0 W/m -1,2 C -3,3 C 16,1 km/h (3 Bft)
17.01.2023 00:37 -0,1 C -0,6 C 92 % 986,8 hPa 0,0 l/m 17,7 km/h (3 Bft) SW 225 0 min 0,0 UV-I 0 W/m -1,2 C -8,6 C 33,8 km/h (5 Bft)
17.01.2023 00:38 -0,1 C -0,6 C 92 % 986,9 hPa 0,0 l/m 16,1 km/h (3 Bft) SW 225 0 min 0,0 UV-I 0 W/m -1,2 C -7,7 C 35,4 km/h (5 Bft)
17.01.2023 00:39 -0,1 C -0,6 C 92 % 986,9 hPa 0,0 l/m 12,9 km/h (3 Bft) W-SW 247 0 min 0,0 UV-I 0 W/m -1,2 C -5,8 C 19,3 km/h (3 Bft)
17.01.2023 00:40 -0,1 C -0,6 C 92 % 987,0 hPa 0,0 l/m 14,5 km/h (3 Bft) W-SW 247 0 min 0,0 UV-I 0 W/m -1,2 C -6,8 C 20,9 km/h (4 Bft)
17.01.2023 00:41 -0,1 C -0,6 C 92 % 986,9 hPa 0,0 l/m 14,5 km/h (3 Bft) W-SW 247 0 min 0,0 UV-I 0 W/m -1,2 C -6,8 C 25,7 km/h (4 Bft)
17.01.2023 00:42 -0,1 C -0,6 C 92 % 986,9 hPa 0,0 l/m 17,7 km/h (3 Bft) SW 225 0 min 0,0 UV-I 0 W/m -1,2 C -8,6 C 33,8 km/h (5 Bft)
17.01.2023 00:43 -0,1 C -0,6 C 92 % 987,0 hPa 0,0 l/m 14,5 km/h (3 Bft) W-SW 247 0 min 0,0 UV-I 0 W/m -1,2 C -6,8 C 19,3 km/h (3 Bft)
17.01.2023 00:44 -0,1 C -0,6 C 92 % 987,0 hPa 0,0 l/m 11,3 km/h (2 Bft) W-SW 247 0 min 0,0 UV-I 0 W/m -1,2 C -4,6 C 14,5 km/h (3 Bft)
17.01.2023 00:45 -0,1 C -0,6 C 92 % 987,1 hPa 0,0 l/m 16,1 km/h (3 Bft) SW 225 0 min 0,0 UV-I 0 W/m -1,2 C -7,7 C 25,7 km/h (4 Bft)
17.01.2023 00:46 -0,1 C -0,6 C 92 % 986,9 hPa 0,0 l/m 19,3 km/h (3 Bft) SW 225 0 min 0,0 UV-I 0 W/m -1,2 C -9,4 C 29,0 km/h (5 Bft)
17.01.2023 00:47 -0,1 C -0,6 C 92 % 987,1 hPa 0,0 l/m 14,5 km/h (3 Bft) W-SW 247 0 min 0,0 UV-I 0 W/m -1,2 C -6,8 C 32,2 km/h (5 Bft)
17.01.2023 00:48 -0,1 C -0,6 C 92 % 987,2 hPa 0,0 l/m 11,3 km/h (2 Bft) W-SW 247 0 min 0,0 UV-I 0 W/m -1,2 C -4,6 C 20,9 km/h (4 Bft)
17.01.2023 00:49 -0,1 C -0,6 C 92 % 987,2 hPa 0,0 l/m 14,5 km/h (3 Bft) S-SW 202 0 min 0,0 UV-I 0 W/m -1,2 C -6,8 C 19,3 km/h (3 Bft)
17.01.2023 00:50 -0,2 C -0,6 C 92 % 987,1 hPa 0,0 l/m 22,5 km/h (4 Bft) SW 225 0 min 0,0 UV-I 0 W/m -1,3 C -11,0 C 37,0 km/h (5 Bft)
17.01.2023 00:51 -0,2 C -0,6 C 92 % 987,2 hPa 0,0 l/m 14,5 km/h (3 Bft) SW 225 0 min 0,0 UV-I 0 W/m -1,3 C -6,9 C 22,5 km/h (4 Bft)
17.01.2023 00:52 -0,2 C -0,6 C 92 % 987,2 hPa 0,0 l/m 14,5 km/h (3 Bft) SW 225 0 min 0,0 UV-I 0 W/m -1,3 C -6,9 C 22,5 km/h (4 Bft)
17.01.2023 00:53 -0,2 C -0,6 C 92 % 987,3 hPa 0,0 l/m 11,3 km/h (2 Bft) S-SW 202 0 min 0,0 UV-I 0 W/m -1,3 C -4,7 C 17,7 km/h (3 Bft)
17.01.2023 00:54 -0,2 C -0,6 C 92 % 987,2 hPa 0,0 l/m 6,4 km/h (2 Bft) W-SW 247 0 min 0,0 UV-I 0 W/m -1,3 C -0,2 C 16,1 km/h (3 Bft)
17.01.2023 00:55 -0,2 C -0,6 C 92 % 987,3 hPa 0,0 l/m 14,5 km/h (3 Bft) SW 225 0 min 0,0 UV-I 0 W/m -1,3 C -6,9 C 17,7 km/h (3 Bft)
17.01.2023 00:56 -0,2 C -0,6 C 92 % 987,4 hPa 0,0 l/m 9,7 km/h (2 Bft) SW 225 0 min 0,0 UV-I 0 W/m -1,3 C -3,4 C 14,5 km/h (3 Bft)
17.01.2023 00:57 -0,2 C -0,6 C 92 % 987,3 hPa 0,0 l/m 9,7 km/h (2 Bft) SW 225 0 min 0,0 UV-I 0 W/m -1,3 C -3,4 C 20,9 km/h (4 Bft)
17.01.2023 00:58 -0,2 C -0,6 C 92 % 987,3 hPa 0,0 l/m 14,5 km/h (3 Bft) SW 225 0 min 0,0 UV-I 0 W/m -1,3 C -6,9 C 33,8 km/h (5 Bft)
17.01.2023 00:59 -0,2 C -0,6 C 92 % 987,4 hPa 0,0 l/m 9,7 km/h (2 Bft) SW 225 0 min 0,0 UV-I 0 W/m -1,3 C -3,4 C 14,5 km/h (3 Bft)
17.01.2023 01:00 -0,2 C -0,6 C 92 % 987,4 hPa 0,0 l/m 8,0 km/h (2 Bft) SW 225 0 min 0,0 UV-I 0 W/m -1,3 C -1,9 C 12,9 km/h (3 Bft)
17.01.2023 01:01 -0,2 C -0,6 C 92 % 987,4 hPa 0,0 l/m 11,3 km/h (2 Bft) S-SW 202 0 min 0,0 UV-I 0 W/m -1,3 C -4,7 C 16,1 km/h (3 Bft)
17.01.2023 01:02 -0,2 C -0,6 C 92 % 987,4 hPa 0,0 l/m 16,1 km/h (3 Bft) S 180 0 min 0,0 UV-I 0 W/m -1,3 C -7,9 C 25,7 km/h (4 Bft)
17.01.2023 01:03 -0,2 C -0,6 C 92 % 987,4 hPa 0,0 l/m 17,7 km/h (3 Bft) SW 225 0 min 0,0 UV-I 0 W/m -1,3 C -8,7 C 30,6 km/h (5 Bft)
17.01.2023 01:04 -0,2 C -0,6 C 92 % 987,3 hPa 0,0 l/m 12,9 km/h (3 Bft) SW 225 0 min 0,0 UV-I 0 W/m -1,3 C -5,9 C 22,5 km/h (4 Bft)
17.01.2023 01:05 -0,2 C -0,6 C 92 % 987,4 hPa 0,0 l/m 12,9 km/h (3 Bft) SW 225 0 min 0,0 UV-I 0 W/m -1,3 C -5,9 C 19,3 km/h (3 Bft)
17.01.2023 01:06 -0,2 C -0,6 C 92 % 987,4 hPa 0,0 l/m 11,3 km/h (2 Bft) SW 225 0 min 0,0 UV-I 0 W/m -1,3 C -4,7 C 20,9 km/h (4 Bft)
17.01.2023 01:07 -0,2 C -0,6 C 92 % 987,3 hPa 0,0 l/m 14,5 km/h (3 Bft) S-SW 202 0 min 0,0 UV-I 0 W/m -1,3 C -6,9 C 20,9 km/h (4 Bft)
17.01.2023 01:08 -0,2 C -0,6 C 92 % 987,4 hPa 0,0 l/m 16,1 km/h (3 Bft) SW 225 0 min 0,0 UV-I 0 W/m -1,3 C -7,9 C 24,1 km/h (4 Bft)
17.01.2023 01:09 -0,2 C -0,6 C 92 % 987,4 hPa 0,0 l/m 14,5 km/h (3 Bft) SW 225 0 min 0,0 UV-I 0 W/m -1,3 C -6,9 C 17,7 km/h (3 Bft)
17.01.2023 01:10 -0,3 C -0,6 C 92 % 987,4 hPa 0,0 l/m 11,3 km/h (2 Bft) SW 225 0 min 0,0 UV-I 0 W/m -1,4 C -4,8 C 17,7 km/h (3 Bft)
17.01.2023 01:11 -0,2 C -0,6 C 92 % 987,3 hPa 0,0 l/m 12,9 km/h (3 Bft) S-SW 202 0 min 0,0 UV-I 0 W/m -1,3 C -5,9 C 19,3 km/h (3 Bft)
17.01.2023 01:12 -0,3 C -0,6 C 92 % 987,2 hPa 0,0 l/m 11,3 km/h (2 Bft) SW 225 0 min 0,0 UV-I 0 W/m -1,4 C -4,8 C 17,7 km/h (3 Bft)
17.01.2023 01:13 -0,3 C -0,6 C 92 % 987,3 hPa 0,0 l/m 16,1 km/h (3 Bft) SW 225 0 min 0,0 UV-I 0 W/m -1,4 C -8,0 C 24,1 km/h (4 Bft)
17.01.2023 01:14 -0,3 C -0,6 C 92 % 987,4 hPa 0,0 l/m 11,3 km/h (2 Bft) SW 225 0 min 0,0 UV-I 0 W/m -1,4 C -4,8 C 19,3 km/h (3 Bft)
17.01.2023 01:15 -0,3 C -0,6 C 92 % 987,3 hPa 0,0 l/m 11,3 km/h (2 Bft) SW 225 0 min 0,0 UV-I 0 W/m -1,4 C -4,8 C 19,3 km/h (3 Bft)
17.01.2023 01:16 -0,3 C -0,6 C 92 % 987,4 hPa 0,0 l/m 8,0 km/h (2 Bft) SW 225 0 min 0,0 UV-I 0 W/m -1,4 C -2,0 C 16,1 km/h (3 Bft)
17.01.2023 01:17 -0,3 C -0,6 C 92 % 987,4 hPa 0,0 l/m 6,4 km/h (2 Bft) SW 225 0 min 0,0 UV-I 0 W/m -1,4 C -0,3 C 8,0 km/h (2 Bft)
17.01.2023 01:18 -0,3 C -0,6 C 92 % 987,3 hPa 0,0 l/m 9,7 km/h (2 Bft) SW 225 0 min 0,0 UV-I 0 W/m -1,4 C -3,5 C 17,7 km/h (3 Bft)
17.01.2023 01:19 -0,3 C -0,6 C 92 % 987,4 hPa 0,0 l/m 8,0 km/h (2 Bft) SW 225 0 min 0,0 UV-I 0 W/m -1,4 C -2,0 C 12,9 km/h (3 Bft)
17.01.2023 01:20 -0,3 C -0,6 C 92 % 987,4 hPa 0,0 l/m 6,4 km/h (2 Bft) W-SW 247 0 min 0,0 UV-I 0 W/m -1,4 C -0,3 C 12,9 km/h (3 Bft)
17.01.2023 01:21 -0,3 C -0,6 C 92 % 987,4 hPa 0,0 l/m 11,3 km/h (2 Bft) SW 225 0 min 0,0 UV-I 0 W/m -1,4 C -4,8 C 24,1 km/h (4 Bft)
17.01.2023 01:22 -0,3 C -0,6 C 92 % 987,4 hPa 0,0 l/m 8,0 km/h (2 Bft) SW 225 0 min 0,0 UV-I 0 W/m -1,4 C -2,0 C 9,7 km/h (2 Bft)
17.01.2023 01:23 -0,3 C -0,6 C 92 % 987,4 hPa 0,0 l/m 8,0 km/h (2 Bft) S-SW 202 0 min 0,0 UV-I 0 W/m -1,4 C -2,0 C 12,9 km/h (3 Bft)
17.01.2023 01:24 -0,3 C -0,6 C 92 % 987,4 hPa 0,0 l/m 9,7 km/h (2 Bft) W-SW 247 0 min 0,0 UV-I 0 W/m -1,4 C -3,5 C 17,7 km/h (3 Bft)
17.01.2023 01:25 -0,3 C -1,1 C 92 % 987,3 hPa 0,0 l/m 16,1 km/h (3 Bft) S-SW 202 0 min 0,0 UV-I 0 W/m -1,4 C -8,0 C 22,5 km/h (4 Bft)
17.01.2023 01:26 -0,3 C -1,1 C 92 % 987,5 hPa 0,0 l/m 14,5 km/h (3 Bft) SW 225 0 min 0,0 UV-I 0 W/m -1,4 C -7,0 C 22,5 km/h (4 Bft)
17.01.2023 01:27 -0,3 C -1,1 C 92 % 987,4 hPa 0,0 l/m 11,3 km/h (2 Bft) SW 225 0 min 0,0 UV-I 0 W/m -1,4 C -4,8 C 19,3 km/h (3 Bft)
17.01.2023 01:28 -0,3 C -1,1 C 92 % 987,5 hPa 0,0 l/m 14,5 km/h (3 Bft) SW 225 0 min 0,0 UV-I 0 W/m -1,4 C -7,0 C 20,9 km/h (4 Bft)
17.01.2023 01:29 -0,3 C -1,1 C 92 % 987,5 hPa 0,0 l/m 9,7 km/h (2 Bft) S-SW 202 0 min 0,0 UV-I 0 W/m -1,4 C -3,5 C 17,7 km/h (3 Bft)
17.01.2023 01:30 -0,3 C -1,1 C 92 % 987,5 hPa 0,0 l/m 14,5 km/h (3 Bft) S-SW 202 0 min 0,0 UV-I 0 W/m -1,4 C -7,0 C 24,1 km/h (4 Bft)
17.01.2023 01:31 -0,3 C -1,1 C 92 % 987,5 hPa 0,0 l/m 16,1 km/h (3 Bft) SW 225 0 min 0,0 UV-I 0 W/m -1,4 C -8,0 C 24,1 km/h (4 Bft)
17.01.2023 01:32 -0,4 C -1,1 C 92 % 987,6 hPa 0,0 l/m 9,7 km/h (2 Bft) W-SW 247 0 min 0,0 UV-I 0 W/m -1,5 C -3,6 C 17,7 km/h (3 Bft)
17.01.2023 01:33 -0,4 C -1,1 C 92 % 987,6 hPa 0,0 l/m 11,3 km/h (2 Bft) S-SW 202 0 min 0,0 UV-I 0 W/m -1,5 C -4,9 C 20,9 km/h (4 Bft)
17.01.2023 01:34 -0,4 C -1,1 C 92 % 987,7 hPa 0,0 l/m 11,3 km/h (2 Bft) SW 225 0 min 0,0 UV-I 0 W/m -1,5 C -4,9 C 20,9 km/h (4 Bft)
17.01.2023 01:35 -0,4 C -1,1 C 92 % 987,7 hPa 0,0 l/m 16,1 km/h (3 Bft) W-SW 247 0 min 0,0 UV-I 0 W/m -1,5 C -8,1 C 25,7 km/h (4 Bft)
17.01.2023 01:36 -0,4 C -1,1 C 92 % 987,8 hPa 0,0 l/m 12,9 km/h (3 Bft) SW 225 0 min 0,0 UV-I 0 W/m -1,5 C -6,1 C 19,3 km/h (3 Bft)
17.01.2023 01:37 -0,4 C -1,1 C 92 % 987,7 hPa 0,0 l/m 8,0 km/h (2 Bft) SW 225 0 min 0,0 UV-I 0 W/m -1,5 C -2,1 C 12,9 km/h (3 Bft)
17.01.2023 01:38 -0,4 C -1,1 C 92 % 987,8 hPa 0,0 l/m 12,9 km/h (3 Bft) SW 225 0 min 0,0 UV-I 0 W/m -1,5 C -6,1 C 17,7 km/h (3 Bft)
17.01.2023 01:39 -0,4 C -1,1 C 92 % 987,7 hPa 0,0 l/m 14,5 km/h (3 Bft) SW 225 0 min 0,0 UV-I 0 W/m -1,5 C -7,2 C 24,1 km/h (4 Bft)
17.01.2023 01:40 -0,4 C -1,1 C 92 % 987,7 hPa 0,0 l/m 14,5 km/h (3 Bft) SW 225 0 min 0,0 UV-I 0 W/m -1,5 C -7,2 C 19,3 km/h (3 Bft)
17.01.2023 01:41 -0,4 C -1,1 C 92 % 987,7 hPa 0,0 l/m 12,9 km/h (3 Bft) SW 225 0 min 0,0 UV-I 0 W/m -1,5 C -6,1 C 22,5 km/h (4 Bft)
17.01.2023 01:42 -0,4 C -1,1 C 92 % 987,7 hPa 0,0 l/m 12,9 km/h (3 Bft) S-SW 202 0 min 0,0 UV-I 0 W/m -1,5 C -6,1 C 19,3 km/h (3 Bft)
17.01.2023 01:43 -0,4 C -1,1 C 91 % 987,7 hPa 0,0 l/m 11,3 km/h (2 Bft) S-SW 202 0 min 0,0 UV-I 0 W/m -1,7 C -4,9 C 17,7 km/h (3 Bft)
17.01.2023 01:44 -0,4 C -1,1 C 92 % 987,7 hPa 0,0 l/m 12,9 km/h (3 Bft) S-SW 202 0 min 0,0 UV-I 0 W/m -1,5 C -6,1 C 16,1 km/h (3 Bft)
17.01.2023 01:45 -0,4 C -1,1 C 91 % 987,9 hPa 0,0 l/m 12,9 km/h (3 Bft) S-SW 202 0 min 0,0 UV-I 0 W/m -1,7 C -6,1 C 19,3 km/h (3 Bft)
17.01.2023 01:46 -0,4 C -1,1 C 91 % 987,8 hPa 0,0 l/m 14,5 km/h (3 Bft) SW 225 0 min 0,0 UV-I 0 W/m -1,7 C -7,2 C 25,7 km/h (4 Bft)
17.01.2023 01:47 -0,4 C -1,1 C 91 % 987,9 hPa 0,0 l/m 16,1 km/h (3 Bft) W-SW 247 0 min 0,0 UV-I 0 W/m -1,7 C -8,1 C 24,1 km/h (4 Bft)
17.01.2023 01:48 -0,4 C -1,1 C 91 % 987,9 hPa 0,0 l/m 14,5 km/h (3 Bft) SW 225 0 min 0,0 UV-I 0 W/m -1,7 C -7,2 C 20,9 km/h (4 Bft)
17.01.2023 01:49 -0,4 C -1,1 C 91 % 987,9 hPa 0,0 l/m 16,1 km/h (3 Bft) S-SW 202 0 min 0,0 UV-I 0 W/m -1,7 C -8,1 C 24,1 km/h (4 Bft)
17.01.2023 01:50 -0,4 C -1,1 C 91 % 987,9 hPa 0,0 l/m 14,5 km/h (3 Bft) SW 225 0 min 0,0 UV-I 0 W/m -1,7 C -7,2 C 22,5 km/h (4 Bft)
17.01.2023 01:51 -0,4 C -1,1 C 91 % 987,9 hPa 0,0 l/m 14,5 km/h (3 Bft) SW 225 0 min 0,0 UV-I 0 W/m -1,7 C -7,2 C 20,9 km/h (4 Bft)
17.01.2023 01:52 -0,4 C -1,1 C 91 % 988,0 hPa 0,0 l/m 8,0 km/h (2 Bft) S-SW 202 0 min 0,0 UV-I 0 W/m -1,7 C -2,1 C 12,9 km/h (3 Bft)
17.01.2023 01:53 -0,5 C -1,1 C 91 % 988,0 hPa 0,0 l/m 14,5 km/h (3 Bft) S-SW 202 0 min 0,0 UV-I 0 W/m -1,8 C -7,3 C 19,3 km/h (3 Bft)
17.01.2023 01:54 -0,5 C -1,1 C 91 % 988,0 hPa 0,0 l/m 17,7 km/h (3 Bft) S-SW 202 0 min 0,0 UV-I 0 W/m -1,8 C -9,1 C 25,7 km/h (4 Bft)
17.01.2023 01:55 -0,5 C -1,1 C 91 % 988,0 hPa 0,0 l/m 16,1 km/h (3 Bft) SW 225 0 min 0,0 UV-I 0 W/m -1,8 C -8,2 C 24,1 km/h (4 Bft)
17.01.2023 01:56 -0,5 C -1,1 C 91 % 988,1 hPa 0,0 l/m 14,5 km/h (3 Bft) S-SW 202 0 min 0,0 UV-I 0 W/m -1,8 C -7,3 C 25,7 km/h (4 Bft)
17.01.2023 01:57 -0,5 C -1,1 C 91 % 988,1 hPa 0,0 l/m 8,0 km/h (2 Bft) SW 225 0 min 0,0 UV-I 0 W/m -1,8 C -2,2 C 14,5 km/h (3 Bft)
17.01.2023 01:58 -0,5 C -1,1 C 91 % 988,2 hPa 0,0 l/m 9,7 km/h (2 Bft) SW 225 0 min 0,0 UV-I 0 W/m -1,8 C -3,7 C 14,5 km/h (3 Bft)
17.01.2023 01:59 -0,5 C -1,1 C 91 % 988,2 hPa 0,0 l/m 19,3 km/h (3 Bft) S-SW 202 0 min 0,0 UV-I 0 W/m -1,8 C -9,9 C 27,4 km/h (4 Bft)
17.01.2023 02:00 -0,5 C -1,1 C 91 % 988,1 hPa 0,0 l/m 14,5 km/h (3 Bft) SW 225 0 min 0,0 UV-I 0 W/m -1,8 C -7,3 C 24,1 km/h (4 Bft)
17.01.2023 02:01 -0,5 C -1,1 C 91 % 988,2 hPa 0,0 l/m 16,1 km/h (3 Bft) S-SW 202 0 min 0,0 UV-I 0 W/m -1,8 C -8,2 C 24,1 km/h (4 Bft)
17.01.2023 02:02 -0,6 C -1,1 C 91 % 988,2 hPa 0,0 l/m 11,3 km/h (2 Bft) SW 225 0 min 0,0 UV-I 0 W/m -1,9 C -5,2 C 17,7 km/h (3 Bft)
17.01.2023 02:03 -0,6 C -1,1 C 91 % 988,3 hPa 0,0 l/m 9,7 km/h (2 Bft) W-SW 247 0 min 0,0 UV-I 0 W/m -1,9 C -3,9 C 12,9 km/h (3 Bft)
17.01.2023 02:04 -0,6 C -1,1 C 91 % 988,3 hPa 0,0 l/m 9,7 km/h (2 Bft) SW 225 0 min 0,0 UV-I 0 W/m -1,9 C -3,9 C 16,1 km/h (3 Bft)
17.01.2023 02:05 -0,6 C -1,1 C 91 % 988,2 hPa 0,0 l/m 14,5 km/h (3 Bft) S-SW 202 0 min 0,0 UV-I 0 W/m -1,9 C -7,4 C 24,1 km/h (4 Bft)
17.01.2023 02:06 -0,6 C -1,1 C 91 % 988,2 hPa 0,0 l/m 12,9 km/h (3 Bft) SW 225 0 min 0,0 UV-I 0 W/m -1,9 C -6,3 C 22,5 km/h (4 Bft)
17.01.2023 02:07 -0,6 C -1,1 C 91 % 988,3 hPa 0,0 l/m 19,3 km/h (3 Bft) S-SW 202 0 min 0,0 UV-I 0 W/m -1,9 C -10,1 C 29,0 km/h (5 Bft)
17.01.2023 02:08 -0,6 C -1,7 C 90 % 988,3 hPa 0,0 l/m 16,1 km/h (3 Bft) S-SW 202 0 min 0,0 UV-I 0 W/m -2,0 C -8,4 C 25,7 km/h (4 Bft)
17.01.2023 02:09 -0,6 C -1,7 C 90 % 988,4 hPa 0,0 l/m 12,9 km/h (3 Bft) S-SW 202 0 min 0,0 UV-I 0 W/m -2,0 C -6,3 C 17,7 km/h (3 Bft)
17.01.2023 02:10 -0,7 C -1,7 C 90 % 988,4 hPa 0,0 l/m 9,7 km/h (2 Bft) S-SW 202 0 min 0,0 UV-I 0 W/m -2,1 C -4,0 C 14,5 km/h (3 Bft)
17.01.2023 02:11 -0,7 C -1,1 C 90 % 988,5 hPa 0,0 l/m 14,5 km/h (3 Bft) S-SW 202 0 min 0,0 UV-I 0 W/m -2,1 C -7,5 C 19,3 km/h (3 Bft)
17.01.2023 02:12 -0,6 C -1,1 C 90 % 988,4 hPa 0,0 l/m 16,1 km/h (3 Bft) S-SW 202 0 min 0,0 UV-I 0 W/m -2,0 C -8,4 C 24,1 km/h (4 Bft)
17.01.2023 02:13 -0,7 C -1,1 C 90 % 988,5 hPa 0,0 l/m 11,3 km/h (2 Bft) S-SW 202 0 min 0,0 UV-I 0 W/m -2,1 C -5,3 C 19,3 km/h (3 Bft)
17.01.2023 02:14 -0,6 C -1,1 C 90 % 988,5 hPa 0,0 l/m 9,7 km/h (2 Bft) S-SW 202 0 min 0,0 UV-I 0 W/m -2,0 C -3,9 C 14,5 km/h (3 Bft)
17.01.2023 02:15 -0,6 C -1,1 C 90 % 988,4 hPa 0,0 l/m 14,5 km/h (3 Bft) SW 225 0 min 0,0 UV-I 0 W/m -2,0 C -7,4 C 22,5 km/h (4 Bft)
17.01.2023 02:16 -0,6 C -1,1 C 90 % 988,5 hPa 0,0 l/m 11,3 km/h (2 Bft) S-SW 202 0 min 0,0 UV-I 0 W/m -2,0 C -5,2 C 16,1 km/h (3 Bft)
17.01.2023 02:17 -0,6 C -1,1 C 90 % 988,4 hPa 0,0 l/m 12,9 km/h (3 Bft) S-SW 202 0 min 0,0 UV-I 0 W/m -2,0 C -6,3 C 19,3 km/h (3 Bft)
17.01.2023 02:18 -0,6 C -1,1 C 90 % 988,4 hPa 0,0 l/m 9,7 km/h (2 Bft) SW 225 0 min 0,0 UV-I 0 W/m -2,0 C -3,9 C 20,9 km/h (4 Bft)
17.01.2023 02:19 -0,6 C -1,1 C 90 % 988,4 hPa 0,0 l/m 8,0 km/h (2 Bft) W-SW 247 0 min 0,0 UV-I 0 W/m -2,0 C -2,3 C 16,1 km/h (3 Bft)
17.01.2023 02:20 -0,6 C -1,1 C 90 % 988,5 hPa 0,0 l/m 9,7 km/h (2 Bft) SW 225 0 min 0,0 UV-I 0 W/m -2,0 C -3,9 C 16,1 km/h (3 Bft)
17.01.2023 02:21 -0,6 C -1,1 C 90 % 988,4 hPa 0,0 l/m 11,3 km/h (2 Bft) S-SW 202 0 min 0,0 UV-I 0 W/m -2,0 C -5,2 C 19,3 km/h (3 Bft)
17.01.2023 02:22 -0,6 C -1,1 C 90 % 988,4 hPa 0,0 l/m 16,1 km/h (3 Bft) S-SW 202 0 min 0,0 UV-I 0 W/m -2,0 C -8,4 C 22,5 km/h (4 Bft)
17.01.2023 02:23 -0,6 C -1,1 C 90 % 988,5 hPa 0,0 l/m 14,5 km/h (3 Bft) S-SW 202 0 min 0,0 UV-I 0 W/m -2,0 C -7,4 C 17,7 km/h (3 Bft)
17.01.2023 02:24 -0,7 C -1,1 C 90 % 988,4 hPa 0,0 l/m 12,9 km/h (3 Bft) S-SW 202 0 min 0,0 UV-I 0 W/m -2,1 C -6,5 C 16,1 km/h (3 Bft)
17.01.2023 02:25 -0,6 C -1,1 C 90 % 988,5 hPa 0,0 l/m 11,3 km/h (2 Bft) SW 225 0 min 0,0 UV-I 0 W/m -2,0 C -5,2 C 17,7 km/h (3 Bft)
17.01.2023 02:26 -0,6 C -1,1 C 90 % 988,5 hPa 0,0 l/m 14,5 km/h (3 Bft) S-SW 202 0 min 0,0 UV-I 0 W/m -2,0 C -7,4 C 19,3 km/h (3 Bft)
17.01.2023 02:27 -0,6 C -1,1 C 90 % 988,6 hPa 0,0 l/m 11,3 km/h (2 Bft) SW 225 0 min 0,0 UV-I 0 W/m -2,0 C -5,2 C 20,9 km/h (4 Bft)
17.01.2023 02:28 -0,7 C -1,1 C 90 % 988,6 hPa 0,0 l/m 9,7 km/h (2 Bft) S-SW 202 0 min 0,0 UV-I 0 W/m -2,1 C -4,0 C 12,9 km/h (3 Bft)
17.01.2023 02:29 -0,7 C -1,1 C 90 % 988,5 hPa 0,0 l/m 9,7 km/h (2 Bft) SW 225 0 min 0,0 UV-I 0 W/m -2,1 C -4,0 C 14,5 km/h (3 Bft)
17.01.2023 02:30 -0,7 C -1,1 C 90 % 988,6 hPa 0,0 l/m 12,9 km/h (3 Bft) S-SW 202 0 min 0,0 UV-I 0 W/m -2,1 C -6,5 C 17,7 km/h (3 Bft)
17.01.2023 02:31 -0,7 C -1,1 C 90 % 988,6 hPa 0,0 l/m 14,5 km/h (3 Bft) S-SW 202 0 min 0,0 UV-I 0 W/m -2,1 C -7,5 C 19,3 km/h (3 Bft)
17.01.2023 02:32 -0,6 C -1,1 C 90 % 988,5 hPa 0,0 l/m 14,5 km/h (3 Bft) S-SW 202 0 min 0,0 UV-I 0 W/m -2,0 C -7,4 C 22,5 km/h (4 Bft)
17.01.2023 02:33 -0,7 C -1,1 C 90 % 988,6 hPa 0,0 l/m 16,1 km/h (3 Bft) S-SW 202 0 min 0,0 UV-I 0 W/m -2,1 C -8,5 C 24,1 km/h (4 Bft)
17.01.2023 02:34 -0,7 C -1,1 C 90 % 988,6 hPa 0,0 l/m 9,7 km/h (2 Bft) S-SW 202 0 min 0,0 UV-I 0 W/m -2,1 C -4,0 C 14,5 km/h (3 Bft)
17.01.2023 02:35 -0,7 C -1,1 C 90 % 988,7 hPa 0,0 l/m 11,3 km/h (2 Bft) S-SW 202 0 min 0,0 UV-I 0 W/m -2,1 C -5,3 C 16,1 km/h (3 Bft)
17.01.2023 02:36 -0,7 C -1,1 C 90 % 988,5 hPa 0,0 l/m 14,5 km/h (3 Bft) S-SW 202 0 min 0,0 UV-I 0 W/m -2,1 C -7,5 C 27,4 km/h (4 Bft)
17.01.2023 02:37 -0,7 C -1,7 C 90 % 988,6 hPa 0,0 l/m 14,5 km/h (3 Bft) S-SW 202 0 min 0,0 UV-I 0 W/m -2,1 C -7,5 C 20,9 km/h (4 Bft)
17.01.2023 02:38 -0,7 C -1,7 C 90 % 988,6 hPa 0,0 l/m 12,9 km/h (3 Bft) SW 225 0 min 0,0 UV-I 0 W/m -2,1 C -6,5 C 20,9 km/h (4 Bft)
17.01.2023 02:39 -0,7 C -1,7 C 90 % 988,6 hPa 0,0 l/m 9,7 km/h (2 Bft) SW 225 0 min 0,0 UV-I 0 W/m -2,1 C -4,0 C 17,7 km/h (3 Bft)
17.01.2023 02:40 -0,7 C -1,7 C 89 % 988,5 hPa 0,0 l/m 12,9 km/h (3 Bft) S-SW 202 0 min 0,0 UV-I 0 W/m -2,3 C -6,5 C 20,9 km/h (4 Bft)
17.01.2023 02:41 -0,7 C -1,7 C 89 % 988,6 hPa 0,0 l/m 9,7 km/h (2 Bft) S 180 0 min 0,0 UV-I 0 W/m -2,3 C -4,0 C 14,5 km/h (3 Bft)
17.01.2023 02:42 -0,7 C -1,7 C 89 % 988,5 hPa 0,0 l/m 9,7 km/h (2 Bft) S-SW 202 0 min 0,0 UV-I 0 W/m -2,3 C -4,0 C 14,5 km/h (3 Bft)
17.01.2023 02:43 -0,7 C -1,7 C 89 % 988,6 hPa 0,0 l/m 9,7 km/h (2 Bft) SW 225 0 min 0,0 UV-I 0 W/m -2,3 C -4,0 C 17,7 km/h (3 Bft)
17.01.2023 02:44 -0,7 C -1,7 C 89 % 988,6 hPa 0,0 l/m 11,3 km/h (2 Bft) S-SW 202 0 min 0,0 UV-I 0 W/m -2,3 C -5,3 C 17,7 km/h (3 Bft)
17.01.2023 02:45 -0,7 C -1,7 C 89 % 988,6 hPa 0,0 l/m 14,5 km/h (3 Bft) S-SW 202 0 min 0,0 UV-I 0 W/m -2,3 C -7,5 C 22,5 km/h (4 Bft)
17.01.2023 02:46 -0,7 C -1,7 C 89 % 988,6 hPa 0,0 l/m 14,5 km/h (3 Bft) SW 225 0 min 0,0 UV-I 0 W/m -2,3 C -7,5 C 20,9 km/h (4 Bft)
17.01.2023 02:47 -0,7 C -1,1 C 89 % 988,7 hPa 0,0 l/m 16,1 km/h (3 Bft) S-SW 202 0 min 0,0 UV-I 0 W/m -2,3 C -8,5 C 22,5 km/h (4 Bft)
17.01.2023 02:48 -0,7 C -1,1 C 89 % 988,6 hPa 0,0 l/m 12,9 km/h (3 Bft) S-SW 202 0 min 0,0 UV-I 0 W/m -2,3 C -6,5 C 17,7 km/h (3 Bft)
17.01.2023 02:49 -0,7 C -1,1 C 89 % 988,6 hPa 0,0 l/m 14,5 km/h (3 Bft) S-SW 202 0 min 0,0 UV-I 0 W/m -2,3 C -7,5 C 17,7 km/h (3 Bft)
17.01.2023 02:50 -0,7 C -1,1 C 89 % 988,7 hPa 0,0 l/m 11,3 km/h (2 Bft) S-SW 202 0 min 0,0 UV-I 0 W/m -2,3 C -5,3 C 16,1 km/h (3 Bft)
17.01.2023 02:51 -0,7 C -1,1 C 90 % 988,6 hPa 0,0 l/m 14,5 km/h (3 Bft) S-SW 202 0 min 0,0 UV-I 0 W/m -2,1 C -7,5 C 22,5 km/h (4 Bft)
17.01.2023 02:52 -0,7 C -1,1 C 90 % 988,7 hPa 0,0 l/m 14,5 km/h (3 Bft) S-SW 202 0 min 0,0 UV-I 0 W/m -2,1 C -7,5 C 20,9 km/h (4 Bft)
17.01.2023 02:53 -0,7 C -1,7 C 90 % 988,7 hPa 0,0 l/m 12,9 km/h (3 Bft) SW 225 0 min 0,0 UV-I 0 W/m -2,1 C -6,5 C 19,3 km/h (3 Bft)
17.01.2023 02:54 -0,7 C -1,7 C 90 % 988,7 hPa 0,0 l/m 8,0 km/h (2 Bft) W-SW 247 0 min 0,0 UV-I 0 W/m -2,1 C -2,4 C 14,5 km/h (3 Bft)
17.01.2023 02:55 -0,7 C -1,7 C 90 % 988,7 hPa 0,0 l/m 11,3 km/h (2 Bft) S-SW 202 0 min 0,0 UV-I 0 W/m -2,1 C -5,3 C 16,1 km/h (3 Bft)
17.01.2023 02:56 -0,7 C -1,7 C 90 % 988,7 hPa 0,0 l/m 8,0 km/h (2 Bft) SW 225 0 min 0,0 UV-I 0 W/m -2,1 C -2,4 C 14,5 km/h (3 Bft)
17.01.2023 02:57 -0,7 C -1,7 C 90 % 988,7 hPa 0,0 l/m 12,9 km/h (3 Bft) SW 225 0 min 0,0 UV-I 0 W/m -2,1 C -6,5 C 24,1 km/h (4 Bft)
17.01.2023 02:58 -0,8 C -1,7 C 90 % 988,7 hPa 0,0 l/m 11,3 km/h (2 Bft) S-SW 202 0 min 0,0 UV-I 0 W/m -2,2 C -5,4 C 17,7 km/h (3 Bft)
17.01.2023 02:59 -0,8 C -1,7 C 90 % 988,6 hPa 0,0 l/m 8,0 km/h (2 Bft) SW 225 0 min 0,0 UV-I 0 W/m -2,2 C -2,5 C 12,9 km/h (3 Bft)
17.01.2023 03:00 -0,8 C -1,7 C 90 % 988,6 hPa 0,0 l/m 9,7 km/h (2 Bft) SW 225 0 min 0,0 UV-I 0 W/m -2,2 C -4,1 C 14,5 km/h (3 Bft)
17.01.2023 03:01 -0,8 C -1,7 C 90 % 988,7 hPa 0,0 l/m 11,3 km/h (2 Bft) SW 225 0 min 0,0 UV-I 0 W/m -2,2 C -5,4 C 17,7 km/h (3 Bft)
17.01.2023 03:02 -0,8 C -1,7 C 90 % 988,7 hPa 0,0 l/m 14,5 km/h (3 Bft) S-SW 202 0 min 0,0 UV-I 0 W/m -2,2 C -7,6 C 20,9 km/h (4 Bft)
17.01.2023 03:03 -0,8 C -1,7 C 90 % 988,7 hPa 0,0 l/m 8,0 km/h (2 Bft) S-SW 202 0 min 0,0 UV-I 0 W/m -2,2 C -2,5 C 11,3 km/h (2 Bft)
17.01.2023 03:04 -0,8 C -1,7 C 90 % 988,6 hPa 0,0 l/m 14,5 km/h (3 Bft) SW 225 0 min 0,0 UV-I 0 W/m -2,2 C -7,6 C 20,9 km/h (4 Bft)
17.01.2023 03:05 -0,8 C -1,7 C 89 % 988,6 hPa 0,0 l/m 11,3 km/h (2 Bft) W-SW 247 0 min 0,0 UV-I 0 W/m -2,4 C -5,4 C 16,1 km/h (3 Bft)
17.01.2023 03:06 -0,8 C -1,7 C 89 % 988,7 hPa 0,0 l/m 19,3 km/h (3 Bft) SW 225 0 min 0,0 UV-I 0 W/m -2,4 C -10,3 C 29,0 km/h (5 Bft)
17.01.2023 03:07 -0,8 C -1,7 C 89 % 988,6 hPa 0,0 l/m 12,9 km/h (3 Bft) SW 225 0 min 0,0 UV-I 0 W/m -2,4 C -6,6 C 20,9 km/h (4 Bft)
17.01.2023 03:08 -0,9 C -1,7 C 89 % 988,7 hPa 0,0 l/m 12,9 km/h (3 Bft) SW 225 0 min 0,0 UV-I 0 W/m -2,5 C -6,7 C 17,7 km/h (3 Bft)
17.01.2023 03:09 -0,9 C -1,7 C 89 % 988,6 hPa 0,0 l/m 12,9 km/h (3 Bft) SW 225 0 min 0,0 UV-I 0 W/m -2,5 C -6,7 C 20,9 km/h (4 Bft)
17.01.2023 03:10 -0,9 C -1,7 C 89 % 988,7 hPa 0,0 l/m 11,3 km/h (2 Bft) S-SW 202 0 min 0,0 UV-I 0 W/m -2,5 C -5,5 C 19,3 km/h (3 Bft)
17.01.2023 03:11 -0,9 C -1,7 C 89 % 988,7 hPa 0,0 l/m 12,9 km/h (3 Bft) SW 225 0 min 0,0 UV-I 0 W/m -2,5 C -6,7 C 17,7 km/h (3 Bft)
17.01.2023 03:12 -0,9 C -1,7 C 89 % 988,7 hPa 0,0 l/m 17,7 km/h (3 Bft) S-SW 202 0 min 0,0 UV-I 0 W/m -2,5 C -9,6 C 27,4 km/h (4 Bft)
17.01.2023 03:13 -0,9 C -1,7 C 89 % 988,7 hPa 0,0 l/m 11,3 km/h (2 Bft) S-SW 202 0 min 0,0 UV-I 0 W/m -2,5 C -5,5 C 19,3 km/h (3 Bft)
17.01.2023 03:14 -0,9 C -1,7 C 89 % 988,7 hPa 0,0 l/m 14,5 km/h (3 Bft) S-SW 202 0 min 0,0 UV-I 0 W/m -2,5 C -7,8 C 19,3 km/h (3 Bft)
17.01.2023 03:15 -0,9 C -1,7 C 89 % 988,8 hPa 0,0 l/m 14,5 km/h (3 Bft) S-SW 202 0 min 0,0 UV-I 0 W/m -2,5 C -7,8 C 20,9 km/h (4 Bft)
17.01.2023 03:16 -0,9 C -1,7 C 89 % 988,7 hPa 0,0 l/m 8,0 km/h (2 Bft) SW 225 0 min 0,0 UV-I 0 W/m -2,5 C -2,6 C 16,1 km/h (3 Bft)
17.01.2023 03:17 -0,9 C -1,7 C 90 % 988,6 hPa 0,0 l/m 16,1 km/h (3 Bft) S-SW 202 0 min 0,0 UV-I 0 W/m -2,3 C -8,7 C 24,1 km/h (4 Bft)
17.01.2023 03:18 -0,9 C -1,7 C 90 % 988,7 hPa 0,0 l/m 12,9 km/h (3 Bft) SW 225 0 min 0,0 UV-I 0 W/m -2,3 C -6,7 C 27,4 km/h (4 Bft)
17.01.2023 03:19 -0,9 C -1,7 C 90 % 988,8 hPa 0,0 l/m 9,7 km/h (2 Bft) S-SW 202 0 min 0,0 UV-I 0 W/m -2,3 C -4,2 C 12,9 km/h (3 Bft)
17.01.2023 03:20 -0,9 C -1,7 C 90 % 988,7 hPa 0,0 l/m 11,3 km/h (2 Bft) SW 225 0 min 0,0 UV-I 0 W/m -2,3 C -5,5 C 17,7 km/h (3 Bft)
17.01.2023 03:21 -0,9 C -1,7 C 90 % 988,8 hPa 0,0 l/m 8,0 km/h (2 Bft) SW 225 0 min 0,0 UV-I 0 W/m -2,3 C -2,6 C 14,5 km/h (3 Bft)
17.01.2023 03:22 -0,9 C -1,7 C 90 % 988,8 hPa 0,0 l/m 12,9 km/h (3 Bft) S-SW 202 0 min 0,0 UV-I 0 W/m -2,3 C -6,7 C 22,5 km/h (4 Bft)
17.01.2023 03:23 -0,9 C -1,7 C 90 % 988,7 hPa 0,0 l/m 17,7 km/h (3 Bft) S-SW 202 0 min 0,0 UV-I 0 W/m -2,3 C -9,6 C 24,1 km/h (4 Bft)
17.01.2023 03:24 -0,9 C -1,7 C 90 % 988,7 hPa 0,0 l/m 12,9 km/h (3 Bft) SW 225 0 min 0,0 UV-I 0 W/m -2,3 C -6,7 C 16,1 km/h (3 Bft)
17.01.2023 03:25 -0,9 C -1,7 C 90 % 988,7 hPa 0,0 l/m 14,5 km/h (3 Bft) S-SW 202 0 min 0,0 UV-I 0 W/m -2,3 C -7,8 C 19,3 km/h (3 Bft)
17.01.2023 03:26 -0,9 C -1,7 C 90 % 988,8 hPa 0,0 l/m 17,7 km/h (3 Bft) SW 225 0 min 0,0 UV-I 0 W/m -2,3 C -9,6 C 29,0 km/h (5 Bft)
17.01.2023 03:27 -0,9 C -1,7 C 90 % 988,7 hPa 0,0 l/m 14,5 km/h (3 Bft) SW 225 0 min 0,0 UV-I 0 W/m -2,3 C -7,8 C 20,9 km/h (4 Bft)
17.01.2023 03:28 -0,9 C -1,7 C 90 % 988,8 hPa 0,0 l/m 20,9 km/h (4 Bft) W-SW 247 0 min 0,0 UV-I 0 W/m -2,3 C -11,2 C 30,6 km/h (5 Bft)
17.01.2023 03:29 -0,9 C -1,7 C 90 % 988,7 hPa 0,0 l/m 14,5 km/h (3 Bft) W-SW 247 0 min 0,0 UV-I 0 W/m -2,3 C -7,8 C 24,1 km/h (4 Bft)
17.01.2023 03:30 -0,9 C -1,7 C 90 % 988,7 hPa 0,0 l/m 20,9 km/h (4 Bft) W-SW 247 0 min 0,0 UV-I 0 W/m -2,3 C -11,2 C 32,2 km/h (5 Bft)
17.01.2023 03:31 -0,9 C -1,7 C 90 % 988,8 hPa 0,0 l/m 11,3 km/h (2 Bft) SW 225 0 min 0,0 UV-I 0 W/m -2,3 C -5,5 C 16,1 km/h (3 Bft)
17.01.2023 03:32 -0,9 C -1,7 C 90 % 988,8 hPa 0,0 l/m 11,3 km/h (2 Bft) S-SW 202 0 min 0,0 UV-I 0 W/m -2,3 C -5,5 C 16,1 km/h (3 Bft)
17.01.2023 03:33 -0,9 C -1,7 C 90 % 988,8 hPa 0,0 l/m 12,9 km/h (3 Bft) S-SW 202 0 min 0,0 UV-I 0 W/m -2,3 C -6,7 C 17,7 km/h (3 Bft)
17.01.2023 03:34 -0,9 C -1,7 C 90 % 988,8 hPa 0,0 l/m 17,7 km/h (3 Bft) S-SW 202 0 min 0,0 UV-I 0 W/m -2,3 C -9,6 C 22,5 km/h (4 Bft)
17.01.2023 03:35 -0,9 C -1,7 C 90 % 988,8 hPa 0,0 l/m 12,9 km/h (3 Bft) S-SW 202 0 min 0,0 UV-I 0 W/m -2,3 C -6,7 C 19,3 km/h (3 Bft)
17.01.2023 03:36 -0,9 C -1,7 C 91 % 988,9 hPa 0,0 l/m 11,3 km/h (2 Bft) S-SW 202 0 min 0,0 UV-I 0 W/m -2,2 C -5,5 C 14,5 km/h (3 Bft)
17.01.2023 03:37 -0,9 C -1,7 C 90 % 988,8 hPa 0,0 l/m 14,5 km/h (3 Bft) SW 225 0 min 0,0 UV-I 0 W/m -2,3 C -7,8 C 22,5 km/h (4 Bft)
17.01.2023 03:38 -1,0 C -2,2 C 91 % 988,8 hPa 0,0 l/m 12,9 km/h (3 Bft) S-SW 202 0 min 0,0 UV-I 0 W/m -2,3 C -6,8 C 19,3 km/h (3 Bft)
17.01.2023 03:39 -1,1 C -2,2 C 91 % 988,8 hPa 0,0 l/m 11,3 km/h (2 Bft) SW 225 0 min 0,0 UV-I 0 W/m -2,4 C -5,7 C 16,1 km/h (3 Bft)
17.01.2023 03:40 -1,1 C -2,2 C 91 % 988,8 hPa 0,0 l/m 14,5 km/h (3 Bft) S-SW 202 0 min 0,0 UV-I 0 W/m -2,4 C -8,0 C 24,1 km/h (4 Bft)
17.01.2023 03:41 -1,1 C -2,2 C 90 % 988,8 hPa 0,2 l/m 16,1 km/h (3 Bft) SW 225 0 min 0,0 UV-I 0 W/m -2,5 C -9,0 C 22,5 km/h (4 Bft)
17.01.2023 03:42 -1,1 C -2,2 C 91 % 988,8 hPa 0,0 l/m 12,9 km/h (3 Bft) SW 225 0 min 0,0 UV-I 0 W/m -2,4 C -6,9 C 20,9 km/h (4 Bft)
17.01.2023 03:43 -1,1 C -2,2 C 91 % 988,8 hPa 0,0 l/m 12,9 km/h (3 Bft) S-SW 202 0 min 0,0 UV-I 0 W/m -2,4 C -6,9 C 20,9 km/h (4 Bft)
17.01.2023 03:44 -1,1 C -2,2 C 91 % 988,8 hPa 0,0 l/m 12,9 km/h (3 Bft) SW 225 0 min 0,0 UV-I 0 W/m -2,4 C -6,9 C 22,5 km/h (4 Bft)
17.01.2023 03:45 -1,1 C -2,2 C 91 % 988,9 hPa 0,0 l/m 11,3 km/h (2 Bft) S-SW 202 0 min 0,0 UV-I 0 W/m -2,4 C -5,7 C 16,1 km/h (3 Bft)
17.01.2023 03:46 -1,2 C -2,2 C 91 % 988,9 hPa 0,0 l/m 14,5 km/h (3 Bft) S-SW 202 0 min 0,0 UV-I 0 W/m -2,5 C -8,1 C 19,3 km/h (3 Bft)
17.01.2023 03:47 -1,2 C -2,2 C 91 % 988,9 hPa 0,0 l/m 11,3 km/h (2 Bft) SW 225 0 min 0,0 UV-I 0 W/m -2,5 C -5,8 C 17,7 km/h (3 Bft)
17.01.2023 03:48 -1,2 C -2,2 C 91 % 988,9 hPa 0,0 l/m 9,7 km/h (2 Bft) SW 225 0 min 0,0 UV-I 0 W/m -2,5 C -4,5 C 14,5 km/h (3 Bft)
17.01.2023 03:49 -1,2 C -2,2 C 90 % 988,9 hPa 0,0 l/m 11,3 km/h (2 Bft) W-SW 247 0 min 0,0 UV-I 0 W/m -2,6 C -5,8 C 19,3 km/h (3 Bft)
17.01.2023 03:50 -1,2 C -2,2 C 91 % 988,9 hPa 0,0 l/m 11,3 km/h (2 Bft) S-SW 202 0 min 0,0 UV-I 0 W/m -2,5 C -5,8 C 14,5 km/h (3 Bft)
17.01.2023 03:51 -1,2 C -2,2 C 90 % 988,9 hPa 0,0 l/m 12,9 km/h (3 Bft) SW 225 0 min 0,0 UV-I 0 W/m -2,6 C -7,0 C 20,9 km/h (4 Bft)
17.01.2023 03:52 -1,2 C -2,2 C 90 % 988,9 hPa 0,0 l/m 12,9 km/h (3 Bft) SW 225 0 min 0,0 UV-I 0 W/m -2,6 C -7,0 C 19,3 km/h (3 Bft)
17.01.2023 03:53 -1,2 C -2,2 C 90 % 988,9 hPa 0,0 l/m 9,7 km/h (2 Bft) S-SW 202 0 min 0,0 UV-I 0 W/m -2,6 C -4,5 C 11,3 km/h (2 Bft)
17.01.2023 03:54 -1,2 C -2,2 C 90 % 988,9 hPa 0,0 l/m 8,0 km/h (2 Bft) SW 225 0 min 0,0 UV-I 0 W/m -2,6 C -2,9 C 11,3 km/h (2 Bft)
17.01.2023 03:55 -1,2 C -2,2 C 90 % 988,9 hPa 0,0 l/m 9,7 km/h (2 Bft) SW 225 0 min 0,0 UV-I 0 W/m -2,6 C -4,5 C 14,5 km/h (3 Bft)
17.01.2023 03:56 -1,2 C -2,2 C 90 % 989,0 hPa 0,0 l/m 11,3 km/h (2 Bft) SW 225 0 min 0,0 UV-I 0 W/m -2,6 C -5,8 C 16,1 km/h (3 Bft)
17.01.2023 03:57 -1,2 C -2,2 C 90 % 989,0 hPa 0,0 l/m 11,3 km/h (2 Bft) SW 225 0 min 0,0 UV-I 0 W/m -2,6 C -5,8 C 20,9 km/h (4 Bft)
17.01.2023 03:58 -1,2 C -2,2 C 90 % 989,0 hPa 0,0 l/m 8,0 km/h (2 Bft) S-SW 202 0 min 0,0 UV-I 0 W/m -2,6 C -2,9 C 14,5 km/h (3 Bft)
17.01.2023 03:59 -1,2 C -2,2 C 90 % 988,9 hPa 0,0 l/m 11,3 km/h (2 Bft) SW 225 0 min 0,0 UV-I 0 W/m -2,6 C -5,8 C 16,1 km/h (3 Bft)
17.01.2023 04:00 -1,2 C -2,2 C 90 % 988,9 hPa 0,0 l/m 9,7 km/h (2 Bft) SW 225 0 min 0,0 UV-I 0 W/m -2,6 C -4,5 C 16,1 km/h (3 Bft)
17.01.2023 04:01 -1,2 C -2,2 C 91 % 989,0 hPa 0,0 l/m 9,7 km/h (2 Bft) S-SW 202 0 min 0,0 UV-I 0 W/m -2,5 C -4,5 C 14,5 km/h (3 Bft)
17.01.2023 04:02 -1,2 C -2,2 C 90 % 989,0 hPa 0,0 l/m 8,0 km/h (2 Bft) SW 225 0 min 0,0 UV-I 0 W/m -2,6 C -2,9 C 12,9 km/h (3 Bft)
17.01.2023 04:03 -1,2 C -2,2 C 90 % 989,0 hPa 0,0 l/m 9,7 km/h (2 Bft) SW 225 0 min 0,0 UV-I 0 W/m -2,6 C -4,5 C 16,1 km/h (3 Bft)
17.01.2023 04:04 -1,2 C -2,2 C 90 % 989,0 hPa 0,0 l/m 9,7 km/h (2 Bft) SW 225 0 min 0,0 UV-I 0 W/m -2,6 C -4,5 C 14,5 km/h (3 Bft)
17.01.2023 04:05 -1,3 C -2,8 C 90 % 989,0 hPa 0,0 l/m 9,7 km/h (2 Bft) SW 225 0 min 0,0 UV-I 0 W/m -2,7 C -4,6 C 14,5 km/h (3 Bft)
17.01.2023 04:06 -1,3 C -2,8 C 90 % 989,0 hPa 0,0 l/m 9,7 km/h (2 Bft) SW 225 0 min 0,0 UV-I 0 W/m -2,7 C -4,6 C 17,7 km/h (3 Bft)
17.01.2023 04:07 -1,3 C -2,8 C 90 % 989,0 hPa 0,0 l/m 11,3 km/h (2 Bft) SW 225 0 min 0,0 UV-I 0 W/m -2,7 C -6,0 C 17,7 km/h (3 Bft)
17.01.2023 04:08 -1,3 C -2,8 C 90 % 988,9 hPa 0,0 l/m 9,7 km/h (2 Bft) W-SW 247 0 min 0,0 UV-I 0 W/m -2,7 C -4,6 C 16,1 km/h (3 Bft)
17.01.2023 04:09 -1,3 C -2,8 C 90 % 989,0 hPa 0,0 l/m 6,4 km/h (2 Bft) W-SW 247 0 min 0,0 UV-I 0 W/m -2,7 C -1,3 C 11,3 km/h (2 Bft)
17.01.2023 04:10 -1,3 C -2,8 C 90 % 988,9 hPa 0,0 l/m 6,4 km/h (2 Bft) SW 225 0 min 0,0 UV-I 0 W/m -2,7 C -1,3 C 11,3 km/h (2 Bft)
17.01.2023 04:11 -1,4 C -2,8 C 90 % 989,0 hPa 0,0 l/m 9,7 km/h (2 Bft) W-SW 247 0 min 0,0 UV-I 0 W/m -2,8 C -4,7 C 12,9 km/h (3 Bft)
17.01.2023 04:12 -1,4 C -2,8 C 90 % 989,0 hPa 0,0 l/m 6,4 km/h (2 Bft) W-SW 247 0 min 0,0 UV-I 0 W/m -2,8 C -1,4 C 8,0 km/h (2 Bft)
17.01.2023 04:13 -1,4 C -2,8 C 90 % 988,9 hPa 0,0 l/m 11,3 km/h (2 Bft) SW 225 0 min 0,0 UV-I 0 W/m -2,8 C -6,1 C 14,5 km/h (3 Bft)
17.01.2023 04:14 -1,4 C -2,8 C 90 % 989,0 hPa 0,0 l/m 11,3 km/h (2 Bft) SW 225 0 min 0,0 UV-I 0 W/m -2,8 C -6,1 C 19,3 km/h (3 Bft)
17.01.2023 04:15 -1,4 C -2,8 C 90 % 989,1 hPa 0,0 l/m 9,7 km/h (2 Bft) SW 225 0 min 0,0 UV-I 0 W/m -2,8 C -4,7 C 12,9 km/h (3 Bft)
17.01.2023 04:16 -1,4 C -2,8 C 90 % 989,1 hPa 0,0 l/m 9,7 km/h (2 Bft) SW 225 0 min 0,0 UV-I 0 W/m -2,8 C -4,7 C 17,7 km/h (3 Bft)
17.01.2023 04:17 -1,4 C -2,8 C 90 % 989,0 hPa 0,0 l/m 9,7 km/h (2 Bft) SW 225 0 min 0,0 UV-I 0 W/m -2,8 C -4,7 C 16,1 km/h (3 Bft)
17.01.2023 04:18 -1,4 C -2,8 C 90 % 989,0 hPa 0,2 l/m 9,7 km/h (2 Bft) SW 225 0 min 0,0 UV-I 0 W/m -2,8 C -4,7 C 17,7 km/h (3 Bft)
17.01.2023 04:19 -1,5 C -2,8 C 90 % 989,1 hPa 0,0 l/m 6,4 km/h (2 Bft) SW 225 0 min 0,0 UV-I 0 W/m -2,9 C -1,5 C 11,3 km/h (2 Bft)
17.01.2023 04:20 -1,5 C -2,8 C 90 % 989,1 hPa 0,0 l/m 9,7 km/h (2 Bft) S-SW 202 0 min 0,0 UV-I 0 W/m -2,9 C -4,8 C 12,9 km/h (3 Bft)
17.01.2023 04:21 -1,5 C -2,8 C 90 % 989,0 hPa 0,0 l/m 8,0 km/h (2 Bft) SW 225 0 min 0,0 UV-I 0 W/m -2,9 C -3,2 C 11,3 km/h (2 Bft)
17.01.2023 04:22 -1,6 C -2,8 C 90 % 989,0 hPa 0,0 l/m 9,7 km/h (2 Bft) S-SW 202 0 min 0,0 UV-I 0 W/m -3,0 C -5,0 C 14,5 km/h (3 Bft)
17.01.2023 04:23 -1,5 C -2,8 C 90 % 989,0 hPa 0,0 l/m 8,0 km/h (2 Bft) SW 225 0 min 0,0 UV-I 0 W/m -2,9 C -3,2 C 11,3 km/h (2 Bft)
17.01.2023 04:24 -1,6 C -2,8 C 90 % 989,0 hPa 0,0 l/m 9,7 km/h (2 Bft) SW 225 0 min 0,0 UV-I 0 W/m -3,0 C -5,0 C 19,3 km/h (3 Bft)
17.01.2023 04:25 -1,6 C -2,8 C 90 % 989,1 hPa 0,0 l/m 8,0 km/h (2 Bft) SW 225 0 min 0,0 UV-I 0 W/m -3,0 C -3,3 C 11,3 km/h (2 Bft)
17.01.2023 04:26 -1,6 C -2,8 C 90 % 989,0 hPa 0,0 l/m 9,7 km/h (2 Bft) SW 225 0 min 0,0 UV-I 0 W/m -3,0 C -5,0 C 16,1 km/h (3 Bft)
17.01.2023 04:27 -1,6 C -2,8 C 90 % 989,0 hPa 0,0 l/m 9,7 km/h (2 Bft) SW 225 0 min 0,0 UV-I 0 W/m -3,0 C -5,0 C 16,1 km/h (3 Bft)
17.01.2023 04:28 -1,6 C -2,8 C 90 % 989,0 hPa 0,0 l/m 6,4 km/h (2 Bft) SW 225 0 min 0,0 UV-I 0 W/m -3,0 C -1,6 C 11,3 km/h (2 Bft)
17.01.2023 04:29 -1,6 C -2,8 C 90 % 989,0 hPa 0,0 l/m 6,4 km/h (2 Bft) SW 225 0 min 0,0 UV-I 0 W/m -3,0 C -1,6 C 11,3 km/h (2 Bft)
17.01.2023 04:30 -1,6 C -2,8 C 90 % 989,0 hPa 0,0 l/m 6,4 km/h (2 Bft) SW 225 0 min 0,0 UV-I 0 W/m -3,0 C -1,6 C 9,7 km/h (2 Bft)
17.01.2023 04:31 -1,6 C -2,8 C 90 % 989,1 hPa 0,0 l/m 8,0 km/h (2 Bft) S-SW 202 0 min 0,0 UV-I 0 W/m -3,0 C -3,3 C 11,3 km/h (2 Bft)
17.01.2023 04:32 -1,6 C -2,8 C 90 % 989,0 hPa 0,0 l/m 6,4 km/h (2 Bft) SW 225 0 min 0,0 UV-I 0 W/m -3,0 C -1,6 C 9,7 km/h (2 Bft)
17.01.2023 04:33 -1,7 C -2,8 C 90 % 989,1 hPa 0,0 l/m 6,4 km/h (2 Bft) S 180 0 min 0,0 UV-I 0 W/m -3,1 C -1,7 C 8,0 km/h (2 Bft)
17.01.2023 04:34 -1,6 C -2,8 C 90 % 989,0 hPa 0,0 l/m 6,4 km/h (2 Bft) S-SW 202 0 min 0,0 UV-I 0 W/m -3,0 C -1,6 C 9,7 km/h (2 Bft)
17.01.2023 04:35 -1,7 C -2,8 C 90 % 989,0 hPa 0,0 l/m 4,8 km/h (1 Bft) S-SW 202 0 min 0,0 UV-I 0 W/m -3,1 C -1,7 C 6,4 km/h (2 Bft)
17.01.2023 04:36 -1,7 C -2,8 C 90 % 989,2 hPa 0,0 l/m 4,8 km/h (1 Bft) S-SW 202 0 min 0,0 UV-I 0 W/m -3,1 C -1,7 C 6,4 km/h (2 Bft)
17.01.2023 04:37 -1,7 C -2,8 C 90 % 989,2 hPa 0,0 l/m 8,0 km/h (2 Bft) S-SW 202 0 min 0,0 UV-I 0 W/m -3,1 C -3,4 C 14,5 km/h (3 Bft)
17.01.2023 04:38 -1,7 C -2,8 C 90 % 989,1 hPa 0,0 l/m 8,0 km/h (2 Bft) SW 225 0 min 0,0 UV-I 0 W/m -3,1 C -3,4 C 12,9 km/h (3 Bft)
17.01.2023 04:39 -1,7 C -2,8 C 90 % 989,1 hPa 0,0 l/m 4,8 km/h (1 Bft) SW 225 0 min 0,0 UV-I 0 W/m -3,1 C -1,7 C 8,0 km/h (2 Bft)
17.01.2023 04:40 -1,7 C -2,8 C 90 % 989,1 hPa 0,0 l/m 6,4 km/h (2 Bft) SW 225 0 min 0,0 UV-I 0 W/m -3,1 C -1,7 C 8,0 km/h (2 Bft)
17.01.2023 04:41 -1,7 C -2,8 C 90 % 989,1 hPa 0,0 l/m 8,0 km/h (2 Bft) S-SW 202 0 min 0,0 UV-I 0 W/m -3,1 C -3,4 C 9,7 km/h (2 Bft)
17.01.2023 04:42 -1,7 C -2,8 C 90 % 989,1 hPa 0,0 l/m 6,4 km/h (2 Bft) S-SW 202 0 min 0,0 UV-I 0 W/m -3,1 C -1,7 C 9,7 km/h (2 Bft)
17.01.2023 04:43 -1,7 C -2,8 C 90 % 989,1 hPa 0,0 l/m 8,0 km/h (2 Bft) S-SW 202 0 min 0,0 UV-I 0 W/m -3,1 C -3,4 C 9,7 km/h (2 Bft)
17.01.2023 04:44 -1,7 C -2,8 C 90 % 989,1 hPa 0,0 l/m 4,8 km/h (1 Bft) W-SW 247 0 min 0,0 UV-I 0 W/m -3,1 C -1,7 C 8,0 km/h (2 Bft)
17.01.2023 04:45 -1,7 C -2,8 C 90 % 989,2 hPa 0,0 l/m 6,4 km/h (2 Bft) W-SW 247 0 min 0,0 UV-I 0 W/m -3,1 C -1,7 C 11,3 km/h (2 Bft)
17.01.2023 04:46 -1,7 C -2,8 C 90 % 989,1 hPa 0,0 l/m 6,4 km/h (2 Bft) S 180 0 min 0,0 UV-I 0 W/m -3,1 C -1,7 C 12,9 km/h (3 Bft)
17.01.2023 04:47 -1,7 C -2,8 C 90 % 989,1 hPa 0,0 l/m 8,0 km/h (2 Bft) SW 225 0 min 0,0 UV-I 0 W/m -3,1 C -3,4 C 12,9 km/h (3 Bft)
17.01.2023 04:48 -1,7 C -2,8 C 90 % 989,1 hPa 0,0 l/m 9,7 km/h (2 Bft) S-SW 202 0 min 0,0 UV-I 0 W/m -3,1 C -5,1 C 14,5 km/h (3 Bft)
17.01.2023 04:49 -1,7 C -2,2 C 90 % 989,1 hPa 0,0 l/m 8,0 km/h (2 Bft) SW 225 0 min 0,0 UV-I 0 W/m -3,1 C -3,4 C 11,3 km/h (2 Bft)
17.01.2023 04:50 -1,7 C -2,2 C 90 % 989,1 hPa 0,0 l/m 11,3 km/h (2 Bft) SW 225 0 min 0,0 UV-I 0 W/m -3,1 C -6,4 C 16,1 km/h (3 Bft)
17.01.2023 04:51 -1,7 C -2,2 C 90 % 989,1 hPa 0,0 l/m 9,7 km/h (2 Bft) S 180 0 min 0,0 UV-I 0 W/m -3,1 C -5,1 C 12,9 km/h (3 Bft)
17.01.2023 04:52 -1,7 C -2,2 C 91 % 989,2 hPa 0,0 l/m 9,7 km/h (2 Bft) S-SW 202 0 min 0,0 UV-I 0 W/m -3,0 C -5,1 C 12,9 km/h (3 Bft)
17.01.2023 04:53 -1,6 C -2,2 C 91 % 989,2 hPa 0,0 l/m 8,0 km/h (2 Bft) SW 225 0 min 0,0 UV-I 0 W/m -2,9 C -3,3 C 12,9 km/h (3 Bft)
17.01.2023 04:54 -1,6 C -2,2 C 91 % 989,3 hPa 0,0 l/m 9,7 km/h (2 Bft) S-SW 202 0 min 0,0 UV-I 0 W/m -2,9 C -5,0 C 16,1 km/h (3 Bft)
17.01.2023 04:55 -1,6 C -2,2 C 90 % 989,2 hPa 0,0 l/m 8,0 km/h (2 Bft) S-SW 202 0 min 0,0 UV-I 0 W/m -3,0 C -3,3 C 9,7 km/h (2 Bft)
17.01.2023 04:56 -1,6 C -2,2 C 90 % 989,2 hPa 0,0 l/m 8,0 km/h (2 Bft) S-SW 202 0 min 0,0 UV-I 0 W/m -3,0 C -3,3 C 9,7 km/h (2 Bft)
17.01.2023 04:57 -1,6 C -2,2 C 90 % 989,3 hPa 0,0 l/m 6,4 km/h (2 Bft) S-SW 202 0 min 0,0 UV-I 0 W/m -3,0 C -1,6 C 11,3 km/h (2 Bft)
17.01.2023 04:58 -1,6 C -2,2 C 90 % 989,3 hPa 0,0 l/m 8,0 km/h (2 Bft) S-SW 202 0 min 0,0 UV-I 0 W/m -3,0 C -3,3 C 11,3 km/h (2 Bft)
17.01.2023 04:59 -1,6 C -2,2 C 90 % 989,3 hPa 0,0 l/m 6,4 km/h (2 Bft) S 180 0 min 0,0 UV-I 0 W/m -3,0 C -1,6 C 8,0 km/h (2 Bft)
17.01.2023 05:00 -1,5 C -2,2 C 90 % 989,3 hPa 0,0 l/m 6,4 km/h (2 Bft) S-SW 202 0 min 0,0 UV-I 0 W/m -2,9 C -1,5 C 8,0 km/h (2 Bft)
17.01.2023 05:01 -1,6 C -2,2 C 90 % 989,3 hPa 0,0 l/m 6,4 km/h (2 Bft) SW 225 0 min 0,0 UV-I 0 W/m -3,0 C -1,6 C 9,7 km/h (2 Bft)
17.01.2023 05:02 -1,5 C -2,2 C 90 % 989,3 hPa 0,0 l/m 9,7 km/h (2 Bft) S-SW 202 0 min 0,0 UV-I 0 W/m -2,9 C -4,8 C 11,3 km/h (2 Bft)
17.01.2023 05:03 -1,5 C -2,2 C 90 % 989,2 hPa 0,0 l/m 4,8 km/h (1 Bft) S-SW 202 0 min 0,0 UV-I 0 W/m -2,9 C -1,5 C 8,0 km/h (2 Bft)
17.01.2023 05:04 -1,5 C -2,2 C 90 % 989,3 hPa 0,0 l/m 6,4 km/h (2 Bft) S-SW 202 0 min 0,0 UV-I 0 W/m -2,9 C -1,5 C 9,7 km/h (2 Bft)
17.01.2023 05:05 -1,5 C -2,2 C 90 % 989,3 hPa 0,0 l/m 3,2 km/h (1 Bft) S-SW 202 0 min 0,0 UV-I 0 W/m -2,9 C -1,5 C 4,8 km/h (1 Bft)
17.01.2023 05:06 -1,5 C -2,2 C 90 % 989,3 hPa 0,0 l/m 9,7 km/h (2 Bft) S-SW 202 0 min 0,0 UV-I 0 W/m -2,9 C -4,8 C 12,9 km/h (3 Bft)
17.01.2023 05:07 -1,5 C -2,2 C 90 % 989,2 hPa 0,0 l/m 8,0 km/h (2 Bft) S 180 0 min 0,0 UV-I 0 W/m -2,9 C -3,2 C 11,3 km/h (2 Bft)
17.01.2023 05:08 -1,5 C -2,2 C 90 % 989,3 hPa 0,0 l/m 4,8 km/h (1 Bft) S 180 0 min 0,0 UV-I 0 W/m -2,9 C -1,5 C 6,4 km/h (2 Bft)
17.01.2023 05:09 -1,5 C -2,2 C 90 % 989,3 hPa 0,0 l/m 8,0 km/h (2 Bft) S-SW 202 0 min 0,0 UV-I 0 W/m -2,9 C -3,2 C 8,0 km/h (2 Bft)
17.01.2023 05:10 -1,5 C -2,2 C 90 % 989,2 hPa 0,0 l/m 6,4 km/h (2 Bft) S-SW 202 0 min 0,0 UV-I 0 W/m -2,9 C -1,5 C 9,7 km/h (2 Bft)
17.01.2023 05:11 -1,5 C -2,2 C 90 % 989,2 hPa 0,0 l/m 11,3 km/h (2 Bft) S 180 0 min 0,0 UV-I 0 W/m -2,9 C -6,2 C 14,5 km/h (3 Bft)
17.01.2023 05:12 -1,6 C -2,2 C 90 % 989,3 hPa 0,0 l/m 8,0 km/h (2 Bft) S 180 0 min 0,0 UV-I 0 W/m -3,0 C -3,3 C 14,5 km/h (3 Bft)
17.01.2023 05:13 -1,5 C -2,2 C 90 % 989,3 hPa 0,0 l/m 8,0 km/h (2 Bft) S-SW 202 0 min 0,0 UV-I 0 W/m -2,9 C -3,2 C 12,9 km/h (3 Bft)
17.01.2023 05:14 -1,6 C -2,2 C 90 % 989,2 hPa 0,0 l/m 6,4 km/h (2 Bft) S-SW 202 0 min 0,0 UV-I 0 W/m -3,0 C -1,6 C 9,7 km/h (2 Bft)
17.01.2023 05:15 -1,5 C -2,2 C 90 % 989,3 hPa 0,0 l/m 8,0 km/h (2 Bft) S-SW 202 0 min 0,0 UV-I 0 W/m -2,9 C -3,2 C 12,9 km/h (3 Bft)
17.01.2023 05:16 -1,5 C -2,2 C 90 % 989,2 hPa 0,0 l/m 4,8 km/h (1 Bft) S-SW 202 0 min 0,0 UV-I 0 W/m -2,9 C -1,5 C 8,0 km/h (2 Bft)
17.01.2023 05:17 -1,5 C -2,2 C 90 % 989,3 hPa 0,0 l/m 6,4 km/h (2 Bft) S 180 0 min 0,0 UV-I 0 W/m -2,9 C -1,5 C 8,0 km/h (2 Bft)
17.01.2023 05:18 -1,5 C -2,2 C 90 % 989,4 hPa 0,0 l/m 3,2 km/h (1 Bft) S-SW 202 0 min 0,0 UV-I 0 W/m -2,9 C -1,5 C 6,4 km/h (2 Bft)
17.01.2023 05:19 -1,6 C -2,2 C 90 % 989,3 hPa 0,0 l/m 4,8 km/h (1 Bft) S-SW 202 0 min 0,0 UV-I 0 W/m -3,0 C -1,6 C 11,3 km/h (2 Bft)
17.01.2023 05:20 -1,5 C -2,2 C 90 % 989,3 hPa 0,0 l/m 8,0 km/h (2 Bft) S 180 0 min 0,0 UV-I 0 W/m -2,9 C -3,2 C 9,7 km/h (2 Bft)
17.01.2023 05:21 -1,5 C -2,2 C 90 % 989,3 hPa 0,0 l/m 8,0 km/h (2 Bft) S-SW 202 0 min 0,0 UV-I 0 W/m -2,9 C -3,2 C 11,3 km/h (2 Bft)
17.01.2023 05:22 -1,5 C -2,2 C 90 % 989,3 hPa 0,0 l/m 6,4 km/h (2 Bft) S-SW 202 0 min 0,0 UV-I 0 W/m -2,9 C -1,5 C 9,7 km/h (2 Bft)
17.01.2023 05:23 -1,5 C -2,2 C 90 % 989,4 hPa 0,0 l/m 6,4 km/h (2 Bft) S 180 0 min 0,0 UV-I 0 W/m -2,9 C -1,5 C 8,0 km/h (2 Bft)
17.01.2023 05:24 -1,5 C -2,2 C 90 % 989,3 hPa 0,0 l/m 4,8 km/h (1 Bft) S-SW 202 0 min 0,0 UV-I 0 W/m -2,9 C -1,5 C 6,4 km/h (2 Bft)
17.01.2023 05:25 -1,5 C -2,2 C 90 % 989,2 hPa 0,0 l/m 4,8 km/h (1 Bft) S-SW 202 0 min 0,0 UV-I 0 W/m -2,9 C -1,5 C 8,0 km/h (2 Bft)
17.01.2023 05:26 -1,6 C -2,2 C 90 % 989,4 hPa 0,0 l/m 4,8 km/h (1 Bft) S-SW 202 0 min 0,0 UV-I 0 W/m -3,0 C -1,6 C 8,0 km/h (2 Bft)
17.01.2023 05:27 -1,6 C -2,2 C 90 % 989,3 hPa 0,0 l/m 6,4 km/h (2 Bft) S-SW 202 0 min 0,0 UV-I 0 W/m -3,0 C -1,6 C 9,7 km/h (2 Bft)
17.01.2023 05:28 -1,6 C -2,2 C 90 % 989,3 hPa 0,0 l/m 1,6 km/h (1 Bft) S-SW 202 0 min 0,0 UV-I 0 W/m -3,0 C -1,6 C 3,2 km/h (1 Bft)
17.01.2023 05:29 -1,6 C -2,2 C 90 % 989,4 hPa 0,0 l/m 3,2 km/h (1 Bft) S-SW 202 0 min 0,0 UV-I 0 W/m -3,0 C -1,6 C 4,8 km/h (1 Bft)
17.01.2023 05:30 -1,6 C -2,2 C 90 % 989,4 hPa 0,0 l/m 4,8 km/h (1 Bft) S-SW 202 0 min 0,0 UV-I 0 W/m -3,0 C -1,6 C 8,0 km/h (2 Bft)
17.01.2023 05:31 -1,6 C -2,2 C 90 % 989,3 hPa 0,0 l/m 3,2 km/h (1 Bft) S-SW 202 0 min 0,0 UV-I 0 W/m -3,0 C -1,6 C 6,4 km/h (2 Bft)
17.01.2023 05:32 -1,6 C -2,2 C 90 % 989,3 hPa 0,0 l/m 4,8 km/h (1 Bft) S 180 0 min 0,0 UV-I 0 W/m -3,0 C -1,6 C 6,4 km/h (2 Bft)
17.01.2023 05:33 -1,6 C -2,2 C 90 % 989,3 hPa 0,0 l/m 4,8 km/h (1 Bft) S 180 0 min 0,0 UV-I 0 W/m -3,0 C -1,6 C 6,4 km/h (2 Bft)
17.01.2023 05:34 -1,6 C -2,2 C 90 % 989,3 hPa 0,0 l/m 4,8 km/h (1 Bft) S 180 0 min 0,0 UV-I 0 W/m -3,0 C -1,6 C 6,4 km/h (2 Bft)
17.01.2023 05:35 -1,6 C -2,2 C 90 % 989,3 hPa 0,0 l/m 6,4 km/h (2 Bft) S 180 0 min 0,0 UV-I 0 W/m -3,0 C -1,6 C 9,7 km/h (2 Bft)
17.01.2023 05:36 -1,6 C -2,2 C 90 % 989,3 hPa 0,0 l/m 4,8 km/h (1 Bft) S-SO 157 0 min 0,0 UV-I 0 W/m -3,0 C -1,6 C 9,7 km/h (2 Bft)
17.01.2023 05:37 -1,6 C -2,2 C 90 % 989,4 hPa 0,0 l/m 6,4 km/h (2 Bft) S 180 0 min 0,0 UV-I 0 W/m -3,0 C -1,6 C 11,3 km/h (2 Bft)
17.01.2023 05:38 -1,6 C -2,2 C 90 % 989,4 hPa 0,0 l/m 6,4 km/h (2 Bft) S 180 0 min 0,0 UV-I 0 W/m -3,0 C -1,6 C 9,7 km/h (2 Bft)
17.01.2023 05:39 -1,6 C -2,2 C 90 % 989,3 hPa 0,0 l/m 6,4 km/h (2 Bft) S 180 0 min 0,0 UV-I 0 W/m -3,0 C -1,6 C 8,0 km/h (2 Bft)
17.01.2023 05:40 -1,6 C -2,2 C 91 % 989,3 hPa 0,0 l/m 8,0 km/h (2 Bft) S-SW 202 0 min 0,0 UV-I 0 W/m -2,9 C -3,3 C 11,3 km/h (2 Bft)
17.01.2023 05:41 -1,5 C -2,2 C 91 % 989,4 hPa 0,0 l/m 8,0 km/h (2 Bft) S-SW 202 0 min 0,0 UV-I 0 W/m -2,8 C -3,2 C 9,7 km/h (2 Bft)
17.01.2023 05:42 -1,6 C -2,2 C 91 % 989,4 hPa 0,0 l/m 8,0 km/h (2 Bft) S-SW 202 0 min 0,0 UV-I 0 W/m -2,9 C -3,3 C 11,3 km/h (2 Bft)
17.01.2023 05:43 -1,5 C -2,2 C 91 % 989,4 hPa 0,0 l/m 4,8 km/h (1 Bft) S-SW 202 0 min 0,0 UV-I 0 W/m -2,8 C -1,5 C 8,0 km/h (2 Bft)
17.01.2023 05:44 -1,5 C -2,2 C 91 % 989,3 hPa 0,0 l/m 6,4 km/h (2 Bft) S-SW 202 0 min 0,0 UV-I 0 W/m -2,8 C -1,5 C 8,0 km/h (2 Bft)
17.01.2023 05:45 -1,6 C -2,2 C 91 % 989,3 hPa 0,0 l/m 6,4 km/h (2 Bft) S-SW 202 0 min 0,0 UV-I 0 W/m -2,9 C -1,6 C 9,7 km/h (2 Bft)
17.01.2023 05:46 -1,6 C -2,2 C 90 % 989,3 hPa 0,0 l/m 6,4 km/h (2 Bft) S-SW 202 0 min 0,0 UV-I 0 W/m -3,0 C -1,6 C 9,7 km/h (2 Bft)
17.01.2023 05:47 -1,5 C -2,2 C 91 % 989,3 hPa 0,0 l/m 6,4 km/h (2 Bft) S-SW 202 0 min 0,0 UV-I 0 W/m -2,8 C -1,5 C 8,0 km/h (2 Bft)
17.01.2023 05:48 -1,5 C -2,2 C 91 % 989,3 hPa 0,0 l/m 4,8 km/h (1 Bft) S-SW 202 0 min 0,0 UV-I 0 W/m -2,8 C -1,5 C 8,0 km/h (2 Bft)
17.01.2023 05:49 -1,5 C -2,2 C 91 % 989,3 hPa 0,0 l/m 4,8 km/h (1 Bft) S-SW 202 0 min 0,0 UV-I 0 W/m -2,8 C -1,5 C 6,4 km/h (2 Bft)
17.01.2023 05:50 -1,6 C -2,2 C 91 % 989,4 hPa 0,0 l/m 3,2 km/h (1 Bft) S-SW 202 0 min 0,0 UV-I 0 W/m -2,9 C -1,6 C 4,8 km/h (1 Bft)
17.01.2023 05:51 -1,6 C -2,2 C 91 % 989,3 hPa 0,0 l/m 4,8 km/h (1 Bft) S-SW 202 0 min 0,0 UV-I 0 W/m -2,9 C -1,6 C 6,4 km/h (2 Bft)
17.01.2023 05:52 -1,5 C -2,2 C 91 % 989,4 hPa 0,0 l/m 6,4 km/h (2 Bft) W-SW 247 0 min 0,0 UV-I 0 W/m -2,8 C -1,5 C 8,0 km/h (2 Bft)
17.01.2023 05:53 -1,6 C -2,2 C 91 % 989,3 hPa 0,0 l/m 6,4 km/h (2 Bft) W-SW 247 0 min 0,0 UV-I 0 W/m -2,9 C -1,6 C 8,0 km/h (2 Bft)
17.01.2023 05:54 -1,6 C -2,2 C 91 % 989,3 hPa 0,0 l/m 4,8 km/h (1 Bft) SW 225 0 min 0,0 UV-I 0 W/m -2,9 C -1,6 C 6,4 km/h (2 Bft)
17.01.2023 05:55 -1,5 C -2,2 C 91 % 989,3 hPa 0,0 l/m 6,4 km/h (2 Bft) SW 225 0 min 0,0 UV-I 0 W/m -2,8 C -1,5 C 11,3 km/h (2 Bft)
17.01.2023 05:56 -1,6 C -2,2 C 91 % 989,3 hPa 0,0 l/m 9,7 km/h (2 Bft) W-SW 247 0 min 0,0 UV-I 0 W/m -2,9 C -5,0 C 12,9 km/h (3 Bft)
17.01.2023 05:57 -1,6 C -2,2 C 91 % 989,2 hPa 0,0 l/m 6,4 km/h (2 Bft) SW 225 0 min 0,0 UV-I 0 W/m -2,9 C -1,6 C 8,0 km/h (2 Bft)
17.01.2023 05:58 -1,5 C -2,2 C 91 % 989,3 hPa 0,0 l/m 8,0 km/h (2 Bft) SW 225 0 min 0,0 UV-I 0 W/m -2,8 C -3,2 C 14,5 km/h (3 Bft)
17.01.2023 05:59 -1,6 C -2,2 C 91 % 989,2 hPa 0,0 l/m 6,4 km/h (2 Bft) SW 225 0 min 0,0 UV-I 0 W/m -2,9 C -1,6 C 11,3 km/h (2 Bft)
17.01.2023 06:00 -1,6 C -2,2 C 91 % 989,3 hPa 0,0 l/m 6,4 km/h (2 Bft) W-SW 247 0 min 0,0 UV-I 0 W/m -2,9 C -1,6 C 8,0 km/h (2 Bft)
17.01.2023 06:01 -1,6 C -2,2 C 91 % 989,2 hPa 0,0 l/m 9,7 km/h (2 Bft) SW 225 0 min 0,0 UV-I 0 W/m -2,9 C -5,0 C 12,9 km/h (3 Bft)
17.01.2023 06:02 -1,6 C -2,2 C 91 % 989,3 hPa 0,0 l/m 11,3 km/h (2 Bft) W-SW 247 0 min 0,0 UV-I 0 W/m -2,9 C -6,3 C 16,1 km/h (3 Bft)
17.01.2023 06:03 -1,6 C -2,2 C 90 % 989,3 hPa 0,0 l/m 9,7 km/h (2 Bft) SW 225 0 min 0,0 UV-I 0 W/m -3,0 C -5,0 C 12,9 km/h (3 Bft)
17.01.2023 06:04 -1,6 C -2,2 C 90 % 989,3 hPa 0,0 l/m 4,8 km/h (1 Bft) SW 225 0 min 0,0 UV-I 0 W/m -3,0 C -1,6 C 8,0 km/h (2 Bft)
17.01.2023 06:05 -1,6 C -2,2 C 91 % 989,3 hPa 0,0 l/m 8,0 km/h (2 Bft) SW 225 0 min 0,0 UV-I 0 W/m -2,9 C -3,3 C 11,3 km/h (2 Bft)
17.01.2023 06:06 -1,6 C -2,2 C 90 % 989,3 hPa 0,0 l/m 6,4 km/h (2 Bft) W-SW 247 0 min 0,0 UV-I 0 W/m -3,0 C -1,6 C 8,0 km/h (2 Bft)
17.01.2023 06:07 -1,6 C -2,2 C 90 % 989,2 hPa 0,0 l/m 8,0 km/h (2 Bft) SW 225 0 min 0,0 UV-I 0 W/m -3,0 C -3,3 C 12,9 km/h (3 Bft)
17.01.2023 06:08 -1,6 C -2,2 C 90 % 989,2 hPa 0,0 l/m 8,0 km/h (2 Bft) W-SW 247 0 min 0,0 UV-I 0 W/m -3,0 C -3,3 C 12,9 km/h (3 Bft)
17.01.2023 06:09 -1,6 C -2,2 C 90 % 989,2 hPa 0,0 l/m 12,9 km/h (3 Bft) W 270 0 min 0,0 UV-I 0 W/m -3,0 C -7,5 C 14,5 km/h (3 Bft)
17.01.2023 06:10 -1,6 C -2,2 C 91 % 989,2 hPa 0,0 l/m 11,3 km/h (2 Bft) W-SW 247 0 min 0,0 UV-I 0 W/m -2,9 C -6,3 C 20,9 km/h (4 Bft)
17.01.2023 06:11 -1,6 C -2,2 C 91 % 989,2 hPa 0,0 l/m 6,4 km/h (2 Bft) W-SW 247 0 min 0,0 UV-I 0 W/m -2,9 C -1,6 C 9,7 km/h (2 Bft)
17.01.2023 06:12 -1,7 C -2,2 C 91 % 989,3 hPa 0,0 l/m 6,4 km/h (2 Bft) W-SW 247 0 min 0,0 UV-I 0 W/m -3,0 C -1,7 C 8,0 km/h (2 Bft)
17.01.2023 06:13 -1,6 C -2,2 C 91 % 989,4 hPa 0,0 l/m 4,8 km/h (1 Bft) W-SW 247 0 min 0,0 UV-I 0 W/m -2,9 C -1,6 C 6,4 km/h (2 Bft)
17.01.2023 06:14 -1,7 C -2,2 C 90 % 989,2 hPa 0,0 l/m 12,9 km/h (3 Bft) SW 225 0 min 0,0 UV-I 0 W/m -3,1 C -7,6 C 17,7 km/h (3 Bft)
17.01.2023 06:15 -1,7 C -2,2 C 91 % 989,3 hPa 0,0 l/m 9,7 km/h (2 Bft) SW 225 0 min 0,0 UV-I 0 W/m -3,0 C -5,1 C 17,7 km/h (3 Bft)
17.01.2023 06:16 -1,7 C -2,2 C 90 % 989,3 hPa 0,0 l/m 11,3 km/h (2 Bft) S-SW 202 0 min 0,0 UV-I 0 W/m -3,1 C -6,4 C 14,5 km/h (3 Bft)
17.01.2023 06:17 -1,7 C -2,2 C 90 % 989,3 hPa 0,0 l/m 6,4 km/h (2 Bft) SW 225 0 min 0,0 UV-I 0 W/m -3,1 C -1,7 C 9,7 km/h (2 Bft)
17.01.2023 06:18 -1,6 C -2,8 C 90 % 989,4 hPa 0,0 l/m 11,3 km/h (2 Bft) W-SW 247 0 min 0,0 UV-I 0 W/m -3,0 C -6,3 C 19,3 km/h (3 Bft)
17.01.2023 06:19 -1,7 C -2,8 C 90 % 989,3 hPa 0,0 l/m 11,3 km/h (2 Bft) SW 225 0 min 0,0 UV-I 0 W/m -3,1 C -6,4 C 16,1 km/h (3 Bft)
17.01.2023 06:20 -1,7 C -2,8 C 90 % 989,2 hPa 0,0 l/m 8,0 km/h (2 Bft) SW 225 0 min 0,0 UV-I 0 W/m -3,1 C -3,4 C 11,3 km/h (2 Bft)
17.01.2023 06:21 -1,7 C -2,8 C 90 % 989,3 hPa 0,0 l/m 9,7 km/h (2 Bft) SW 225 0 min 0,0 UV-I 0 W/m -3,1 C -5,1 C 11,3 km/h (2 Bft)
17.01.2023 06:22 -1,7 C -2,8 C 90 % 989,3 hPa 0,0 l/m 6,4 km/h (2 Bft) SW 225 0 min 0,0 UV-I 0 W/m -3,1 C -1,7 C 9,7 km/h (2 Bft)
17.01.2023 06:23 -1,7 C -2,8 C 90 % 989,3 hPa 0,0 l/m 8,0 km/h (2 Bft) SW 225 0 min 0,0 UV-I 0 W/m -3,1 C -3,4 C 12,9 km/h (3 Bft)
17.01.2023 06:24 -1,7 C -2,8 C 90 % 989,3 hPa 0,0 l/m 8,0 km/h (2 Bft) W-SW 247 0 min 0,0 UV-I 0 W/m -3,1 C -3,4 C 17,7 km/h (3 Bft)
17.01.2023 06:25 -1,7 C -2,8 C 90 % 989,3 hPa 0,0 l/m 6,4 km/h (2 Bft) SW 225 0 min 0,0 UV-I 0 W/m -3,1 C -1,7 C 11,3 km/h (2 Bft)
17.01.2023 06:26 -1,8 C -2,8 C 90 % 989,3 hPa 0,0 l/m 6,4 km/h (2 Bft) SW 225 0 min 0,0 UV-I 0 W/m -3,2 C -1,8 C 11,3 km/h (2 Bft)
17.01.2023 06:27 -1,8 C -2,8 C 90 % 989,3 hPa 0,0 l/m 6,4 km/h (2 Bft) SW 225 0 min 0,0 UV-I 0 W/m -3,2 C -1,8 C 9,7 km/h (2 Bft)
17.01.2023 06:28 -1,8 C -3,3 C 90 % 989,3 hPa 0,0 l/m 6,4 km/h (2 Bft) W-SW 247 0 min 0,0 UV-I 0 W/m -3,2 C -1,8 C 9,7 km/h (2 Bft)
17.01.2023 06:29 -1,8 C -3,3 C 90 % 989,3 hPa 0,0 l/m 4,8 km/h (1 Bft) W-SW 247 0 min 0,0 UV-I 0 W/m -3,2 C -1,8 C 8,0 km/h (2 Bft)
17.01.2023 06:30 -1,8 C -3,3 C 90 % 989,3 hPa 0,0 l/m 8,0 km/h (2 Bft) W-SW 247 0 min 0,0 UV-I 0 W/m -3,2 C -3,5 C 11,3 km/h (2 Bft)
17.01.2023 06:31 -1,8 C -3,3 C 90 % 989,3 hPa 0,0 l/m 4,8 km/h (1 Bft) W-SW 247 0 min 0,0 UV-I 0 W/m -3,2 C -1,8 C 6,4 km/h (2 Bft)
17.01.2023 06:32 -1,8 C -3,3 C 90 % 989,3 hPa 0,0 l/m 6,4 km/h (2 Bft) W-SW 247 0 min 0,0 UV-I 0 W/m -3,2 C -1,8 C 11,3 km/h (2 Bft)
17.01.2023 06:33 -1,8 C -3,3 C 90 % 989,2 hPa 0,0 l/m 4,8 km/h (1 Bft) W-SW 247 0 min 0,0 UV-I 0 W/m -3,2 C -1,8 C 6,4 km/h (2 Bft)
17.01.2023 06:34 -1,8 C -3,3 C 90 % 989,3 hPa 0,0 l/m 4,8 km/h (1 Bft) W 270 0 min 0,0 UV-I 0 W/m -3,2 C -1,8 C 9,7 km/h (2 Bft)
17.01.2023 06:35 -1,9 C -3,3 C 90 % 989,3 hPa 0,0 l/m 4,8 km/h (1 Bft) W 270 0 min 0,0 UV-I 0 W/m -3,3 C -1,9 C 9,7 km/h (2 Bft)
17.01.2023 06:36 -1,9 C -3,9 C 90 % 989,3 hPa 0,0 l/m 6,4 km/h (2 Bft) W-SW 247 0 min 0,0 UV-I 0 W/m -3,3 C -1,9 C 9,7 km/h (2 Bft)
17.01.2023 06:37 -1,9 C -3,9 C 90 % 989,3 hPa 0,0 l/m 4,8 km/h (1 Bft) W-SW 247 0 min 0,0 UV-I 0 W/m -3,3 C -1,9 C 8,0 km/h (2 Bft)
17.01.2023 06:38 -1,9 C -3,9 C 90 % 989,3 hPa 0,0 l/m 4,8 km/h (1 Bft) W-SW 247 0 min 0,0 UV-I 0 W/m -3,3 C -1,9 C 6,4 km/h (2 Bft)
17.01.2023 06:39 -1,9 C -3,9 C 90 % 989,4 hPa 0,0 l/m 4,8 km/h (1 Bft) W-SW 247 0 min 0,0 UV-I 0 W/m -3,3 C -1,9 C 9,7 km/h (2 Bft)
17.01.2023 06:40 -2,0 C -3,9 C 90 % 989,4 hPa 0,0 l/m 4,8 km/h (1 Bft) W-SW 247 0 min 0,0 UV-I 0 W/m -3,4 C -2,0 C 6,4 km/h (2 Bft)
17.01.2023 06:41 -2,0 C -3,9 C 90 % 989,4 hPa 0,0 l/m 4,8 km/h (1 Bft) SW 225 0 min 0,0 UV-I 0 W/m -3,4 C -2,0 C 8,0 km/h (2 Bft)
17.01.2023 06:42 -2,1 C -3,9 C 90 % 989,4 hPa 0,0 l/m 4,8 km/h (1 Bft) SW 225 0 min 0,0 UV-I 0 W/m -3,5 C -2,1 C 6,4 km/h (2 Bft)
17.01.2023 06:43 -2,1 C -3,9 C 90 % 989,4 hPa 0,0 l/m 3,2 km/h (1 Bft) SW 225 0 min 0,0 UV-I 0 W/m -3,5 C -2,1 C 4,8 km/h (1 Bft)
17.01.2023 06:44 -2,1 C -3,9 C 90 % 989,3 hPa 0,0 l/m 3,2 km/h (1 Bft) SW 225 0 min 0,0 UV-I 0 W/m -3,5 C -2,1 C 6,4 km/h (2 Bft)
17.01.2023 06:45 -2,1 C -3,9 C 90 % 989,4 hPa 0,0 l/m 4,8 km/h (1 Bft) SW 225 0 min 0,0 UV-I 0 W/m -3,5 C -2,1 C 6,4 km/h (2 Bft)
17.01.2023 06:46 -2,1 C -3,9 C 90 % 989,4 hPa 0,0 l/m 3,2 km/h (1 Bft) SW 225 0 min 0,0 UV-I 0 W/m -3,5 C -2,1 C 4,8 km/h (1 Bft)
17.01.2023 06:47 -2,2 C -4,4 C 90 % 989,4 hPa 0,0 l/m 3,2 km/h (1 Bft) SW 225 0 min 0,0 UV-I 0 W/m -3,6 C -2,2 C 6,4 km/h (2 Bft)
17.01.2023 06:48 -2,2 C -4,4 C 90 % 989,5 hPa 0,0 l/m 3,2 km/h (1 Bft) SW 225 0 min 0,0 UV-I 0 W/m -3,6 C -2,2 C 4,8 km/h (1 Bft)
17.01.2023 06:49 -2,2 C -4,4 C 90 % 989,6 hPa 0,0 l/m 3,2 km/h (1 Bft) SW 225 0 min 0,0 UV-I 0 W/m -3,6 C -2,2 C 4,8 km/h (1 Bft)
17.01.2023 06:50 -2,2 C -4,4 C 90 % 989,5 hPa 0,0 l/m 3,2 km/h (1 Bft) SW 225 0 min 0,0 UV-I 0 W/m -3,6 C -2,2 C 4,8 km/h (1 Bft)
17.01.2023 06:51 -2,2 C -4,4 C 90 % 989,5 hPa 0,0 l/m 3,2 km/h (1 Bft) SW 225 0 min 0,0 UV-I 0 W/m -3,6 C -2,2 C 4,8 km/h (1 Bft)
17.01.2023 06:52 -2,2 C -4,4 C 90 % 989,4 hPa 0,0 l/m 3,2 km/h (1 Bft) SW 225 0 min 0,0 UV-I 0 W/m -3,6 C -2,2 C 3,2 km/h (1 Bft)
17.01.2023 06:53 -2,2 C -4,4 C 90 % 989,4 hPa 0,0 l/m 3,2 km/h (1 Bft) SW 225 0 min 0,0 UV-I 0 W/m -3,6 C -2,2 C 6,4 km/h (2 Bft)
17.01.2023 06:54 -2,3 C -4,4 C 90 % 989,3 hPa 0,0 l/m 3,2 km/h (1 Bft) SW 225 0 min 0,0 UV-I 0 W/m -3,7 C -2,3 C 4,8 km/h (1 Bft)
17.01.2023 06:55 -2,3 C -5,0 C 90 % 989,4 hPa 0,0 l/m 3,2 km/h (1 Bft) SW 225 0 min 0,0 UV-I 0 W/m -3,7 C -2,3 C 4,8 km/h (1 Bft)
17.01.2023 06:56 -2,3 C -5,0 C 90 % 989,3 hPa 0,0 l/m 3,2 km/h (1 Bft) SW 225 0 min 0,0 UV-I 0 W/m -3,7 C -2,3 C 4,8 km/h (1 Bft)
17.01.2023 06:57 -2,3 C -5,0 C 90 % 989,4 hPa 0,0 l/m 1,6 km/h (1 Bft) SW 225 0 min 0,0 UV-I 0 W/m -3,7 C -2,3 C 1,6 km/h (1 Bft)
17.01.2023 06:58 -2,3 C -5,0 C 90 % 989,4 hPa 0,0 l/m 1,6 km/h (1 Bft) SW 225 0 min 0,0 UV-I 0 W/m -3,7 C -2,3 C 3,2 km/h (1 Bft)
17.01.2023 06:59 -2,4 C -5,0 C 90 % 989,4 hPa 0,0 l/m 1,6 km/h (1 Bft) SW 225 0 min 0,0 UV-I 0 W/m -3,8 C -2,4 C 3,2 km/h (1 Bft)
17.01.2023 07:00 -2,4 C -5,0 C 90 % 989,4 hPa 0,0 l/m 0,0 km/h (0 Bft) SW 225 0 min 0,0 UV-I 0 W/m -3,8 C -2,4 C 1,6 km/h (1 Bft)
17.01.2023 07:01 -2,4 C -5,6 C 90 % 989,4 hPa 0,0 l/m 1,6 km/h (1 Bft) SW 225 0 min 0,0 UV-I 0 W/m -3,8 C -2,4 C 1,6 km/h (1 Bft)
17.01.2023 07:02 -2,4 C -5,6 C 89 % 989,3 hPa 0,0 l/m 0,0 km/h (0 Bft) SW 225 0 min 0,0 UV-I 0 W/m -4,0 C -2,4 C 1,6 km/h (1 Bft)
17.01.2023 07:03 -2,4 C -5,6 C 89 % 989,3 hPa 0,0 l/m 0,0 km/h (0 Bft) N 0 0 min 0,0 UV-I 0 W/m -4,0 C -2,4 C 0,0 km/h (0 Bft)
17.01.2023 07:04 -2,4 C -6,1 C 89 % 989,4 hPa 0,0 l/m 0,0 km/h (0 Bft) N 0 0 min 0,0 UV-I 0 W/m -4,0 C -2,4 C 0,0 km/h (0 Bft)
17.01.2023 07:05 -2,5 C -5,6 C 89 % 989,4 hPa 0,0 l/m 0,0 km/h (0 Bft) N 0 0 min 0,0 UV-I 0 W/m -4,1 C -2,5 C 0,0 km/h (0 Bft)
17.01.2023 07:06 -2,5 C -6,1 C 90 % 989,4 hPa 0,0 l/m 0,0 km/h (0 Bft) N 0 0 min 0,0 UV-I 0 W/m -3,9 C -2,5 C 0,0 km/h (0 Bft)
17.01.2023 07:07 -2,5 C -6,1 C 90 % 989,4 hPa 0,0 l/m 0,0 km/h (0 Bft) N 0 0 min 0,0 UV-I 0 W/m -3,9 C -2,5 C 0,0 km/h (0 Bft)
17.01.2023 07:08 -2,6 C -5,6 C 89 % 989,4 hPa 0,0 l/m 0,0 km/h (0 Bft) N 0 0 min 0,0 UV-I 0 W/m -4,2 C -2,6 C 0,0 km/h (0 Bft)
17.01.2023 07:09 -2,6 C -5,6 C 90 % 989,5 hPa 0,0 l/m 0,0 km/h (0 Bft) N 0 0 min 0,0 UV-I 0 W/m -4,0 C -2,6 C 0,0 km/h (0 Bft)
17.01.2023 07:10 -2,6 C -5,6 C 89 % 989,4 hPa 0,0 l/m 0,0 km/h (0 Bft) N 0 0 min 0,0 UV-I 0 W/m -4,2 C -2,6 C 0,0 km/h (0 Bft)
17.01.2023 07:11 -2,6 C -5,6 C 89 % 989,4 hPa 0,0 l/m 0,0 km/h (0 Bft) N 0 0 min 0,0 UV-I 0 W/m -4,2 C -2,6 C 0,0 km/h (0 Bft)
17.01.2023 07:12 -2,7 C -5,6 C 89 % 989,3 hPa 0,0 l/m 0,0 km/h (0 Bft) N 0 0 min 0,0 UV-I 0 W/m -4,3 C -2,7 C 0,0 km/h (0 Bft)
17.01.2023 07:13 -2,7 C -5,6 C 89 % 989,4 hPa 0,0 l/m 0,0 km/h (0 Bft) N 0 0 min 0,0 UV-I 0 W/m -4,3 C -2,7 C 0,0 km/h (0 Bft)
17.01.2023 07:14 -2,7 C -5,6 C 89 % 989,4 hPa 0,0 l/m 0,0 km/h (0 Bft) SW 225 0 min 0,0 UV-I 0 W/m -4,3 C -2,7 C 1,6 km/h (1 Bft)
17.01.2023 07:15 -2,7 C -5,6 C 89 % 989,3 hPa 0,0 l/m 1,6 km/h (1 Bft) SW 225 0 min 0,0 UV-I 0 W/m -4,3 C -2,7 C 3,2 km/h (1 Bft)
17.01.2023 07:16 -2,8 C -5,6 C 89 % 989,4 hPa 0,0 l/m 1,6 km/h (1 Bft) SW 225 0 min 0,0 UV-I 0 W/m -4,4 C -2,8 C 1,6 km/h (1 Bft)
17.01.2023 07:17 -2,8 C -5,6 C 89 % 989,4 hPa 0,0 l/m 1,6 km/h (1 Bft) SW 225 0 min 0,0 UV-I 0 W/m -4,4 C -2,8 C 1,6 km/h (1 Bft)
17.01.2023 07:18 -2,8 C -5,6 C 89 % 989,4 hPa 0,0 l/m 1,6 km/h (1 Bft) SW 225 0 min 0,0 UV-I 0 W/m -4,4 C -2,8 C 3,2 km/h (1 Bft)
17.01.2023 07:19 -2,8 C -5,6 C 89 % 989,4 hPa 0,0 l/m 1,6 km/h (1 Bft) SW 225 0 min 0,0 UV-I 0 W/m -4,4 C -2,8 C 1,6 km/h (1 Bft)
17.01.2023 07:20 -2,8 C -5,6 C 89 % 989,3 hPa 0,0 l/m 0,0 km/h (0 Bft) SW 225 0 min 0,0 UV-I 0 W/m -4,4 C -2,8 C 1,6 km/h (1 Bft)
17.01.2023 07:21 -2,9 C -5,6 C 89 % 989,4 hPa 0,0 l/m 0,0 km/h (0 Bft) N 0 0 min 0,0 UV-I 0 W/m -4,5 C -2,9 C 0,0 km/h (0 Bft)
17.01.2023 07:22 -2,9 C -5,6 C 89 % 989,3 hPa 0,0 l/m 0,0 km/h (0 Bft) N 0 0 min 0,0 UV-I 0 W/m -4,5 C -2,9 C 0,0 km/h (0 Bft)
17.01.2023 07:23 -2,9 C -6,1 C 89 % 989,4 hPa 0,0 l/m 0,0 km/h (0 Bft) N 0 0 min 0,0 UV-I 0 W/m -4,5 C -2,9 C 0,0 km/h (0 Bft)
17.01.2023 07:24 -2,9 C -6,1 C 89 % 989,4 hPa 0,0 l/m 0,0 km/h (0 Bft) N 0 0 min 0,0 UV-I 0 W/m -4,5 C -2,9 C 0,0 km/h (0 Bft)
17.01.2023 07:25 -3,0 C -6,1 C 89 % 989,4 hPa 0,0 l/m 0,0 km/h (0 Bft) N 0 0 min 0,0 UV-I 0 W/m -4,6 C -3,0 C 0,0 km/h (0 Bft)
17.01.2023 07:26 -3,0 C -6,1 C 89 % 989,5 hPa 0,0 l/m 0,0 km/h (0 Bft) N 0 0 min 0,0 UV-I 0 W/m -4,6 C -3,0 C 0,0 km/h (0 Bft)
17.01.2023 07:27 -3,0 C -6,1 C 89 % 989,5 hPa 0,0 l/m 0,0 km/h (0 Bft) SW 225 0 min 0,0 UV-I 0 W/m -4,6 C -3,0 C 3,2 km/h (1 Bft)
17.01.2023 07:28 -3,1 C -6,1 C 89 % 989,5 hPa 0,0 l/m 1,6 km/h (1 Bft) SW 225 0 min 0,0 UV-I 0 W/m -4,6 C -3,1 C 3,2 km/h (1 Bft)
17.01.2023 07:29 -3,1 C -6,1 C 89 % 989,5 hPa 0,0 l/m 3,2 km/h (1 Bft) SW 225 0 min 0,0 UV-I 0 W/m -4,6 C -3,1 C 4,8 km/h (1 Bft)
17.01.2023 07:30 -3,2 C -6,1 C 89 % 989,5 hPa 0,0 l/m 1,6 km/h (1 Bft) SW 225 0 min 0,0 UV-I 0 W/m -4,7 C -3,2 C 3,2 km/h (1 Bft)
17.01.2023 07:31 -3,2 C -6,1 C 89 % 989,5 hPa 0,0 l/m 1,6 km/h (1 Bft) SW 225 0 min 0,0 UV-I 0 W/m -4,7 C -3,2 C 3,2 km/h (1 Bft)
17.01.2023 07:32 -3,2 C -6,1 C 89 % 989,4 hPa 0,0 l/m 1,6 km/h (1 Bft) SW 225 0 min 0,0 UV-I 0 W/m -4,7 C -3,2 C 3,2 km/h (1 Bft)
17.01.2023 07:33 -3,2 C -6,1 C 89 % 989,5 hPa 0,0 l/m 1,6 km/h (1 Bft) SW 225 0 min 0,0 UV-I 0 W/m -4,7 C -3,2 C 1,6 km/h (1 Bft)
17.01.2023 07:34 -3,3 C -6,1 C 89 % 989,5 hPa 0,0 l/m 1,6 km/h (1 Bft) SW 225 0 min 0,0 UV-I 0 W/m -4,8 C -3,3 C 3,2 km/h (1 Bft)
17.01.2023 07:35 -3,3 C -6,1 C 89 % 989,6 hPa 0,0 l/m 1,6 km/h (1 Bft) SW 225 0 min 0,0 UV-I 0 W/m -4,8 C -3,3 C 1,6 km/h (1 Bft)
17.01.2023 07:36 -3,3 C -6,1 C 89 % 989,6 hPa 0,0 l/m 1,6 km/h (1 Bft) SW 225 0 min 0,0 UV-I 0 W/m -4,8 C -3,3 C 1,6 km/h (1 Bft)
17.01.2023 07:37 -3,3 C -6,1 C 89 % 989,7 hPa 0,0 l/m 1,6 km/h (1 Bft) SW 225 0 min 0,0 UV-I 0 W/m -4,8 C -3,3 C 1,6 km/h (1 Bft)
17.01.2023 07:45 -3,6 C -6,7 C 89 % 989,6 hPa 0,0 l/m 0,0 km/h (0 Bft) SW 226 0 min 0,0 UV-I 0 W/m -5,1 C -3,6 C 0,0 km/h (0 Bft)
17.01.2023 07:48 -3,6 C -6,7 C 89 % 989,7 hPa 0,0 l/m 0,0 km/h (0 Bft) SW 226 0 min 0,0 UV-I 0 W/m -5,1 C -3,6 C 0,0 km/h (0 Bft)
17.01.2023 07:51 -3,7 C -6,7 C 89 % 989,7 hPa 0,0 l/m 0,0 km/h (0 Bft) SW 226 0 min 0,0 UV-I 0 W/m -5,2 C -3,7 C 0,0 km/h (0 Bft)
17.01.2023 07:54 -3,7 C -6,7 C 89 % 989,7 hPa 0,0 l/m 0,1 km/h (0 Bft) SW 226 0 min 0,0 UV-I 0 W/m -5,2 C -3,7 C 1,6 km/h (1 Bft)
17.01.2023 07:57 -3,8 C -6,7 C 89 % 989,7 hPa 0,0 l/m 2,9 km/h (1 Bft) SW 226 0 min 0,0 UV-I 0 W/m -5,3 C -3,8 C 4,8 km/h (1 Bft)
17.01.2023 08:00 -3,9 C -7,2 C 89 % 989,7 hPa 0,0 l/m 2,7 km/h (1 Bft) SW 226 0 min 0,0 UV-I 0 W/m -5,4 C -3,9 C 4,8 km/h (1 Bft)
17.01.2023 08:03 -4,1 C -7,2 C 89 % 989,6 hPa 0,0 l/m 1,6 km/h (1 Bft) SW 226 0 min 0,0 UV-I 0 W/m -5,6 C -4,1 C 4,8 km/h (1 Bft)
17.01.2023 08:04 -4,1 C -7,2 C 89 % 989,7 hPa 0,0 l/m 1,6 km/h (1 Bft) SW 225 0 min 0,0 UV-I 0 W/m -5,6 C -4,1 C 3,2 km/h (1 Bft)
17.01.2023 08:05 -4,1 C -7,2 C 89 % 989,7 hPa 0,0 l/m 1,6 km/h (1 Bft) SW 225 0 min 0,0 UV-I 0 W/m -5,6 C -4,1 C 3,2 km/h (1 Bft)
17.01.2023 08:06 -4,2 C -6,7 C 89 % 989,7 hPa 0,0 l/m 2,6 km/h (1 Bft) SW 226 0 min 0,0 UV-I 0 W/m -5,7 C -4,2 C 3,2 km/h (1 Bft)
17.01.2023 08:09 -4,2 C -6,7 C 89 % 989,7 hPa 0,0 l/m 2,2 km/h (1 Bft) SW 226 0 min 0,0 UV-I 0 W/m -5,7 C -4,2 C 3,2 km/h (1 Bft)
17.01.2023 08:12 -4,3 C -6,7 C 89 % 989,7 hPa 0,0 l/m 3,7 km/h (1 Bft) SW 217 0 min 0,0 UV-I 0 W/m -5,8 C -4,3 C 4,8 km/h (1 Bft)
17.01.2023 08:15 -4,3 C -6,1 C 89 % 989,8 hPa 0,0 l/m 4,9 km/h (1 Bft) S 188 0 min 0,0 UV-I 0 W/m -5,8 C -4,3 C 8,0 km/h (2 Bft)
17.01.2023 08:18 -4,4 C -6,1 C 89 % 989,7 hPa 0,0 l/m 5,7 km/h (1 Bft) S 187 0 min 0,0 UV-I 0 W/m -5,9 C -4,4 C 8,0 km/h (2 Bft)
17.01.2023 08:21 -4,4 C -6,1 C 89 % 989,7 hPa 0,0 l/m 4,2 km/h (1 Bft) S 187 0 min 0,0 UV-I 0 W/m -5,9 C -4,4 C 6,4 km/h (2 Bft)
17.01.2023 08:24 -4,3 C -5,6 C 90 % 989,7 hPa 0,0 l/m 3,3 km/h (1 Bft) S 187 0 min 0,0 UV-I 0 W/m -5,7 C -4,3 C 4,8 km/h (1 Bft)
17.01.2023 08:27 -4,3 C -5,6 C 90 % 989,7 hPa 0,0 l/m 2,9 km/h (1 Bft) S 187 0 min 0,0 UV-I 0 W/m -5,7 C -4,3 C 4,8 km/h (1 Bft)
17.01.2023 08:30 -4,2 C -5,6 C 90 % 989,6 hPa 0,0 l/m 2,3 km/h (1 Bft) S 187 0 min 0,0 UV-I 0 W/m -5,6 C -4,2 C 3,2 km/h (1 Bft)
17.01.2023 08:33 -4,2 C -6,7 C 90 % 989,7 hPa 0,0 l/m 0,4 km/h (0 Bft) S 187 0 min 0,0 UV-I 0 W/m -5,6 C -4,2 C 3,2 km/h (1 Bft)
17.01.2023 08:36 -4,2 C -7,2 C 90 % 989,6 hPa 0,0 l/m 0,0 km/h (0 Bft) S 187 0 min 0,0 UV-I 3 W/m -5,6 C -4,2 C 0,0 km/h (0 Bft)
17.01.2023 08:39 -4,3 C -7,2 C 90 % 989,4 hPa 0,0 l/m 0,4 km/h (0 Bft) S 187 0 min 0,0 UV-I 5 W/m -5,7 C -4,3 C 3,2 km/h (1 Bft)
17.01.2023 08:42 -4,3 C -7,2 C 90 % 989,4 hPa 0,0 l/m 1,9 km/h (1 Bft) S 187 0 min 0,0 UV-I 5 W/m -5,7 C -4,3 C 3,2 km/h (1 Bft)
17.01.2023 08:45 -4,3 C -7,2 C 90 % 989,4 hPa 0,0 l/m 1,0 km/h (0 Bft) S 187 0 min 0,0 UV-I 5 W/m -5,7 C -4,3 C 1,6 km/h (1 Bft)
17.01.2023 08:48 -4,4 C -7,8 C 90 % 989,4 hPa 0,0 l/m 2,3 km/h (1 Bft) S 187 0 min 0,0 UV-I 6 W/m -5,8 C -4,4 C 3,2 km/h (1 Bft)
17.01.2023 08:51 -4,6 C -7,8 C 90 % 989,4 hPa 0,0 l/m 1,6 km/h (1 Bft) S 187 0 min 0,0 UV-I 7 W/m -6,0 C -4,6 C 3,2 km/h (1 Bft)
17.01.2023 08:54 -4,6 C -7,8 C 89 % 989,4 hPa 0,0 l/m 0,0 km/h (0 Bft) S 187 0 min 0,0 UV-I 7 W/m -6,1 C -4,6 C 0,0 km/h (0 Bft)
17.01.2023 08:57 -4,7 C -7,8 C 89 % 989,5 hPa 0,0 l/m 0,0 km/h (0 Bft) S 187 0 min 0,0 UV-I 10 W/m -6,2 C -4,7 C 0,0 km/h (0 Bft)
17.01.2023 09:00 -4,7 C -7,2 C 89 % 989,5 hPa 0,0 l/m 0,8 km/h (0 Bft) S 187 0 min 0,0 UV-I 28 W/m -6,2 C -4,7 C 3,2 km/h (1 Bft)
17.01.2023 09:03 -4,8 C -5,6 C 90 % 989,5 hPa 0,0 l/m 1,7 km/h (1 Bft) S 187 0 min 0,0 UV-I 27 W/m -6,2 C -4,8 C 3,2 km/h (1 Bft)
17.01.2023 09:06 -4,8 C -5,0 C 89 % 989,5 hPa 0,0 l/m 2,8 km/h (1 Bft) S 187 0 min 0,0 UV-I 24 W/m -6,3 C -4,8 C 3,2 km/h (1 Bft)
17.01.2023 09:09 -4,8 C -4,4 C 90 % 989,6 hPa 0,0 l/m 0,3 km/h (0 Bft) S 187 0 min 0,0 UV-I 16 W/m -6,2 C -4,8 C 3,2 km/h (1 Bft)
17.01.2023 09:12 -4,7 C -5,0 C 90 % 989,5 hPa 0,0 l/m 0,0 km/h (0 Bft) S 187 0 min 0,0 UV-I 34 W/m -6,1 C -4,7 C 0,0 km/h (0 Bft)
17.01.2023 09:15 -4,6 C -5,6 C 90 % 989,6 hPa 0,0 l/m 0,0 km/h (0 Bft) S 187 0 min 0,0 UV-I 47 W/m -6,0 C -4,6 C 0,0 km/h (0 Bft)
17.01.2023 09:18 -4,6 C -5,0 C 90 % 989,6 hPa 0,0 l/m 0,0 km/h (0 Bft) S 187 0 min 0,0 UV-I 28 W/m -6,0 C -4,6 C 0,0 km/h (0 Bft)
17.01.2023 09:21 -4,4 C -5,0 C 90 % 989,6 hPa 0,0 l/m 0,0 km/h (0 Bft) S 187 0 min 0,0 UV-I 42 W/m -5,8 C -4,4 C 0,0 km/h (0 Bft)
17.01.2023 09:24 -4,3 C -3,9 C 90 % 989,7 hPa 0,0 l/m 0,0 km/h (0 Bft) S 187 0 min 0,0 UV-I 59 W/m -5,7 C -4,3 C 0,0 km/h (0 Bft)
17.01.2023 09:27 -4,3 C -2,2 C 90 % 989,7 hPa 0,0 l/m 0,0 km/h (0 Bft) S 187 0 min 0,0 UV-I 66 W/m -5,7 C -4,3 C 0,0 km/h (0 Bft)
17.01.2023 09:30 -4,1 C -2,2 C 90 % 989,6 hPa 0,0 l/m 0,0 km/h (0 Bft) S 187 0 min 0,0 UV-I 73 W/m -5,5 C -4,1 C 0,0 km/h (0 Bft)
17.01.2023 09:33 -3,9 C -2,2 C 90 % 989,6 hPa 0,0 l/m 0,1 km/h (0 Bft) S 187 0 min 0,0 UV-I 79 W/m -5,3 C -3,9 C 1,6 km/h (1 Bft)
17.01.2023 09:36 -3,8 C -2,2 C 90 % 989,7 hPa 0,0 l/m 0,7 km/h (0 Bft) S 187 0 min 0,0 UV-I 92 W/m -5,2 C -3,8 C 3,2 km/h (1 Bft)
17.01.2023 09:39 -3,6 C -1,7 C 91 % 989,8 hPa 0,0 l/m 0,7 km/h (0 Bft) S 187 0 min 0,0 UV-I 101 W/m -4,8 C -3,6 C 1,6 km/h (1 Bft)
17.01.2023 09:42 -3,4 C -0,6 C 90 % 989,8 hPa 0,0 l/m 0,0 km/h (0 Bft) S 187 0 min 0,0 UV-I 114 W/m -4,8 C -3,4 C 0,0 km/h (0 Bft)
17.01.2023 09:45 -3,2 C -1,1 C 91 % 989,9 hPa 0,0 l/m 0,0 km/h (0 Bft) S 187 0 min 0,0 UV-I 107 W/m -4,5 C -3,2 C 0,0 km/h (0 Bft)
17.01.2023 09:48 -3,1 C -2,2 C 91 % 989,8 hPa 0,0 l/m 0,0 km/h (0 Bft) S 187 0 min 0,0 UV-I 155 W/m -4,4 C -3,1 C 0,0 km/h (0 Bft)
17.01.2023 09:51 -2,9 C -1,7 C 91 % 989,6 hPa 0,0 l/m 0,0 km/h (0 Bft) S 187 0 min 0,0 UV-I 174 W/m -4,2 C -2,9 C 0,0 km/h (0 Bft)
17.01.2023 09:54 -2,8 C -0,6 C 91 % 989,6 hPa 0,0 l/m 0,0 km/h (0 Bft) S 187 0 min 0,0 UV-I 211 W/m -4,1 C -2,8 C 0,0 km/h (0 Bft)
17.01.2023 09:57 -2,6 C 0,0 C 91 % 989,6 hPa 0,0 l/m 0,0 km/h (0 Bft) S 187 0 min 0,0 UV-I 239 W/m -3,9 C -2,6 C 0,0 km/h (0 Bft)
17.01.2023 10:00 -3,2 C 0,0 C 89 % 989,6 hPa 0,0 l/m 0,0 km/h (0 Bft) S 187 0 min 0,0 UV-I 236 W/m -4,7 C -3,2 C 0,0 km/h (0 Bft)
17.01.2023 10:03 -3,9 C 0,0 C 89 % 989,6 hPa 0,0 l/m 0,7 km/h (0 Bft) S 187 3 min 0,0 UV-I 254 W/m -5,4 C -3,9 C 3,2 km/h (1 Bft)
17.01.2023 10:06 -4,3 C -0,6 C 89 % 989,5 hPa 0,0 l/m 0,0 km/h (0 Bft) S 187 0 min 0,0 UV-I 195 W/m -5,8 C -4,3 C 1,6 km/h (1 Bft)
17.01.2023 10:09 -3,8 C 0,0 C 91 % 989,7 hPa 0,0 l/m 0,0 km/h (0 Bft) S 187 0 min 0,2 UV-I 200 W/m -5,0 C -3,8 C 0,0 km/h (0 Bft)
17.01.2023 10:12 -3,7 C 0,6 C 90 % 989,6 hPa 0,0 l/m 0,0 km/h (0 Bft) S 187 0 min 0,5 UV-I 206 W/m -5,1 C -3,7 C 0,0 km/h (0 Bft)
17.01.2023 10:15 -3,9 C 0,6 C 90 % 989,7 hPa 0,0 l/m 0,0 km/h (0 Bft) S 187 0 min 0,5 UV-I 211 W/m -5,3 C -3,9 C 0,0 km/h (0 Bft)
17.01.2023 10:18 -3,7 C 0,6 C 90 % 989,7 hPa 0,0 l/m 0,1 km/h (0 Bft) S 187 0 min 0,5 UV-I 215 W/m -5,1 C -3,7 C 1,6 km/h (1 Bft)
17.01.2023 10:21 -3,3 C 1,7 C 91 % 989,7 hPa 0,0 l/m 0,0 km/h (0 Bft) S 187 3 min 0,5 UV-I 303 W/m -4,6 C -3,3 C 0,0 km/h (0 Bft)
17.01.2023 10:24 -3,0 C 2,8 C 91 % 989,8 hPa 0,0 l/m 0,0 km/h (0 Bft) S 187 0 min 0,6 UV-I 225 W/m -4,3 C -3,0 C 0,0 km/h (0 Bft)
17.01.2023 10:27 -3,1 C 3,9 C 90 % 989,8 hPa 0,0 l/m 0,0 km/h (0 Bft) S 187 0 min 0,6 UV-I 230 W/m -4,5 C -3,1 C 0,0 km/h (0 Bft)
17.01.2023 10:30 -3,0 C 5,0 C 90 % 989,8 hPa 0,0 l/m 0,0 km/h (0 Bft) S 187 3 min 0,6 UV-I 311 W/m -4,4 C -3,0 C 0,0 km/h (0 Bft)
17.01.2023 10:33 -2,9 C 6,7 C 90 % 989,8 hPa 0,0 l/m 0,0 km/h (0 Bft) S 187 3 min 0,6 UV-I 320 W/m -4,3 C -2,9 C 0,0 km/h (0 Bft)
17.01.2023 10:36 -2,9 C 6,1 C 90 % 989,9 hPa 0,0 l/m 0,0 km/h (0 Bft) S 187 3 min 0,6 UV-I 325 W/m -4,3 C -2,9 C 0,0 km/h (0 Bft)
17.01.2023 10:39 -3,0 C 5,6 C 90 % 989,8 hPa 0,0 l/m 0,1 km/h (0 Bft) S 187 3 min 0,7 UV-I 322 W/m -4,4 C -3,0 C 1,6 km/h (1 Bft)
17.01.2023 10:42 -3,1 C 4,4 C 90 % 989,9 hPa 0,0 l/m 0,3 km/h (0 Bft) S 187 3 min 0,7 UV-I 322 W/m -4,5 C -3,1 C 1,6 km/h (1 Bft)
17.01.2023 10:45 -3,1 C 6,7 C 90 % 989,7 hPa 0,0 l/m 0,0 km/h (0 Bft) S 187 3 min 0,7 UV-I 315 W/m -4,5 C -3,1 C 0,0 km/h (0 Bft)
17.01.2023 10:48 -2,9 C 7,2 C 90 % 989,9 hPa 0,0 l/m 0,0 km/h (0 Bft) S 187 3 min 0,7 UV-I 303 W/m -4,3 C -2,9 C 0,0 km/h (0 Bft)
17.01.2023 10:51 -2,8 C 5,6 C 90 % 989,8 hPa 0,0 l/m 0,0 km/h (0 Bft) S 187 3 min 0,7 UV-I 267 W/m -4,2 C -2,8 C 1,6 km/h (1 Bft)
17.01.2023 10:54 -2,7 C 5,6 C 90 % 989,9 hPa 0,0 l/m 0,0 km/h (0 Bft) S 187 3 min 0,7 UV-I 280 W/m -4,1 C -2,7 C 0,0 km/h (0 Bft)
17.01.2023 10:57 -2,6 C 7,2 C 90 % 990,0 hPa 0,0 l/m 0,0 km/h (0 Bft) S 187 3 min 0,8 UV-I 282 W/m -4,0 C -2,6 C 0,0 km/h (0 Bft)
17.01.2023 11:00 -2,4 C 7,8 C 90 % 989,9 hPa 0,0 l/m 0,4 km/h (0 Bft) S 187 3 min 0,8 UV-I 270 W/m -3,8 C -2,4 C 3,2 km/h (1 Bft)
17.01.2023 11:03 -2,3 C 7,8 C 90 % 989,9 hPa 0,0 l/m 0,5 km/h (0 Bft) S 187 0 min 0,8 UV-I 238 W/m -3,7 C -2,3 C 3,2 km/h (1 Bft)
17.01.2023 11:06 -2,2 C 6,7 C 90 % 989,9 hPa 0,0 l/m 2,1 km/h (1 Bft) SO 130 0 min 0,8 UV-I 236 W/m -3,6 C -2,2 C 6,4 km/h (2 Bft)
17.01.2023 11:09 -1,9 C 6,1 C 90 % 989,8 hPa 0,0 l/m 6,2 km/h (2 Bft) SO 126 0 min 0,8 UV-I 242 W/m -3,3 C -1,9 C 11,3 km/h (2 Bft)
17.01.2023 11:12 -1,9 C 5,0 C 89 % 989,8 hPa 0,0 l/m 6,3 km/h (2 Bft) S-SO 152 3 min 0,8 UV-I 260 W/m -3,5 C -1,9 C 11,3 km/h (2 Bft)
17.01.2023 11:15 -1,9 C 5,0 C 89 % 989,9 hPa 0,0 l/m 6,5 km/h (2 Bft) SO 140 3 min 0,8 UV-I 267 W/m -3,5 C -2,0 C 12,9 km/h (3 Bft)
17.01.2023 11:18 -1,9 C 4,4 C 89 % 989,9 hPa 0,0 l/m 6,6 km/h (2 Bft) SO 142 3 min 0,8 UV-I 269 W/m -3,5 C -2,1 C 12,9 km/h (3 Bft)
17.01.2023 11:21 -1,9 C 4,4 C 89 % 989,9 hPa 0,0 l/m 4,5 km/h (1 Bft) S-SW 193 3 min 0,8 UV-I 260 W/m -3,5 C -1,9 C 8,0 km/h (2 Bft)
17.01.2023 11:24 -1,8 C 4,4 C 89 % 989,9 hPa 0,0 l/m 4,7 km/h (1 Bft) SO 138 3 min 0,8 UV-I 256 W/m -3,4 C -1,8 C 8,0 km/h (2 Bft)
17.01.2023 11:27 -1,9 C 5,0 C 89 % 989,8 hPa 0,0 l/m 4,0 km/h (1 Bft) SO 138 3 min 0,8 UV-I 255 W/m -3,5 C -1,9 C 8,0 km/h (2 Bft)
17.01.2023 11:30 -1,7 C 6,1 C 90 % 989,8 hPa 0,0 l/m 4,3 km/h (1 Bft) O-SO 123 3 min 0,9 UV-I 269 W/m -3,1 C -1,7 C 6,4 km/h (2 Bft)
17.01.2023 11:33 -1,7 C 6,1 C 89 % 989,8 hPa 0,0 l/m 4,0 km/h (1 Bft) O-SO 122 3 min 0,9 UV-I 276 W/m -3,3 C -1,7 C 6,4 km/h (2 Bft)
17.01.2023 11:36 -1,7 C 6,7 C 89 % 989,8 hPa 0,0 l/m 3,7 km/h (1 Bft) SO 140 3 min 0,9 UV-I 286 W/m -3,3 C -1,7 C 8,0 km/h (2 Bft)
17.01.2023 11:39 -1,7 C 6,7 C 89 % 989,8 hPa 0,0 l/m 4,2 km/h (1 Bft) SO 140 3 min 0,9 UV-I 292 W/m -3,3 C -1,7 C 6,4 km/h (2 Bft)
17.01.2023 11:42 -1,7 C 6,7 C 89 % 989,7 hPa 0,0 l/m 3,6 km/h (1 Bft) SO 140 3 min 0,9 UV-I 295 W/m -3,3 C -1,7 C 4,8 km/h (1 Bft)
17.01.2023 11:45 -1,7 C 5,6 C 89 % 989,7 hPa 0,0 l/m 3,6 km/h (1 Bft) SO 139 3 min 0,9 UV-I 292 W/m -3,3 C -1,7 C 6,4 km/h (2 Bft)
17.01.2023 11:48 -1,6 C 6,1 C 89 % 989,8 hPa 0,0 l/m 1,9 km/h (1 Bft) SO 141 3 min 0,9 UV-I 285 W/m -3,2 C -1,6 C 4,8 km/h (1 Bft)
17.01.2023 11:51 -1,6 C 5,6 C 89 % 989,7 hPa 0,0 l/m 4,3 km/h (1 Bft) S-SO 150 3 min 1,0 UV-I 287 W/m -3,2 C -1,6 C 6,4 km/h (2 Bft)
17.01.2023 11:54 -1,6 C 6,7 C 89 % 989,7 hPa 0,0 l/m 3,6 km/h (1 Bft) S-SO 148 3 min 1,0 UV-I 296 W/m -3,2 C -1,6 C 6,4 km/h (2 Bft)
17.01.2023 11:57 -1,6 C 7,2 C 89 % 989,8 hPa 0,0 l/m 3,2 km/h (1 Bft) S-SO 148 3 min 1,0 UV-I 301 W/m -3,2 C -1,6 C 6,4 km/h (2 Bft)
17.01.2023 12:00 -1,6 C 7,8 C 89 % 989,7 hPa 0,0 l/m 2,5 km/h (1 Bft) S-SO 154 3 min 1,0 UV-I 297 W/m -3,2 C -1,6 C 6,4 km/h (2 Bft)
17.01.2023 12:03 -1,6 C 6,7 C 89 % 989,8 hPa 0,0 l/m 3,0 km/h (1 Bft) S-SO 154 3 min 1,0 UV-I 301 W/m -3,2 C -1,6 C 4,8 km/h (1 Bft)
17.01.2023 12:06 -1,6 C 6,7 C 89 % 989,8 hPa 0,0 l/m 2,4 km/h (1 Bft) S-SO 154 3 min 1,0 UV-I 304 W/m -3,2 C -1,6 C 4,8 km/h (1 Bft)
17.01.2023 12:09 -1,5 C 6,7 C 89 % 989,7 hPa 0,0 l/m 3,5 km/h (1 Bft) S-SO 154 3 min 1,1 UV-I 313 W/m -3,1 C -1,5 C 4,8 km/h (1 Bft)
17.01.2023 12:12 -1,4 C 8,3 C 88 % 989,7 hPa 0,0 l/m 2,6 km/h (1 Bft) S-SO 154 3 min 1,1 UV-I 324 W/m -3,1 C -1,4 C 4,8 km/h (1 Bft)
17.01.2023 12:15 -1,4 C 8,3 C 88 % 989,7 hPa 0,0 l/m 2,3 km/h (1 Bft) S-SO 154 3 min 1,1 UV-I 311 W/m -3,1 C -1,4 C 4,8 km/h (1 Bft)
17.01.2023 12:18 -1,3 C 9,4 C 88 % 989,7 hPa 0,0 l/m 2,0 km/h (1 Bft) S-SO 154 3 min 1,1 UV-I 334 W/m -3,0 C -1,3 C 4,8 km/h (1 Bft)
17.01.2023 12:21 -1,2 C 8,9 C 88 % 989,6 hPa 0,0 l/m 2,2 km/h (1 Bft) S-SO 153 3 min 1,1 UV-I 338 W/m -2,9 C -1,2 C 4,8 km/h (1 Bft)
17.01.2023 12:24 -1,1 C 11,7 C 87 % 989,7 hPa 0,0 l/m 0,2 km/h (0 Bft) S-SO 153 3 min 1,1 UV-I 342 W/m -3,0 C -1,1 C 1,6 km/h (1 Bft)
17.01.2023 12:27 -1,1 C 11,7 C 88 % 989,6 hPa 0,0 l/m 1,3 km/h (1 Bft) S-SO 153 3 min 1,1 UV-I 347 W/m -2,8 C -1,1 C 4,8 km/h (1 Bft)
17.01.2023 12:30 -1,2 C 12,2 C 87 % 989,5 hPa 0,0 l/m 1,0 km/h (0 Bft) S-SO 153 3 min 1,2 UV-I 351 W/m -3,1 C -1,2 C 3,2 km/h (1 Bft)
17.01.2023 12:33 -1,2 C 12,2 C 87 % 989,5 hPa 0,0 l/m 0,3 km/h (0 Bft) S-SO 153 3 min 1,2 UV-I 351 W/m -3,1 C -1,2 C 1,6 km/h (1 Bft)
17.01.2023 12:36 -0,7 C 13,3 C 87 % 989,4 hPa 0,0 l/m 0,0 km/h (0 Bft) S-SO 153 3 min 1,2 UV-I 350 W/m -2,6 C -0,7 C 1,6 km/h (1 Bft)
17.01.2023 12:39 -0,7 C 13,9 C 85 % 989,4 hPa 0,0 l/m 0,3 km/h (0 Bft) S-SO 153 3 min 1,2 UV-I 351 W/m -2,9 C -0,7 C 3,2 km/h (1 Bft)
17.01.2023 12:42 -0,8 C 15,6 C 85 % 989,4 hPa 0,0 l/m 0,0 km/h (0 Bft) S-SO 153 3 min 1,2 UV-I 353 W/m -3,0 C -0,8 C 1,6 km/h (1 Bft)
17.01.2023 12:45 -0,6 C 15,6 C 86 % 989,3 hPa 0,0 l/m 0,9 km/h (0 Bft) O-NO 62 3 min 1,2 UV-I 352 W/m -2,6 C -0,6 C 4,8 km/h (1 Bft)
17.01.2023 12:48 -0,3 C 15,0 C 84 % 989,3 hPa 0,0 l/m 2,3 km/h (1 Bft) N-NO 16 3 min 1,2 UV-I 350 W/m -2,7 C -0,3 C 4,8 km/h (1 Bft)
17.01.2023 12:51 -0,3 C 15,0 C 85 % 989,2 hPa 0,0 l/m 1,4 km/h (1 Bft) N-NO 16 3 min 1,2 UV-I 350 W/m -2,5 C -0,3 C 3,2 km/h (1 Bft)
17.01.2023 12:54 -0,2 C 13,9 C 84 % 989,2 hPa 0,0 l/m 1,1 km/h (1 Bft) N-NO 16 3 min 1,2 UV-I 336 W/m -2,6 C -0,2 C 3,2 km/h (1 Bft)
17.01.2023 12:57 -0,2 C 13,9 C 84 % 989,3 hPa 0,0 l/m 2,1 km/h (1 Bft) N-NO 16 3 min 1,2 UV-I 343 W/m -2,6 C -0,2 C 4,8 km/h (1 Bft)
17.01.2023 13:00 -0,4 C 13,9 C 84 % 989,2 hPa 0,0 l/m 2,7 km/h (1 Bft) N-NO 16 3 min 1,2 UV-I 341 W/m -2,8 C -0,4 C 4,8 km/h (1 Bft)
17.01.2023 13:03 -0,6 C 12,8 C 84 % 989,2 hPa 0,0 l/m 0,8 km/h (0 Bft) N-NO 16 3 min 1,2 UV-I 341 W/m -3,0 C -0,6 C 3,2 km/h (1 Bft)
17.01.2023 13:06 -0,3 C 8,3 C 85 % 989,1 hPa 0,0 l/m 1,8 km/h (1 Bft) N-NO 15 3 min 1,2 UV-I 347 W/m -2,5 C -0,3 C 3,2 km/h (1 Bft)
17.01.2023 13:09 -0,2 C 8,9 C 84 % 989,1 hPa 0,0 l/m 1,4 km/h (1 Bft) N-NO 13 3 min 1,2 UV-I 343 W/m -2,6 C -0,2 C 4,8 km/h (1 Bft)
17.01.2023 13:12 -0,1 C 11,7 C 84 % 989,1 hPa 0,0 l/m 1,0 km/h (0 Bft) N 9 3 min 1,1 UV-I 320 W/m -2,5 C -0,1 C 4,8 km/h (1 Bft)
17.01.2023 13:15 -0,2 C 12,2 C 85 % 989,0 hPa 0,0 l/m 0,3 km/h (0 Bft) N 9 3 min 1,1 UV-I 314 W/m -2,4 C -0,2 C 1,6 km/h (1 Bft)
17.01.2023 13:18 -0,2 C 13,3 C 85 % 989,1 hPa 0,0 l/m 0,7 km/h (0 Bft) N 355 3 min 1,1 UV-I 322 W/m -2,4 C -0,2 C 4,8 km/h (1 Bft)
17.01.2023 13:21 -0,1 C 12,2 C 85 % 988,9 hPa 0,0 l/m 1,3 km/h (1 Bft) N 355 3 min 1,1 UV-I 322 W/m -2,3 C -0,1 C 3,2 km/h (1 Bft)
17.01.2023 13:24 -0,3 C 12,8 C 84 % 988,9 hPa 0,0 l/m 1,9 km/h (1 Bft) N 360 3 min 1,1 UV-I 316 W/m -2,7 C -0,3 C 4,8 km/h (1 Bft)
17.01.2023 13:27 -0,1 C 13,3 C 85 % 989,0 hPa 0,0 l/m 2,5 km/h (1 Bft) N-NO 19 3 min 1,1 UV-I 320 W/m -2,3 C -0,1 C 4,8 km/h (1 Bft)
17.01.2023 13:30 0,0 C 12,2 C 82 % 988,9 hPa 0,0 l/m 5,7 km/h (1 Bft) NO 55 3 min 1,1 UV-I 308 W/m -2,7 C 0,0 C 8,0 km/h (2 Bft)
17.01.2023 13:33 0,1 C 12,2 C 82 % 988,9 hPa 0,0 l/m 2,9 km/h (1 Bft) NO 52 3 min 1,1 UV-I 303 W/m -2,6 C 0,1 C 6,4 km/h (2 Bft)
17.01.2023 13:36 -0,1 C 11,1 C 81 % 988,9 hPa 0,0 l/m 1,8 km/h (1 Bft) NO 52 3 min 1,0 UV-I 285 W/m -3,0 C -0,1 C 3,2 km/h (1 Bft)
17.01.2023 13:39 -0,1 C 10,6 C 82 % 989,0 hPa 0,0 l/m 5,0 km/h (1 Bft) N-NO 33 3 min 1,0 UV-I 279 W/m -2,8 C -0,1 C 8,0 km/h (2 Bft)
17.01.2023 13:42 -0,1 C 11,1 C 82 % 988,9 hPa 0,0 l/m 4,9 km/h (1 Bft) NO 38 3 min 1,0 UV-I 286 W/m -2,8 C -0,1 C 8,0 km/h (2 Bft)
17.01.2023 13:45 0,1 C 10,6 C 82 % 988,9 hPa 0,0 l/m 3,4 km/h (1 Bft) O-NO 57 3 min 1,0 UV-I 298 W/m -2,6 C 0,1 C 6,4 km/h (2 Bft)
17.01.2023 13:48 0,0 C 10,6 C 82 % 988,8 hPa 0,0 l/m 3,4 km/h (1 Bft) O-NO 57 3 min 1,0 UV-I 290 W/m -2,7 C 0,0 C 6,4 km/h (2 Bft)
17.01.2023 13:51 -0,1 C 10,0 C 81 % 988,9 hPa 0,0 l/m 3,7 km/h (1 Bft) O-NO 61 3 min 1,0 UV-I 286 W/m -3,0 C -0,1 C 4,8 km/h (1 Bft)
17.01.2023 13:54 -0,1 C 7,8 C 81 % 988,9 hPa 0,0 l/m 3,3 km/h (1 Bft) O-NO 61 0 min 0,9 UV-I 214 W/m -3,0 C -0,1 C 4,8 km/h (1 Bft)
17.01.2023 13:57 -0,1 C 8,9 C 82 % 988,9 hPa 0,0 l/m 2,2 km/h (1 Bft) O-NO 61 0 min 0,9 UV-I 244 W/m -2,8 C -0,1 C 6,4 km/h (2 Bft)
17.01.2023 14:00 -0,1 C 10,0 C 82 % 989,0 hPa 0,0 l/m 1,6 km/h (1 Bft) O-NO 62 3 min 0,9 UV-I 286 W/m -2,8 C -0,1 C 4,8 km/h (1 Bft)
17.01.2023 14:03 0,0 C 9,4 C 83 % 988,9 hPa 0,0 l/m 1,0 km/h (0 Bft) O-NO 62 3 min 0,9 UV-I 268 W/m -2,5 C 0,0 C 3,2 km/h (1 Bft)
17.01.2023 14:06 -0,1 C 7,8 C 83 % 989,0 hPa 0,0 l/m 2,8 km/h (1 Bft) O-NO 65 3 min 0,8 UV-I 269 W/m -2,6 C -0,1 C 6,4 km/h (2 Bft)
17.01.2023 14:09 -0,1 C 6,1 C 82 % 988,9 hPa 0,0 l/m 2,9 km/h (1 Bft) O-NO 65 3 min 0,8 UV-I 259 W/m -2,8 C -0,1 C 4,8 km/h (1 Bft)
17.01.2023 14:12 -0,1 C 6,1 C 82 % 989,0 hPa 0,0 l/m 1,0 km/h (0 Bft) O-NO 65 0 min 0,7 UV-I 234 W/m -2,8 C -0,1 C 4,8 km/h (1 Bft)
17.01.2023 14:15 0,1 C 7,8 C 83 % 989,0 hPa 0,0 l/m 2,4 km/h (1 Bft) O-NO 67 3 min 0,8 UV-I 260 W/m -2,4 C 0,1 C 4,8 km/h (1 Bft)
17.01.2023 14:18 0,0 C 6,7 C 83 % 989,0 hPa 0,0 l/m 1,9 km/h (1 Bft) O-NO 67 3 min 0,8 UV-I 267 W/m -2,5 C 0,0 C 3,2 km/h (1 Bft)
17.01.2023 14:21 0,1 C 7,8 C 84 % 989,0 hPa 0,0 l/m 2,7 km/h (1 Bft) O-NO 57 0 min 0,7 UV-I 225 W/m -2,3 C 0,1 C 6,4 km/h (2 Bft)
17.01.2023 14:24 0,0 C 5,0 C 83 % 988,9 hPa 0,0 l/m 4,7 km/h (1 Bft) NO 45 0 min 0,6 UV-I 121 W/m -2,5 C 0,0 C 8,0 km/h (2 Bft)
17.01.2023 14:27 -0,2 C 3,9 C 82 % 989,0 hPa 0,0 l/m 2,8 km/h (1 Bft) NO 42 0 min 0,6 UV-I 113 W/m -2,9 C -0,2 C 6,4 km/h (2 Bft)
17.01.2023 14:30 -0,3 C 3,9 C 82 % 989,0 hPa 0,0 l/m 3,7 km/h (1 Bft) NO 42 0 min 0,6 UV-I 119 W/m -3,0 C -0,3 C 6,4 km/h (2 Bft)
17.01.2023 14:33 -0,3 C 4,4 C 81 % 989,0 hPa 0,0 l/m 3,9 km/h (1 Bft) NO 43 0 min 0,6 UV-I 164 W/m -3,2 C -0,3 C 6,4 km/h (2 Bft)
17.01.2023 14:36 -0,2 C 5,6 C 81 % 989,0 hPa 0,0 l/m 2,6 km/h (1 Bft) NO 42 0 min 0,6 UV-I 207 W/m -3,1 C -0,2 C 4,8 km/h (1 Bft)
17.01.2023 14:39 -0,3 C 5,0 C 81 % 988,9 hPa 0,0 l/m 2,2 km/h (1 Bft) NO 42 0 min 0,6 UV-I 126 W/m -3,2 C -0,3 C 4,8 km/h (1 Bft)
17.01.2023 14:42 -0,3 C 3,9 C 81 % 988,9 hPa 0,0 l/m 4,2 km/h (1 Bft) NO 41 0 min 0,6 UV-I 153 W/m -3,2 C -0,3 C 6,4 km/h (2 Bft)
17.01.2023 14:45 -0,4 C 3,3 C 81 % 988,9 hPa 0,0 l/m 2,0 km/h (1 Bft) NO 41 0 min 0,5 UV-I 126 W/m -3,3 C -0,4 C 3,2 km/h (1 Bft)
17.01.2023 14:48 -0,4 C 3,3 C 81 % 988,9 hPa 0,0 l/m 1,2 km/h (1 Bft) NO 42 0 min 0,5 UV-I 122 W/m -3,3 C -0,4 C 4,8 km/h (1 Bft)
17.01.2023 14:51 -0,5 C 3,3 C 82 % 988,9 hPa 0,0 l/m 1,0 km/h (0 Bft) NO 42 0 min 0,5 UV-I 98 W/m -3,2 C -0,5 C 3,2 km/h (1 Bft)
17.01.2023 14:54 -0,6 C 2,2 C 82 % 988,9 hPa 0,0 l/m 3,7 km/h (1 Bft) O-NO 59 0 min 0,5 UV-I 82 W/m -3,3 C -0,6 C 6,4 km/h (2 Bft)
17.01.2023 14:57 -0,6 C 1,7 C 82 % 988,9 hPa 0,0 l/m 1,9 km/h (1 Bft) O-NO 61 0 min 0,5 UV-I 58 W/m -3,3 C -0,6 C 4,8 km/h (1 Bft)
17.01.2023 15:00 -0,7 C 1,1 C 83 % 988,9 hPa 0,0 l/m 2,3 km/h (1 Bft) O-NO 62 0 min 0,5 UV-I 68 W/m -3,2 C -0,7 C 4,8 km/h (1 Bft)
17.01.2023 15:03 -0,7 C 2,8 C 82 % 989,0 hPa 0,0 l/m 2,6 km/h (1 Bft) O-NO 63 0 min 0,5 UV-I 128 W/m -3,4 C -0,7 C 6,4 km/h (2 Bft)
17.01.2023 15:06 -0,7 C 2,8 C 82 % 988,9 hPa 0,0 l/m 1,3 km/h (1 Bft) O-NO 63 0 min 0,5 UV-I 123 W/m -3,4 C -0,7 C 3,2 km/h (1 Bft)
17.01.2023 15:09 -0,7 C 2,2 C 82 % 989,1 hPa 0,0 l/m 2,1 km/h (1 Bft) O-NO 63 0 min 0,5 UV-I 109 W/m -3,4 C -0,7 C 4,8 km/h (1 Bft)
17.01.2023 15:12 -0,7 C 1,7 C 82 % 989,0 hPa 0,0 l/m 2,7 km/h (1 Bft) O-NO 65 0 min 0,0 UV-I 78 W/m -3,4 C -0,7 C 4,8 km/h (1 Bft)
17.01.2023 15:15 -0,8 C 1,1 C 83 % 989,0 hPa 0,0 l/m 1,5 km/h (1 Bft) O-NO 65 0 min 0,0 UV-I 75 W/m -3,3 C -0,8 C 4,8 km/h (1 Bft)
17.01.2023 15:18 -0,8 C 1,1 C 83 % 989,0 hPa 0,0 l/m 1,9 km/h (1 Bft) O-NO 65 0 min 0,0 UV-I 78 W/m -3,3 C -0,8 C 4,8 km/h (1 Bft)
17.01.2023 15:21 -0,8 C 1,1 C 83 % 989,0 hPa 0,0 l/m 1,3 km/h (1 Bft) O-NO 66 0 min 0,0 UV-I 89 W/m -3,3 C -0,8 C 4,8 km/h (1 Bft)
17.01.2023 15:24 -0,7 C 3,3 C 84 % 989,0 hPa 0,0 l/m 1,3 km/h (1 Bft) O-NO 67 0 min 0,0 UV-I 140 W/m -3,1 C -0,7 C 4,8 km/h (1 Bft)
17.01.2023 15:27 -0,7 C 3,9 C 84 % 988,9 hPa 0,0 l/m 0,9 km/h (0 Bft) O-NO 67 0 min 0,0 UV-I 136 W/m -3,1 C -0,7 C 4,8 km/h (1 Bft)
17.01.2023 15:30 -0,6 C 3,3 C 84 % 988,9 hPa 0,0 l/m 1,4 km/h (1 Bft) O-NO 67 0 min 0,0 UV-I 121 W/m -3,0 C -0,6 C 4,8 km/h (1 Bft)
17.01.2023 15:33 -0,6 C 2,8 C 84 % 988,9 hPa 0,0 l/m 0,9 km/h (0 Bft) O-NO 67 0 min 0,0 UV-I 109 W/m -3,0 C -0,6 C 4,8 km/h (1 Bft)
17.01.2023 15:36 -0,6 C 2,2 C 83 % 988,8 hPa 0,0 l/m 1,5 km/h (1 Bft) O-NO 67 0 min 0,0 UV-I 103 W/m -3,1 C -0,6 C 4,8 km/h (1 Bft)
17.01.2023 15:39 -0,6 C 2,2 C 83 % 988,8 hPa 0,0 l/m 0,6 km/h (0 Bft) O-NO 68 0 min 0,0 UV-I 96 W/m -3,1 C -0,6 C 3,2 km/h (1 Bft)
17.01.2023 15:42 -0,6 C 1,7 C 83 % 988,9 hPa 0,0 l/m 1,1 km/h (1 Bft) O-NO 68 0 min 0,0 UV-I 83 W/m -3,1 C -0,6 C 3,2 km/h (1 Bft)
17.01.2023 15:45 -0,7 C 1,7 C 83 % 988,8 hPa 0,0 l/m 0,3 km/h (0 Bft) O-NO 69 0 min 0,0 UV-I 78 W/m -3,2 C -0,7 C 3,2 km/h (1 Bft)
17.01.2023 15:48 -0,7 C 1,1 C 83 % 988,9 hPa 0,0 l/m 1,1 km/h (1 Bft) O-NO 69 0 min 0,0 UV-I 70 W/m -3,2 C -0,7 C 4,8 km/h (1 Bft)
17.01.2023 15:51 -0,8 C 1,1 C 83 % 988,9 hPa 0,0 l/m 0,6 km/h (0 Bft) O-NO 68 0 min 0,0 UV-I 66 W/m -3,3 C -0,8 C 3,2 km/h (1 Bft)
17.01.2023 15:54 -0,8 C 0,6 C 84 % 988,8 hPa 0,0 l/m 0,6 km/h (0 Bft) O-NO 68 0 min 0,0 UV-I 62 W/m -3,2 C -0,8 C 4,8 km/h (1 Bft)
17.01.2023 15:57 -0,9 C 0,0 C 83 % 988,8 hPa 0,0 l/m 1,0 km/h (0 Bft) O-NO 68 0 min 0,0 UV-I 58 W/m -3,4 C -0,9 C 4,8 km/h (1 Bft)
17.01.2023 16:00 -1,1 C 0,0 C 83 % 988,8 hPa 0,0 l/m 1,2 km/h (1 Bft) O-NO 68 0 min 0,0 UV-I 53 W/m -3,6 C -1,1 C 4,8 km/h (1 Bft)
17.01.2023 16:03 -1,2 C -0,6 C 83 % 988,8 hPa 0,0 l/m 1,8 km/h (1 Bft) O-NO 69 0 min 0,0 UV-I 50 W/m -3,7 C -1,2 C 6,4 km/h (2 Bft)
17.01.2023 16:06 -1,1 C -0,6 C 83 % 988,8 hPa 0,0 l/m 1,2 km/h (1 Bft) O-NO 69 0 min 0,0 UV-I 48 W/m -3,6 C -1,1 C 4,8 km/h (1 Bft)
17.01.2023 16:09 -1,1 C -0,6 C 83 % 988,8 hPa 0,0 l/m 0,8 km/h (0 Bft) O-NO 69 0 min 0,0 UV-I 46 W/m -3,6 C -1,1 C 3,2 km/h (1 Bft)
17.01.2023 16:12 -1,1 C -0,6 C 83 % 988,8 hPa 0,0 l/m 0,0 km/h (0 Bft) O-NO 69 0 min 0,0 UV-I 43 W/m -3,6 C -1,1 C 0,0 km/h (0 Bft)
17.01.2023 16:15 -1,2 C -1,1 C 83 % 988,8 hPa 0,0 l/m 0,0 km/h (0 Bft) O-NO 69 0 min 0,0 UV-I 40 W/m -3,7 C -1,2 C 1,6 km/h (1 Bft)
17.01.2023 16:18 -1,3 C -1,7 C 83 % 988,9 hPa 0,0 l/m 0,0 km/h (0 Bft) O-NO 69 0 min 0,0 UV-I 37 W/m -3,8 C -1,3 C 0,0 km/h (0 Bft)
17.01.2023 16:21 -1,4 C -2,2 C 84 % 988,9 hPa 0,0 l/m 0,0 km/h (0 Bft) O-NO 69 0 min 0,0 UV-I 35 W/m -3,7 C -1,4 C 0,0 km/h (0 Bft)
17.01.2023 16:24 -1,5 C -2,2 C 84 % 988,9 hPa 0,0 l/m 1,0 km/h (0 Bft) O-NO 57 0 min 0,0 UV-I 33 W/m -3,8 C -1,5 C 3,2 km/h (1 Bft)
17.01.2023 16:27 -1,7 C -2,8 C 85 % 988,8 hPa 0,0 l/m 0,5 km/h (0 Bft) NO 54 0 min 0,0 UV-I 31 W/m -3,9 C -1,7 C 3,2 km/h (1 Bft)
17.01.2023 16:30 -1,8 C -2,8 C 85 % 988,9 hPa 0,0 l/m 0,0 km/h (0 Bft) NO 54 0 min 0,0 UV-I 27 W/m -4,0 C -1,8 C 1,6 km/h (1 Bft)
17.01.2023 16:33 -1,8 C -3,3 C 85 % 988,9 hPa 0,0 l/m 0,0 km/h (0 Bft) NO 54 0 min 0,0 UV-I 24 W/m -4,0 C -1,8 C 0,0 km/h (0 Bft)
17.01.2023 16:36 -2,1 C -3,9 C 85 % 988,9 hPa 0,0 l/m 0,0 km/h (0 Bft) NO 54 0 min 0,0 UV-I 21 W/m -4,3 C -2,1 C 0,0 km/h (0 Bft)
17.01.2023 16:39 -2,2 C -3,9 C 86 % 989,0 hPa 0,0 l/m 0,0 km/h (0 Bft) NO 54 0 min 0,0 UV-I 18 W/m -4,2 C -2,2 C 0,0 km/h (0 Bft)
17.01.2023 16:42 -2,5 C -4,4 C 86 % 988,9 hPa 0,0 l/m 0,0 km/h (0 Bft) NO 54 0 min 0,0 UV-I 15 W/m -4,5 C -2,5 C 0,0 km/h (0 Bft)
17.01.2023 16:45 -2,6 C -3,9 C 87 % 989,0 hPa 0,0 l/m 0,0 km/h (0 Bft) NO 54 0 min 0,0 UV-I 13 W/m -4,5 C -2,6 C 0,0 km/h (0 Bft)
17.01.2023 16:48 -2,7 C -3,9 C 87 % 988,9 hPa 0,0 l/m 0,0 km/h (0 Bft) NO 54 0 min 0,0 UV-I 11 W/m -4,6 C -2,7 C 0,0 km/h (0 Bft)
17.01.2023 16:51 -2,8 C -3,9 C 87 % 989,0 hPa 0,0 l/m 0,0 km/h (0 Bft) NO 54 0 min 0,0 UV-I 9 W/m -4,7 C -2,8 C 0,0 km/h (0 Bft)
17.01.2023 16:54 -2,8 C -4,4 C 88 % 988,9 hPa 0,0 l/m 0,0 km/h (0 Bft) NO 54 0 min 0,0 UV-I 7 W/m -4,5 C -2,8 C 0,0 km/h (0 Bft)
17.01.2023 16:57 -2,9 C -4,4 C 88 % 989,0 hPa 0,0 l/m 0,0 km/h (0 Bft) NO 54 0 min 0,0 UV-I 5 W/m -4,6 C -2,9 C 0,0 km/h (0 Bft)
17.01.2023 17:00 -3,0 C -5,0 C 88 % 989,0 hPa 0,0 l/m 0,0 km/h (0 Bft) NO 54 0 min 0,0 UV-I 2 W/m -4,7 C -3,0 C 0,0 km/h (0 Bft)
17.01.2023 17:03 -3,2 C -5,0 C 88 % 989,2 hPa 0,0 l/m 0,0 km/h (0 Bft) NO 54 0 min 0,0 UV-I 0 W/m -4,9 C -3,2 C 0,0 km/h (0 Bft)
17.01.2023 17:06 -3,4 C -5,0 C 88 % 989,2 hPa 0,0 l/m 0,0 km/h (0 Bft) NO 54 0 min 0,0 UV-I 0 W/m -5,1 C -3,4 C 0,0 km/h (0 Bft)
17.01.2023 17:09 -3,4 C -5,0 C 89 % 989,1 hPa 0,0 l/m 0,0 km/h (0 Bft) NO 54 0 min 0,0 UV-I 0 W/m -4,9 C -3,4 C 0,0 km/h (0 Bft)
17.01.2023 17:12 -3,5 C -5,0 C 89 % 989,2 hPa 0,0 l/m 0,0 km/h (0 Bft) NO 54 0 min 0,0 UV-I 0 W/m -5,0 C -3,5 C 0,0 km/h (0 Bft)
17.01.2023 17:15 -3,7 C -5,0 C 89 % 989,2 hPa 0,0 l/m 0,0 km/h (0 Bft) NO 54 0 min 0,0 UV-I 0 W/m -5,2 C -3,7 C 0,0 km/h (0 Bft)
17.01.2023 17:18 -3,8 C -5,0 C 89 % 989,3 hPa 0,0 l/m 0,0 km/h (0 Bft) NO 54 0 min 0,0 UV-I 0 W/m -5,3 C -3,8 C 0,0 km/h (0 Bft)
17.01.2023 17:21 -3,8 C -5,6 C 89 % 989,3 hPa 0,0 l/m 0,0 km/h (0 Bft) NO 54 0 min 0,0 UV-I 0 W/m -5,3 C -3,8 C 0,0 km/h (0 Bft)
17.01.2023 17:24 -4,2 C -6,7 C 89 % 989,4 hPa 0,0 l/m 0,0 km/h (0 Bft) NO 54 0 min 0,0 UV-I 0 W/m -5,7 C -4,2 C 0,0 km/h (0 Bft)
17.01.2023 17:27 -4,3 C -6,1 C 89 % 989,4 hPa 0,0 l/m 0,0 km/h (0 Bft) NO 54 0 min 0,0 UV-I 0 W/m -5,8 C -4,3 C 0,0 km/h (0 Bft)
17.01.2023 17:30 -4,3 C -5,6 C 89 % 989,5 hPa 0,0 l/m 0,0 km/h (0 Bft) NO 54 0 min 0,0 UV-I 0 W/m -5,8 C -4,3 C 0,0 km/h (0 Bft)
17.01.2023 17:33 -4,4 C -5,6 C 90 % 989,5 hPa 0,0 l/m 0,0 km/h (0 Bft) NO 54 0 min 0,0 UV-I 0 W/m -5,8 C -4,4 C 0,0 km/h (0 Bft)
17.01.2023 17:36 -4,3 C -5,6 C 90 % 989,4 hPa 0,0 l/m 0,0 km/h (0 Bft) NO 54 0 min 0,0 UV-I 0 W/m -5,7 C -4,3 C 0,0 km/h (0 Bft)
17.01.2023 17:39 -4,3 C -5,6 C 90 % 989,5 hPa 0,0 l/m 0,5 km/h (0 Bft) NO 54 0 min 0,0 UV-I 0 W/m -5,7 C -4,3 C 1,6 km/h (1 Bft)
17.01.2023 17:42 -4,2 C -5,6 C 90 % 989,5 hPa 0,0 l/m 0,7 km/h (0 Bft) NO 54 0 min 0,0 UV-I 0 W/m -5,6 C -4,2 C 3,2 km/h (1 Bft)
17.01.2023 17:45 -4,3 C -5,6 C 90 % 989,6 hPa 0,0 l/m 0,1 km/h (0 Bft) NO 54 0 min 0,0 UV-I 0 W/m -5,7 C -4,3 C 1,6 km/h (1 Bft)
17.01.2023 17:48 -4,2 C -5,6 C 90 % 989,6 hPa 0,0 l/m 0,4 km/h (0 Bft) NO 54 0 min 0,0 UV-I 0 W/m -5,6 C -4,2 C 3,2 km/h (1 Bft)
17.01.2023 17:51 -4,2 C -5,6 C 90 % 989,6 hPa 0,0 l/m 0,1 km/h (0 Bft) NO 54 0 min 0,0 UV-I 0 W/m -5,6 C -4,2 C 1,6 km/h (1 Bft)
17.01.2023 17:54 -4,3 C -6,1 C 90 % 989,6 hPa 0,0 l/m 0,0 km/h (0 Bft) NO 54 0 min 0,0 UV-I 0 W/m -5,7 C -4,3 C 0,0 km/h (0 Bft)
17.01.2023 17:57 -4,9 C -7,2 C 89 % 989,7 hPa 0,0 l/m 0,0 km/h (0 Bft) NO 54 0 min 0,0 UV-I 0 W/m -6,4 C -4,9 C 0,0 km/h (0 Bft)
17.01.2023 18:00 -5,0 C -7,2 C 90 % 989,6 hPa 0,0 l/m 0,0 km/h (0 Bft) NO 54 0 min 0,0 UV-I 0 W/m -6,4 C -5,0 C 0,0 km/h (0 Bft)
17.01.2023 18:03 -5,0 C -6,7 C 90 % 989,6 hPa 0,0 l/m 0,0 km/h (0 Bft) NO 54 0 min 0,0 UV-I 0 W/m -6,4 C -5,0 C 0,0 km/h (0 Bft)
17.01.2023 18:06 -4,8 C -6,7 C 90 % 989,6 hPa 0,0 l/m 0,0 km/h (0 Bft) NO 54 0 min 0,0 UV-I 0 W/m -6,2 C -4,8 C 0,0 km/h (0 Bft)
17.01.2023 18:09 -5,1 C -7,2 C 90 % 989,8 hPa 0,0 l/m 0,0 km/h (0 Bft) NO 54 0 min 0,0 UV-I 0 W/m -6,5 C -5,1 C 0,0 km/h (0 Bft)
17.01.2023 18:12 -5,3 C -7,2 C 90 % 989,8 hPa 0,0 l/m 0,0 km/h (0 Bft) NO 54 0 min 0,0 UV-I 0 W/m -6,7 C -5,3 C 0,0 km/h (0 Bft)
17.01.2023 18:15 -5,3 C -6,7 C 90 % 989,7 hPa 0,0 l/m 0,0 km/h (0 Bft) NO 54 0 min 0,0 UV-I 0 W/m -6,7 C -5,3 C 0,0 km/h (0 Bft)
17.01.2023 18:18 -5,1 C -6,7 C 90 % 989,7 hPa 0,0 l/m 0,0 km/h (0 Bft) NO 54 0 min 0,0 UV-I 0 W/m -6,5 C -5,1 C 0,0 km/h (0 Bft)
17.01.2023 18:21 -5,3 C -7,2 C 90 % 989,8 hPa 0,0 l/m 0,0 km/h (0 Bft) NO 54 0 min 0,0 UV-I 0 W/m -6,7 C -5,3 C 0,0 km/h (0 Bft)
17.01.2023 18:24 -5,4 C -7,2 C 90 % 989,9 hPa 0,0 l/m 0,0 km/h (0 Bft) NO 54 0 min 0,0 UV-I 0 W/m -6,8 C -5,4 C 0,0 km/h (0 Bft)
17.01.2023 18:27 -5,4 C -6,7 C 91 % 989,9 hPa 0,0 l/m 0,0 km/h (0 Bft) NO 54 0 min 0,0 UV-I 0 W/m -6,6 C -5,4 C 0,0 km/h (0 Bft)
17.01.2023 18:30 -5,3 C -6,7 C 91 % 990,0 hPa 0,0 l/m 0,0 km/h (0 Bft) NO 54 0 min 0,0 UV-I 0 W/m -6,5 C -5,3 C 0,0 km/h (0 Bft)
17.01.2023 18:33 -5,2 C -6,7 C 91 % 990,0 hPa 0,0 l/m 0,0 km/h (0 Bft) NO 54 0 min 0,0 UV-I 0 W/m -6,4 C -5,2 C 0,0 km/h (0 Bft)
17.01.2023 18:36 -5,2 C -6,7 C 91 % 990,0 hPa 0,0 l/m 0,0 km/h (0 Bft) NO 54 0 min 0,0 UV-I 0 W/m -6,4 C -5,2 C 0,0 km/h (0 Bft)
17.01.2023 18:39 -5,2 C -7,2 C 91 % 990,1 hPa 0,0 l/m 0,0 km/h (0 Bft) NO 54 0 min 0,0 UV-I 0 W/m -6,4 C -5,2 C 0,0 km/h (0 Bft)
17.01.2023 18:42 -5,2 C -7,2 C 91 % 990,1 hPa 0,0 l/m 0,0 km/h (0 Bft) NO 54 0 min 0,0 UV-I 0 W/m -6,4 C -5,2 C 0,0 km/h (0 Bft)
17.01.2023 18:45 -5,6 C -7,8 C 90 % 990,2 hPa 0,0 l/m 0,0 km/h (0 Bft) NO 54 0 min 0,0 UV-I 0 W/m -7,0 C -5,6 C 0,0 km/h (0 Bft)
17.01.2023 18:48 -5,7 C -7,8 C 90 % 990,3 hPa 0,0 l/m 0,0 km/h (0 Bft) NO 54 0 min 0,0 UV-I 0 W/m -7,1 C -5,7 C 0,0 km/h (0 Bft)
17.01.2023 18:51 -5,8 C -7,8 C 91 % 990,3 hPa 0,0 l/m 0,0 km/h (0 Bft) NO 54 0 min 0,0 UV-I 0 W/m -7,0 C -5,8 C 0,0 km/h (0 Bft)
17.01.2023 18:54 -5,9 C -7,8 C 90 % 990,3 hPa 0,0 l/m 0,0 km/h (0 Bft) NO 54 0 min 0,0 UV-I 0 W/m -7,3 C -5,9 C 0,0 km/h (0 Bft)
17.01.2023 18:57 -6,0 C -7,8 C 90 % 990,3 hPa 0,0 l/m 0,0 km/h (0 Bft) NO 54 0 min 0,0 UV-I 0 W/m -7,4 C -6,0 C 0,0 km/h (0 Bft)
17.01.2023 19:00 -6,1 C -7,8 C 91 % 990,3 hPa 0,0 l/m 0,0 km/h (0 Bft) NO 54 0 min 0,0 UV-I 0 W/m -7,3 C -6,1 C 0,0 km/h (0 Bft)
17.01.2023 19:03 -6,2 C -7,8 C 91 % 990,4 hPa 0,0 l/m 0,0 km/h (0 Bft) NO 54 0 min 0,0 UV-I 0 W/m -7,4 C -6,2 C 0,0 km/h (0 Bft)
17.01.2023 19:06 -6,1 C -7,2 C 91 % 990,3 hPa 0,0 l/m 0,0 km/h (0 Bft) NO 54 0 min 0,0 UV-I 0 W/m -7,3 C -6,1 C 0,0 km/h (0 Bft)
17.01.2023 19:09 -6,0 C -7,2 C 91 % 990,4 hPa 0,0 l/m 0,0 km/h (0 Bft) NO 54 0 min 0,0 UV-I 0 W/m -7,2 C -6,0 C 0,0 km/h (0 Bft)
17.01.2023 19:12 -5,9 C -7,2 C 91 % 990,3 hPa 0,0 l/m 0,0 km/h (0 Bft) NO 54 0 min 0,0 UV-I 0 W/m -7,1 C -5,9 C 0,0 km/h (0 Bft)
17.01.2023 19:15 -5,9 C -7,8 C 91 % 990,4 hPa 0,0 l/m 0,0 km/h (0 Bft) NO 54 0 min 0,0 UV-I 0 W/m -7,1 C -5,9 C 0,0 km/h (0 Bft)
17.01.2023 19:18 -5,8 C -7,8 C 91 % 990,5 hPa 0,0 l/m 0,0 km/h (0 Bft) NO 54 0 min 0,0 UV-I 0 W/m -7,0 C -5,8 C 0,0 km/h (0 Bft)
17.01.2023 19:21 -6,1 C -7,8 C 90 % 990,6 hPa 0,0 l/m 0,0 km/h (0 Bft) NO 54 0 min 0,0 UV-I 0 W/m -7,5 C -6,1 C 0,0 km/h (0 Bft)
17.01.2023 19:24 -6,3 C -8,3 C 90 % 990,6 hPa 0,0 l/m 0,0 km/h (0 Bft) NO 54 0 min 0,0 UV-I 0 W/m -7,7 C -6,3 C 0,0 km/h (0 Bft)
17.01.2023 19:27 -6,2 C -7,8 C 91 % 990,6 hPa 0,0 l/m 0,0 km/h (0 Bft) NO 54 0 min 0,0 UV-I 0 W/m -7,4 C -6,2 C 0,0 km/h (0 Bft)
17.01.2023 19:30 -6,3 C -8,3 C 91 % 990,6 hPa 0,0 l/m 0,0 km/h (0 Bft) NO 54 0 min 0,0 UV-I 0 W/m -7,5 C -6,3 C 0,0 km/h (0 Bft)
17.01.2023 19:33 -6,3 C -7,8 C 91 % 990,7 hPa 0,0 l/m 0,0 km/h (0 Bft) NO 54 0 min 0,0 UV-I 0 W/m -7,5 C -6,3 C 0,0 km/h (0 Bft)
17.01.2023 19:36 -6,4 C -8,3 C 91 % 990,7 hPa 0,0 l/m 0,0 km/h (0 Bft) NO 54 0 min 0,0 UV-I 0 W/m -7,6 C -6,4 C 0,0 km/h (0 Bft)
17.01.2023 19:39 -6,5 C -8,3 C 90 % 990,7 hPa 0,0 l/m 0,0 km/h (0 Bft) NO 54 0 min 0,0 UV-I 0 W/m -7,9 C -6,5 C 0,0 km/h (0 Bft)
17.01.2023 19:42 -6,5 C -7,8 C 90 % 990,7 hPa 0,0 l/m 0,0 km/h (0 Bft) NO 54 0 min 0,0 UV-I 0 W/m -7,9 C -6,5 C 0,0 km/h (0 Bft)
17.01.2023 19:45 -6,6 C -7,8 C 90 % 990,6 hPa 0,0 l/m 0,0 km/h (0 Bft) NO 54 0 min 0,0 UV-I 0 W/m -8,0 C -6,6 C 0,0 km/h (0 Bft)
17.01.2023 19:48 -6,4 C -7,8 C 91 % 990,7 hPa 0,0 l/m 0,0 km/h (0 Bft) NO 54 0 min 0,0 UV-I 0 W/m -7,6 C -6,4 C 0,0 km/h (0 Bft)
17.01.2023 19:51 -6,4 C -7,8 C 91 % 990,8 hPa 0,0 l/m 0,0 km/h (0 Bft) NO 54 0 min 0,0 UV-I 0 W/m -7,6 C -6,4 C 0,0 km/h (0 Bft)
17.01.2023 19:54 -6,4 C -8,3 C 91 % 990,7 hPa 0,0 l/m 0,0 km/h (0 Bft) NO 54 0 min 0,0 UV-I 0 W/m -7,6 C -6,4 C 0,0 km/h (0 Bft)
17.01.2023 19:57 -6,4 C -8,3 C 91 % 990,8 hPa 0,0 l/m 0,0 km/h (0 Bft) NO 54 0 min 0,0 UV-I 0 W/m -7,6 C -6,4 C 0,0 km/h (0 Bft)
17.01.2023 20:00 -6,4 C -8,3 C 91 % 990,9 hPa 0,0 l/m 0,0 km/h (0 Bft) NO 54 0 min 0,0 UV-I 0 W/m -7,6 C -6,4 C 0,0 km/h (0 Bft)
17.01.2023 20:03 -6,3 C -7,8 C 91 % 990,9 hPa 0,0 l/m 0,0 km/h (0 Bft) NO 54 0 min 0,0 UV-I 0 W/m -7,5 C -6,3 C 0,0 km/h (0 Bft)
17.01.2023 20:06 -6,4 C -7,8 C 91 % 990,9 hPa 0,0 l/m 0,0 km/h (0 Bft) NO 54 0 min 0,0 UV-I 0 W/m -7,6 C -6,4 C 0,0 km/h (0 Bft)
17.01.2023 20:09 -6,5 C -8,3 C 90 % 990,8 hPa 0,0 l/m 0,0 km/h (0 Bft) NO 54 0 min 0,0 UV-I 0 W/m -7,9 C -6,5 C 0,0 km/h (0 Bft)
17.01.2023 20:12 -6,8 C -8,9 C 90 % 990,9 hPa 0,0 l/m 0,0 km/h (0 Bft) NO 54 0 min 0,0 UV-I 0 W/m -8,2 C -6,8 C 0,0 km/h (0 Bft)
17.01.2023 20:15 -6,8 C -8,9 C 90 % 990,9 hPa 0,0 l/m 0,0 km/h (0 Bft) NO 54 0 min 0,0 UV-I 0 W/m -8,2 C -6,8 C 0,0 km/h (0 Bft)
17.01.2023 20:18 -6,8 C -8,3 C 91 % 991,0 hPa 0,0 l/m 0,0 km/h (0 Bft) NO 54 0 min 0,0 UV-I 0 W/m -8,0 C -6,8 C 0,0 km/h (0 Bft)
17.01.2023 20:24 -6,6 C -7,8 C 91 % 990,9 hPa 0,0 l/m 0,0 km/h (0 Bft) NO 54 0 min 0,0 UV-I 0 W/m -7,8 C -6,6 C 0,0 km/h (0 Bft)
17.01.2023 20:27 -6,7 C -7,8 C 91 % 991,1 hPa 0,0 l/m 0,0 km/h (0 Bft) NO 54 0 min 0,0 UV-I 0 W/m -7,9 C -6,7 C 0,0 km/h (0 Bft)
17.01.2023 20:30 -6,8 C -8,3 C 91 % 991,1 hPa 0,0 l/m 0,0 km/h (0 Bft) NO 54 0 min 0,0 UV-I 0 W/m -8,0 C -6,8 C 0,0 km/h (0 Bft)
17.01.2023 20:33 -6,9 C -8,3 C 90 % 991,2 hPa 0,0 l/m 0,0 km/h (0 Bft) NO 54 0 min 0,0 UV-I 0 W/m -8,3 C -6,9 C 0,0 km/h (0 Bft)
17.01.2023 20:36 -7,2 C -8,3 C 90 % 991,1 hPa 0,0 l/m 0,0 km/h (0 Bft) NO 54 0 min 0,0 UV-I 0 W/m -8,6 C -7,2 C 0,0 km/h (0 Bft)
17.01.2023 20:39 -7,3 C -8,9 C 90 % 991,2 hPa 0,0 l/m 0,0 km/h (0 Bft) NO 54 0 min 0,0 UV-I 0 W/m -8,7 C -7,3 C 0,0 km/h (0 Bft)
17.01.2023 20:42 -7,3 C -8,9 C 91 % 991,3 hPa 0,0 l/m 0,0 km/h (0 Bft) NO 54 0 min 0,0 UV-I 0 W/m -8,5 C -7,3 C 0,0 km/h (0 Bft)
17.01.2023 20:45 -7,3 C -8,3 C 91 % 991,4 hPa 0,0 l/m 0,0 km/h (0 Bft) NO 54 0 min 0,0 UV-I 0 W/m -8,5 C -7,3 C 0,0 km/h (0 Bft)
17.01.2023 20:48 -7,1 C -8,3 C 91 % 991,3 hPa 0,0 l/m 0,0 km/h (0 Bft) NO 54 0 min 0,0 UV-I 0 W/m -8,3 C -7,1 C 0,0 km/h (0 Bft)
17.01.2023 20:54 -7,0 C -8,9 C 91 % 991,4 hPa 0,0 l/m 0,0 km/h (0 Bft) NO 54 0 min 0,0 UV-I 0 W/m -8,2 C -7,0 C 0,0 km/h (0 Bft)
17.01.2023 20:57 -7,1 C -8,9 C 91 % 991,4 hPa 0,0 l/m 0,0 km/h (0 Bft) NO 54 0 min 0,0 UV-I 0 W/m -8,3 C -7,1 C 0,0 km/h (0 Bft)
17.01.2023 21:00 -6,9 C -8,3 C 91 % 991,4 hPa 0,0 l/m 0,0 km/h (0 Bft) NO 54 0 min 0,0 UV-I 0 W/m -8,1 C -6,9 C 0,0 km/h (0 Bft)
17.01.2023 21:03 -6,9 C -8,3 C 91 % 991,5 hPa 0,0 l/m 0,0 km/h (0 Bft) NO 54 0 min 0,0 UV-I 0 W/m -8,1 C -6,9 C 0,0 km/h (0 Bft)
17.01.2023 21:06 -6,8 C -8,3 C 91 % 991,6 hPa 0,0 l/m 0,0 km/h (0 Bft) NO 54 0 min 0,0 UV-I 0 W/m -8,0 C -6,8 C 0,0 km/h (0 Bft)
17.01.2023 21:09 -6,6 C -8,3 C 91 % 991,5 hPa 0,0 l/m 0,0 km/h (0 Bft) NO 54 0 min 0,0 UV-I 0 W/m -7,8 C -6,6 C 0,0 km/h (0 Bft)
17.01.2023 21:12 -6,7 C -8,3 C 91 % 991,5 hPa 0,0 l/m 0,0 km/h (0 Bft) NO 54 0 min 0,0 UV-I 0 W/m -7,9 C -6,7 C 0,0 km/h (0 Bft)
17.01.2023 21:15 -6,9 C -8,9 C 90 % 991,4 hPa 0,0 l/m 0,0 km/h (0 Bft) NO 54 0 min 0,0 UV-I 0 W/m -8,3 C -6,9 C 0,0 km/h (0 Bft)
17.01.2023 21:18 -6,9 C -8,9 C 91 % 991,5 hPa 0,0 l/m 0,0 km/h (0 Bft) NO 54 0 min 0,0 UV-I 0 W/m -8,1 C -6,9 C 0,0 km/h (0 Bft)
17.01.2023 21:21 -6,7 C -8,3 C 91 % 991,4 hPa 0,0 l/m 0,0 km/h (0 Bft) NO 54 0 min 0,0 UV-I 0 W/m -7,9 C -6,7 C 0,0 km/h (0 Bft)
17.01.2023 21:24 -6,8 C -8,3 C 91 % 991,5 hPa 0,0 l/m 0,0 km/h (0 Bft) NO 54 0 min 0,0 UV-I 0 W/m -8,0 C -6,8 C 0,0 km/h (0 Bft)
17.01.2023 21:27 -7,1 C -8,9 C 90 % 991,7 hPa 0,0 l/m 0,0 km/h (0 Bft) NO 54 0 min 0,0 UV-I 0 W/m -8,5 C -7,1 C 0,0 km/h (0 Bft)
17.01.2023 21:30 -7,2 C -8,9 C 90 % 991,7 hPa 0,0 l/m 0,0 km/h (0 Bft) NO 54 0 min 0,0 UV-I 0 W/m -8,6 C -7,2 C 0,0 km/h (0 Bft)
17.01.2023 21:33 -7,2 C -8,9 C 90 % 991,6 hPa 0,0 l/m 0,0 km/h (0 Bft) NO 54 0 min 0,0 UV-I 0 W/m -8,6 C -7,2 C 0,0 km/h (0 Bft)
17.01.2023 21:36 -7,3 C -8,9 C 90 % 991,8 hPa 0,0 l/m 0,0 km/h (0 Bft) NO 54 0 min 0,0 UV-I 0 W/m -8,7 C -7,3 C 0,0 km/h (0 Bft)
17.01.2023 21:39 -7,3 C -8,9 C 90 % 991,7 hPa 0,0 l/m 0,0 km/h (0 Bft) NO 54 0 min 0,0 UV-I 0 W/m -8,7 C -7,3 C 0,0 km/h (0 Bft)
17.01.2023 21:42 -7,3 C -8,3 C 90 % 991,7 hPa 0,0 l/m 0,0 km/h (0 Bft) NO 54 0 min 0,0 UV-I 0 W/m -8,7 C -7,3 C 0,0 km/h (0 Bft)
17.01.2023 21:45 -7,3 C -8,3 C 90 % 991,8 hPa 0,0 l/m 0,0 km/h (0 Bft) NO 54 0 min 0,0 UV-I 0 W/m -8,7 C -7,3 C 0,0 km/h (0 Bft)
17.01.2023 21:48 -7,3 C -8,3 C 90 % 991,8 hPa 0,0 l/m 0,0 km/h (0 Bft) NO 54 0 min 0,0 UV-I 0 W/m -8,7 C -7,3 C 0,0 km/h (0 Bft)
17.01.2023 21:51 -7,4 C -8,9 C 90 % 991,9 hPa 0,0 l/m 0,0 km/h (0 Bft) NO 54 0 min 0,0 UV-I 0 W/m -8,8 C -7,4 C 0,0 km/h (0 Bft)
17.01.2023 21:54 -7,3 C -8,9 C 91 % 991,8 hPa 0,0 l/m 0,0 km/h (0 Bft) NO 54 0 min 0,0 UV-I 0 W/m -8,5 C -7,3 C 0,0 km/h (0 Bft)
17.01.2023 21:57 -7,2 C -8,3 C 90 % 991,9 hPa 0,0 l/m 0,0 km/h (0 Bft) NO 54 0 min 0,0 UV-I 0 W/m -8,6 C -7,2 C 0,0 km/h (0 Bft)
17.01.2023 22:00 -7,3 C -8,3 C 90 % 992,0 hPa 0,0 l/m 0,0 km/h (0 Bft) NO 54 0 min 0,0 UV-I 0 W/m -8,7 C -7,3 C 0,0 km/h (0 Bft)
17.01.2023 22:03 -7,3 C -8,9 C 90 % 991,9 hPa 0,0 l/m 0,0 km/h (0 Bft) NO 54 0 min 0,0 UV-I 0 W/m -8,7 C -7,3 C 0,0 km/h (0 Bft)
17.01.2023 22:09 -7,4 C -8,9 C 90 % 991,9 hPa 0,0 l/m 0,0 km/h (0 Bft) NO 54 0 min 0,0 UV-I 0 W/m -8,8 C -7,4 C 0,0 km/h (0 Bft)
17.01.2023 22:12 -7,6 C -8,9 C 90 % 991,9 hPa 0,0 l/m 0,0 km/h (0 Bft) NO 54 0 min 0,0 UV-I 0 W/m -8,9 C -7,6 C 0,0 km/h (0 Bft)
17.01.2023 22:15 -7,4 C -8,3 C 90 % 992,1 hPa 0,0 l/m 0,0 km/h (0 Bft) NO 54 0 min 0,0 UV-I 0 W/m -8,8 C -7,4 C 0,0 km/h (0 Bft)
17.01.2023 22:18 -7,3 C -8,3 C 90 % 992,0 hPa 0,0 l/m 0,0 km/h (0 Bft) NO 54 0 min 0,0 UV-I 0 W/m -8,7 C -7,3 C 0,0 km/h (0 Bft)
17.01.2023 22:21 -7,3 C -8,3 C 90 % 992,0 hPa 0,0 l/m 0,0 km/h (0 Bft) NO 54 0 min 0,0 UV-I 0 W/m -8,7 C -7,3 C 0,0 km/h (0 Bft)
17.01.2023 22:24 -7,1 C -7,8 C 90 % 992,0 hPa 0,0 l/m 0,0 km/h (0 Bft) NO 54 0 min 0,0 UV-I 0 W/m -8,5 C -7,1 C 0,0 km/h (0 Bft)
17.01.2023 22:27 -7,0 C -7,8 C 91 % 992,0 hPa 0,0 l/m 0,0 km/h (0 Bft) NO 54 0 min 0,0 UV-I 0 W/m -8,2 C -7,0 C 0,0 km/h (0 Bft)
17.01.2023 22:30 -6,9 C -7,8 C 91 % 992,1 hPa 0,0 l/m 0,0 km/h (0 Bft) NO 54 0 min 0,0 UV-I 0 W/m -8,1 C -6,9 C 0,0 km/h (0 Bft)
17.01.2023 22:33 -7,0 C -7,8 C 90 % 992,2 hPa 0,0 l/m 0,0 km/h (0 Bft) NO 54 0 min 0,0 UV-I 0 W/m -8,4 C -7,0 C 0,0 km/h (0 Bft)
17.01.2023 22:39 -6,8 C -7,8 C 91 % 992,2 hPa 0,0 l/m 0,0 km/h (0 Bft) NO 54 0 min 0,0 UV-I 0 W/m -8,0 C -6,8 C 0,0 km/h (0 Bft)
17.01.2023 22:42 -6,6 C -7,2 C 91 % 992,1 hPa 0,0 l/m 0,0 km/h (0 Bft) NO 54 0 min 0,0 UV-I 0 W/m -7,8 C -6,6 C 0,0 km/h (0 Bft)
17.01.2023 22:45 -6,5 C -6,7 C 91 % 992,1 hPa 0,0 l/m 0,0 km/h (0 Bft) NO 54 0 min 0,0 UV-I 0 W/m -7,7 C -6,5 C 0,0 km/h (0 Bft)
17.01.2023 22:48 -6,4 C -7,2 C 91 % 992,1 hPa 0,0 l/m 0,0 km/h (0 Bft) NO 54 0 min 0,0 UV-I 0 W/m -7,6 C -6,4 C 0,0 km/h (0 Bft)
17.01.2023 22:51 -6,4 C -6,7 C 91 % 992,2 hPa 0,0 l/m 0,0 km/h (0 Bft) NO 54 0 min 0,0 UV-I 0 W/m -7,6 C -6,4 C 0,0 km/h (0 Bft)
17.01.2023 22:54 -6,5 C -7,2 C 90 % 992,3 hPa 0,0 l/m 0,0 km/h (0 Bft) NO 54 0 min 0,0 UV-I 0 W/m -7,9 C -6,5 C 0,0 km/h (0 Bft)
17.01.2023 22:57 -6,5 C -7,2 C 90 % 992,3 hPa 0,0 l/m 0,0 km/h (0 Bft) NO 54 0 min 0,0 UV-I 0 W/m -7,9 C -6,5 C 0,0 km/h (0 Bft)
17.01.2023 23:00 -6,6 C -7,2 C 90 % 992,2 hPa 0,0 l/m 0,0 km/h (0 Bft) NO 54 0 min 0,0 UV-I 0 W/m -8,0 C -6,6 C 0,0 km/h (0 Bft)
17.01.2023 23:03 -6,6 C -7,2 C 90 % 992,3 hPa 0,0 l/m 0,0 km/h (0 Bft) NO 54 0 min 0,0 UV-I 0 W/m -8,0 C -6,6 C 0,0 km/h (0 Bft)
17.01.2023 23:06 -6,6 C -7,8 C 90 % 992,2 hPa 0,0 l/m 0,0 km/h (0 Bft) NO 54 0 min 0,0 UV-I 0 W/m -8,0 C -6,6 C 0,0 km/h (0 Bft)
17.01.2023 23:07 -6,6 C -7,8 C 91 % 992,2 hPa 0,0 l/m 0,0 km/h (0 Bft) N 0 0 min 0,0 UV-I 0 W/m -7,8 C -6,6 C 0,0 km/h (0 Bft)
17.01.2023 23:08 -6,5 C -7,8 C 91 % 992,2 hPa 0,0 l/m 0,0 km/h (0 Bft) N 0 0 min 0,0 UV-I 0 W/m -7,7 C -6,5 C 0,0 km/h (0 Bft)
17.01.2023 23:09 -6,5 C -7,8 C 91 % 992,2 hPa 0,0 l/m 0,0 km/h (0 Bft) N 0 0 min 0,0 UV-I 0 W/m -7,7 C -6,5 C 0,0 km/h (0 Bft)
17.01.2023 23:12 -6,5 C -7,8 C 90 % 992,3 hPa 0,0 l/m 0,0 km/h (0 Bft) NO 54 0 min 0,0 UV-I 0 W/m -7,9 C -6,5 C 0,0 km/h (0 Bft)
17.01.2023 23:15 -6,7 C -7,8 C 90 % 992,3 hPa 0,0 l/m 0,0 km/h (0 Bft) NO 54 0 min 0,0 UV-I 0 W/m -8,1 C -6,7 C 0,0 km/h (0 Bft)
17.01.2023 23:18 -6,8 C -8,3 C 90 % 992,3 hPa 0,0 l/m 0,0 km/h (0 Bft) NO 54 0 min 0,0 UV-I 0 W/m -8,2 C -6,8 C 0,0 km/h (0 Bft)
17.01.2023 23:21 -6,7 C -8,3 C 91 % 992,3 hPa 0,0 l/m 0,0 km/h (0 Bft) NO 54 0 min 0,0 UV-I 0 W/m -7,9 C -6,7 C 0,0 km/h (0 Bft)
17.01.2023 23:24 -6,8 C -8,3 C 90 % 992,3 hPa 0,0 l/m 0,0 km/h (0 Bft) NO 54 0 min 0,0 UV-I 0 W/m -8,2 C -6,8 C 0,0 km/h (0 Bft)
17.01.2023 23:27 -6,8 C -8,3 C 90 % 992,3 hPa 0,0 l/m 0,0 km/h (0 Bft) NO 54 0 min 0,0 UV-I 0 W/m -8,2 C -6,8 C 0,0 km/h (0 Bft)
17.01.2023 23:30 -7,0 C -8,3 C 90 % 992,2 hPa 0,0 l/m 0,0 km/h (0 Bft) NO 54 0 min 0,0 UV-I 0 W/m -8,4 C -7,0 C 0,0 km/h (0 Bft)
17.01.2023 23:33 -7,1 C -8,3 C 90 % 992,3 hPa 0,0 l/m 0,0 km/h (0 Bft) NO 54 0 min 0,0 UV-I 0 W/m -8,5 C -7,1 C 0,0 km/h (0 Bft)
17.01.2023 23:36 -7,0 C -8,3 C 90 % 992,4 hPa 0,0 l/m 0,0 km/h (0 Bft) NO 54 0 min 0,0 UV-I 0 W/m -8,4 C -7,0 C 0,0 km/h (0 Bft)
17.01.2023 23:39 -7,0 C -8,3 C 90 % 992,3 hPa 0,0 l/m 0,0 km/h (0 Bft) NO 53 0 min 0,0 UV-I 0 W/m -8,4 C -7,0 C 0,0 km/h (0 Bft)
17.01.2023 23:42 -7,1 C -8,3 C 90 % 992,4 hPa 0,0 l/m 0,0 km/h (0 Bft) NO 53 0 min 0,0 UV-I 0 W/m -8,5 C -7,1 C 0,0 km/h (0 Bft)
17.01.2023 23:45 -7,0 C -8,3 C 90 % 992,4 hPa 0,0 l/m 0,0 km/h (0 Bft) NO 53 0 min 0,0 UV-I 0 W/m -8,4 C -7,0 C 0,0 km/h (0 Bft)
17.01.2023 23:48 -6,9 C -8,3 C 91 % 992,3 hPa 0,0 l/m 0,0 km/h (0 Bft) NO 53 0 min 0,0 UV-I 0 W/m -8,1 C -6,9 C 0,0 km/h (0 Bft)
17.01.2023 23:51 -6,8 C -8,3 C 91 % 992,3 hPa 0,0 l/m 0,0 km/h (0 Bft) NO 53 0 min 0,0 UV-I 0 W/m -8,0 C -6,8 C 0,0 km/h (0 Bft)
17.01.2023 23:54 -6,7 C -8,3 C 91 % 992,3 hPa 0,0 l/m 0,0 km/h (0 Bft) NO 53 0 min 0,0 UV-I 0 W/m -7,9 C -6,7 C 0,0 km/h (0 Bft)
17.01.2023 23:57 -6,7 C -8,3 C 91 % 992,3 hPa 0,0 l/m 0,0 km/h (0 Bft) NO 53 0 min 0,0 UV-I 0 W/m -7,9 C -6,7 C 0,0 km/h (0 Bft)
17.01.2023 23:58 -6,8 C -8,9 C 90 % 992,3 hPa 0,0 l/m 0,0 km/h (0 Bft) N 0 0 min 0,0 UV-I 0 W/m -8,2 C -6,8 C 0,0 km/h (0 Bft)
17.01.2023 23:59 -6,8 C -8,9 C 90 % 992,3 hPa 0,0 l/m 0,0 km/h (0 Bft) N 0 0 min 0,0 UV-I 0 W/m -8,2 C -6,8 C 0,0 km/h (0 Bft)
_ Min-Zeit 22:12 20:12 13:36 00:00 - 07:00 - - - - - 22:12 00:24 07:03
Minimum _ -7,6 C -8,9 C 81 % 986,3 hPa - 0,0 km/h (0 Bft) - - - - - -8,9 C -12,1 C 0,0 km/h (0 Bft)
_ Max-Zeit 00:00 12:42 00:00 23:36 00:06 00:24 - - 10:03 12:30 12:42 00:00 13:33 00:26
Maximum _ 0,1 C 15,6 C 92 % 992,4 hPa 0,2 l/m 25,7 km/h
SW (4 Bft)
- - 3 min 1,2 UV-I 353 W/m -1,0 C 0,1 C 38,6 km/h
SW (5 Bft)
Durchschnitt _ -2,9 C -1,9 C 89 % 989,6 hPa #0,6 l/m 3,7 km/h (1 Bft) SW - #3:39 h 0,9 UV-I 185 W/m -4,5 C -4,0 C 6,2 km/h (2 Bft)